<?xml version="1.0" encoding="UTF-8" standalone="no" ?>
<gpx xmlns="http://www.topografix.com/GPX/1/1" xmlns:xsi="http://www.w3.org/2001/XMLSchema-instance" xsi:schemaLocation="http://www.topografix.com/GPX/1/1 http://www.topografix.com/GPX/1/1/gpx.xsd" version="1.1" creator="VisuGPX - https://www.visugpx.com">
  <metadata>
    <name>nantiat 2018</name>
    <desc><![CDATA[Découverte des sentiers et des chemins du limousin . ]]></desc>
  </metadata>
  <trk>
    <name><![CDATA[2018-10-21 11-10-24]]></name>
    <trkseg>
      <trkpt lat="46.0037" lon="1.17484">
        <ele>333.71</ele>
        <time>2018-10-21T06:33:45Z</time>
      </trkpt>
      <trkpt lat="46.0037" lon="1.17484">
        <ele>333.71</ele>
        <time>2018-10-21T06:33:46Z</time>
      </trkpt>
      <trkpt lat="46.00368" lon="1.1748">
        <ele>333.23</ele>
        <time>2018-10-21T06:34:13Z</time>
      </trkpt>
      <trkpt lat="46.00354" lon="1.17486">
        <ele>333.23</ele>
        <time>2018-10-21T06:34:32Z</time>
      </trkpt>
      <trkpt lat="46.00352" lon="1.17487">
        <ele>333.23</ele>
        <time>2018-10-21T06:34:34Z</time>
      </trkpt>
      <trkpt lat="46.00351" lon="1.17489">
        <ele>333.23</ele>
        <time>2018-10-21T06:34:53Z</time>
      </trkpt>
      <trkpt lat="46.00351" lon="1.17489">
        <ele>333.23</ele>
        <time>2018-10-21T06:35:25Z</time>
      </trkpt>
      <trkpt lat="46.00361" lon="1.17484">
        <ele>333.71</ele>
        <time>2018-10-21T06:39:43Z</time>
      </trkpt>
      <trkpt lat="46.00379" lon="1.17492">
        <ele>333.71</ele>
        <time>2018-10-21T06:39:53Z</time>
      </trkpt>
      <trkpt lat="46.00384" lon="1.17493">
        <ele>333.71</ele>
        <time>2018-10-21T06:39:56Z</time>
      </trkpt>
      <trkpt lat="46.00385" lon="1.17493">
        <ele>333.71</ele>
        <time>2018-10-21T06:39:57Z</time>
      </trkpt>
      <trkpt lat="46.0039" lon="1.17494">
        <ele>334.2</ele>
        <time>2018-10-21T06:40:01Z</time>
      </trkpt>
      <trkpt lat="46.00392" lon="1.17502">
        <ele>334.2</ele>
        <time>2018-10-21T06:40:05Z</time>
      </trkpt>
      <trkpt lat="46.00392" lon="1.17505">
        <ele>334.2</ele>
        <time>2018-10-21T06:40:06Z</time>
      </trkpt>
      <trkpt lat="46.00391" lon="1.17509">
        <ele>334.2</ele>
        <time>2018-10-21T06:40:07Z</time>
      </trkpt>
      <trkpt lat="46.00391" lon="1.17513">
        <ele>334.2</ele>
        <time>2018-10-21T06:40:08Z</time>
      </trkpt>
      <trkpt lat="46.0039" lon="1.17518">
        <ele>334.2</ele>
        <time>2018-10-21T06:40:09Z</time>
      </trkpt>
      <trkpt lat="46.00389" lon="1.17522">
        <ele>334.68</ele>
        <time>2018-10-21T06:40:10Z</time>
      </trkpt>
      <trkpt lat="46.00384" lon="1.17553">
        <ele>335.16</ele>
        <time>2018-10-21T06:40:22Z</time>
      </trkpt>
      <trkpt lat="46.00384" lon="1.17553">
        <ele>335.16</ele>
        <time>2018-10-21T06:40:23Z</time>
      </trkpt>
      <trkpt lat="46.00382" lon="1.17563">
        <ele>335.64</ele>
        <time>2018-10-21T06:40:45Z</time>
      </trkpt>
      <trkpt lat="46.00373" lon="1.17621">
        <ele>335.64</ele>
        <time>2018-10-21T06:40:57Z</time>
      </trkpt>
      <trkpt lat="46.00366" lon="1.17678">
        <ele>335.64</ele>
        <time>2018-10-21T06:41:07Z</time>
      </trkpt>
      <trkpt lat="46.00359" lon="1.17708">
        <ele>335.16</ele>
        <time>2018-10-21T06:41:11Z</time>
      </trkpt>
      <trkpt lat="46.00355" lon="1.17737">
        <ele>334.68</ele>
        <time>2018-10-21T06:41:15Z</time>
      </trkpt>
      <trkpt lat="46.0036" lon="1.17801">
        <ele>334.2</ele>
        <time>2018-10-21T06:41:26Z</time>
      </trkpt>
      <trkpt lat="46.00362" lon="1.17806">
        <ele>334.2</ele>
        <time>2018-10-21T06:41:27Z</time>
      </trkpt>
      <trkpt lat="46.00364" lon="1.17811">
        <ele>334.2</ele>
        <time>2018-10-21T06:41:28Z</time>
      </trkpt>
      <trkpt lat="46.00367" lon="1.17816">
        <ele>334.2</ele>
        <time>2018-10-21T06:41:29Z</time>
      </trkpt>
      <trkpt lat="46.0037" lon="1.17821">
        <ele>334.2</ele>
        <time>2018-10-21T06:41:30Z</time>
      </trkpt>
      <trkpt lat="46.00373" lon="1.17825">
        <ele>334.2</ele>
        <time>2018-10-21T06:41:31Z</time>
      </trkpt>
      <trkpt lat="46.00377" lon="1.17829">
        <ele>334.2</ele>
        <time>2018-10-21T06:41:32Z</time>
      </trkpt>
      <trkpt lat="46.00381" lon="1.17833">
        <ele>334.2</ele>
        <time>2018-10-21T06:41:33Z</time>
      </trkpt>
      <trkpt lat="46.00384" lon="1.17837">
        <ele>334.2</ele>
        <time>2018-10-21T06:41:34Z</time>
      </trkpt>
      <trkpt lat="46.00387" lon="1.17841">
        <ele>334.2</ele>
        <time>2018-10-21T06:41:35Z</time>
      </trkpt>
      <trkpt lat="46.00389" lon="1.17846">
        <ele>334.2</ele>
        <time>2018-10-21T06:41:36Z</time>
      </trkpt>
      <trkpt lat="46.0039" lon="1.17851">
        <ele>334.2</ele>
        <time>2018-10-21T06:41:37Z</time>
      </trkpt>
      <trkpt lat="46.00391" lon="1.17856">
        <ele>334.2</ele>
        <time>2018-10-21T06:41:38Z</time>
      </trkpt>
      <trkpt lat="46.00391" lon="1.17862">
        <ele>334.2</ele>
        <time>2018-10-21T06:41:39Z</time>
      </trkpt>
      <trkpt lat="46.0039" lon="1.17972">
        <ele>334.2</ele>
        <time>2018-10-21T06:41:57Z</time>
      </trkpt>
      <trkpt lat="46.0039" lon="1.18001">
        <ele>334.2</ele>
        <time>2018-10-21T06:42:02Z</time>
      </trkpt>
      <trkpt lat="46.00389" lon="1.18012">
        <ele>334.2</ele>
        <time>2018-10-21T06:42:04Z</time>
      </trkpt>
      <trkpt lat="46.00391" lon="1.18125">
        <ele>335.64</ele>
        <time>2018-10-21T06:42:24Z</time>
      </trkpt>
      <trkpt lat="46.00399" lon="1.18192">
        <ele>337.56</ele>
        <time>2018-10-21T06:42:38Z</time>
      </trkpt>
      <trkpt lat="46.00407" lon="1.18233">
        <ele>339.96</ele>
        <time>2018-10-21T06:42:51Z</time>
      </trkpt>
      <trkpt lat="46.00401" lon="1.18282">
        <ele>342.37</ele>
        <time>2018-10-21T06:43:07Z</time>
      </trkpt>
      <trkpt lat="46.00398" lon="1.1831">
        <ele>342.85</ele>
        <time>2018-10-21T06:43:19Z</time>
      </trkpt>
      <trkpt lat="46.00398" lon="1.18314">
        <ele>343.33</ele>
        <time>2018-10-21T06:43:21Z</time>
      </trkpt>
      <trkpt lat="46.00398" lon="1.18316">
        <ele>343.33</ele>
        <time>2018-10-21T06:43:22Z</time>
      </trkpt>
      <trkpt lat="46.00399" lon="1.18318">
        <ele>343.33</ele>
        <time>2018-10-21T06:43:23Z</time>
      </trkpt>
      <trkpt lat="46.00399" lon="1.1832">
        <ele>343.81</ele>
        <time>2018-10-21T06:43:24Z</time>
      </trkpt>
      <trkpt lat="46.00399" lon="1.18323">
        <ele>343.81</ele>
        <time>2018-10-21T06:43:25Z</time>
      </trkpt>
      <trkpt lat="46.00399" lon="1.18326">
        <ele>343.81</ele>
        <time>2018-10-21T06:43:26Z</time>
      </trkpt>
      <trkpt lat="46.00398" lon="1.18328">
        <ele>343.81</ele>
        <time>2018-10-21T06:43:27Z</time>
      </trkpt>
      <trkpt lat="46.00397" lon="1.1833">
        <ele>343.81</ele>
        <time>2018-10-21T06:43:28Z</time>
      </trkpt>
      <trkpt lat="46.00396" lon="1.18332">
        <ele>344.29</ele>
        <time>2018-10-21T06:43:29Z</time>
      </trkpt>
      <trkpt lat="46.0038" lon="1.18353">
        <ele>345.73</ele>
        <time>2018-10-21T06:43:42Z</time>
      </trkpt>
      <trkpt lat="46.00379" lon="1.18356">
        <ele>346.21</ele>
        <time>2018-10-21T06:43:44Z</time>
      </trkpt>
      <trkpt lat="46.00375" lon="1.1836">
        <ele>347.17</ele>
        <time>2018-10-21T06:43:53Z</time>
      </trkpt>
      <trkpt lat="46.00365" lon="1.18417">
        <ele>348.62</ele>
        <time>2018-10-21T06:45:15Z</time>
      </trkpt>
      <trkpt lat="46.00365" lon="1.18419">
        <ele>348.62</ele>
        <time>2018-10-21T06:45:16Z</time>
      </trkpt>
      <trkpt lat="46.00368" lon="1.18423">
        <ele>348.13</ele>
        <time>2018-10-21T06:45:20Z</time>
      </trkpt>
      <trkpt lat="46.00391" lon="1.18409">
        <ele>344.77</ele>
        <time>2018-10-21T06:45:31Z</time>
      </trkpt>
      <trkpt lat="46.00392" lon="1.18409">
        <ele>343.81</ele>
        <time>2018-10-21T06:45:32Z</time>
      </trkpt>
      <trkpt lat="46.00398" lon="1.18425">
        <ele>341.41</ele>
        <time>2018-10-21T06:45:40Z</time>
      </trkpt>
      <trkpt lat="46.00398" lon="1.18429">
        <ele>341.41</ele>
        <time>2018-10-21T06:45:42Z</time>
      </trkpt>
      <trkpt lat="46.00421" lon="1.18459">
        <ele>337.56</ele>
        <time>2018-10-21T06:45:52Z</time>
      </trkpt>
      <trkpt lat="46.00423" lon="1.18465">
        <ele>337.08</ele>
        <time>2018-10-21T06:45:54Z</time>
      </trkpt>
      <trkpt lat="46.00432" lon="1.1847">
        <ele>336.12</ele>
        <time>2018-10-21T06:45:58Z</time>
      </trkpt>
      <trkpt lat="46.00453" lon="1.18477">
        <ele>335.64</ele>
        <time>2018-10-21T06:46:07Z</time>
      </trkpt>
      <trkpt lat="46.00459" lon="1.1847">
        <ele>335.64</ele>
        <time>2018-10-21T06:46:10Z</time>
      </trkpt>
      <trkpt lat="46.00464" lon="1.18443">
        <ele>335.64</ele>
        <time>2018-10-21T06:46:15Z</time>
      </trkpt>
      <trkpt lat="46.00486" lon="1.18408">
        <ele>333.23</ele>
        <time>2018-10-21T06:46:26Z</time>
      </trkpt>
      <trkpt lat="46.00512" lon="1.18396">
        <ele>332.75</ele>
        <time>2018-10-21T06:46:37Z</time>
      </trkpt>
      <trkpt lat="46.00536" lon="1.18367">
        <ele>331.79</ele>
        <time>2018-10-21T06:46:47Z</time>
      </trkpt>
      <trkpt lat="46.00562" lon="1.18358">
        <ele>329.39</ele>
        <time>2018-10-21T06:46:59Z</time>
      </trkpt>
      <trkpt lat="46.00574" lon="1.18359">
        <ele>329.39</ele>
        <time>2018-10-21T06:47:04Z</time>
      </trkpt>
      <trkpt lat="46.006" lon="1.18363">
        <ele>329.39</ele>
        <time>2018-10-21T06:47:15Z</time>
      </trkpt>
      <trkpt lat="46.00608" lon="1.18362">
        <ele>329.39</ele>
        <time>2018-10-21T06:47:18Z</time>
      </trkpt>
      <trkpt lat="46.00617" lon="1.18366">
        <ele>329.39</ele>
        <time>2018-10-21T06:47:24Z</time>
      </trkpt>
      <trkpt lat="46.00632" lon="1.18355">
        <ele>329.39</ele>
        <time>2018-10-21T06:47:33Z</time>
      </trkpt>
      <trkpt lat="46.00644" lon="1.18354">
        <ele>329.39</ele>
        <time>2018-10-21T06:47:38Z</time>
      </trkpt>
      <trkpt lat="46.00673" lon="1.18372">
        <ele>328.91</ele>
        <time>2018-10-21T06:47:50Z</time>
      </trkpt>
      <trkpt lat="46.00676" lon="1.18377">
        <ele>328.91</ele>
        <time>2018-10-21T06:47:53Z</time>
      </trkpt>
      <trkpt lat="46.00678" lon="1.18382">
        <ele>329.39</ele>
        <time>2018-10-21T06:47:55Z</time>
      </trkpt>
      <trkpt lat="46.00674" lon="1.18394">
        <ele>329.39</ele>
        <time>2018-10-21T06:48:00Z</time>
      </trkpt>
      <trkpt lat="46.00675" lon="1.18411">
        <ele>329.87</ele>
        <time>2018-10-21T06:48:07Z</time>
      </trkpt>
      <trkpt lat="46.00694" lon="1.18444">
        <ele>332.75</ele>
        <time>2018-10-21T06:48:26Z</time>
      </trkpt>
      <trkpt lat="46.007" lon="1.18452">
        <ele>333.23</ele>
        <time>2018-10-21T06:48:28Z</time>
      </trkpt>
      <trkpt lat="46.00708" lon="1.18473">
        <ele>333.71</ele>
        <time>2018-10-21T06:48:38Z</time>
      </trkpt>
      <trkpt lat="46.00715" lon="1.18476">
        <ele>334.68</ele>
        <time>2018-10-21T06:48:43Z</time>
      </trkpt>
      <trkpt lat="46.00717" lon="1.18476">
        <ele>334.68</ele>
        <time>2018-10-21T06:48:44Z</time>
      </trkpt>
      <trkpt lat="46.00717" lon="1.18465">
        <ele>335.16</ele>
        <time>2018-10-21T06:48:48Z</time>
      </trkpt>
      <trkpt lat="46.00719" lon="1.18463">
        <ele>335.16</ele>
        <time>2018-10-21T06:48:50Z</time>
      </trkpt>
      <trkpt lat="46.0073" lon="1.18457">
        <ele>334.68</ele>
        <time>2018-10-21T06:48:55Z</time>
      </trkpt>
      <trkpt lat="46.00738" lon="1.18451">
        <ele>334.68</ele>
        <time>2018-10-21T06:48:58Z</time>
      </trkpt>
      <trkpt lat="46.00741" lon="1.18439">
        <ele>334.2</ele>
        <time>2018-10-21T06:49:01Z</time>
      </trkpt>
      <trkpt lat="46.00746" lon="1.18417">
        <ele>334.2</ele>
        <time>2018-10-21T06:49:07Z</time>
      </trkpt>
      <trkpt lat="46.00755" lon="1.18405">
        <ele>332.75</ele>
        <time>2018-10-21T06:49:19Z</time>
      </trkpt>
      <trkpt lat="46.00757" lon="1.18407">
        <ele>331.79</ele>
        <time>2018-10-21T06:49:25Z</time>
      </trkpt>
      <trkpt lat="46.00769" lon="1.1839">
        <ele>331.31</ele>
        <time>2018-10-21T06:49:39Z</time>
      </trkpt>
      <trkpt lat="46.00773" lon="1.18382">
        <ele>331.31</ele>
        <time>2018-10-21T06:49:44Z</time>
      </trkpt>
      <trkpt lat="46.00802" lon="1.18364">
        <ele>329.39</ele>
        <time>2018-10-21T06:49:55Z</time>
      </trkpt>
      <trkpt lat="46.00826" lon="1.18342">
        <ele>328.91</ele>
        <time>2018-10-21T06:50:02Z</time>
      </trkpt>
      <trkpt lat="46.00863" lon="1.18319">
        <ele>326.99</ele>
        <time>2018-10-21T06:50:10Z</time>
      </trkpt>
      <trkpt lat="46.00908" lon="1.18306">
        <ele>325.54</ele>
        <time>2018-10-21T06:50:20Z</time>
      </trkpt>
      <trkpt lat="46.00926" lon="1.18306">
        <ele>325.54</ele>
        <time>2018-10-21T06:50:25Z</time>
      </trkpt>
      <trkpt lat="46.00954" lon="1.18325">
        <ele>327.47</ele>
        <time>2018-10-21T06:50:34Z</time>
      </trkpt>
      <trkpt lat="46.00987" lon="1.18326">
        <ele>328.43</ele>
        <time>2018-10-21T06:50:44Z</time>
      </trkpt>
      <trkpt lat="46.01025" lon="1.18319">
        <ele>329.87</ele>
        <time>2018-10-21T06:50:55Z</time>
      </trkpt>
      <trkpt lat="46.01068" lon="1.18322">
        <ele>329.39</ele>
        <time>2018-10-21T06:51:06Z</time>
      </trkpt>
      <trkpt lat="46.01096" lon="1.18353">
        <ele>329.39</ele>
        <time>2018-10-21T06:51:16Z</time>
      </trkpt>
      <trkpt lat="46.01107" lon="1.18365">
        <ele>331.31</ele>
        <time>2018-10-21T06:51:28Z</time>
      </trkpt>
      <trkpt lat="46.01111" lon="1.18375">
        <ele>331.79</ele>
        <time>2018-10-21T06:51:35Z</time>
      </trkpt>
      <trkpt lat="46.01147" lon="1.18439">
        <ele>339</ele>
        <time>2018-10-21T06:52:30Z</time>
      </trkpt>
      <trkpt lat="46.01152" lon="1.18448">
        <ele>339.96</ele>
        <time>2018-10-21T06:52:34Z</time>
      </trkpt>
      <trkpt lat="46.01163" lon="1.18465">
        <ele>341.41</ele>
        <time>2018-10-21T06:52:44Z</time>
      </trkpt>
      <trkpt lat="46.01193" lon="1.18472">
        <ele>341.89</ele>
        <time>2018-10-21T06:52:52Z</time>
      </trkpt>
      <trkpt lat="46.01214" lon="1.1848">
        <ele>341.41</ele>
        <time>2018-10-21T06:52:56Z</time>
      </trkpt>
      <trkpt lat="46.01253" lon="1.18487">
        <ele>337.56</ele>
        <time>2018-10-21T06:53:02Z</time>
      </trkpt>
      <trkpt lat="46.01286" lon="1.18498">
        <ele>334.2</ele>
        <time>2018-10-21T06:53:07Z</time>
      </trkpt>
      <trkpt lat="46.01306" lon="1.185">
        <ele>331.79</ele>
        <time>2018-10-21T06:53:10Z</time>
      </trkpt>
      <trkpt lat="46.01334" lon="1.18505">
        <ele>329.39</ele>
        <time>2018-10-21T06:53:14Z</time>
      </trkpt>
      <trkpt lat="46.0137" lon="1.18508">
        <ele>325.06</ele>
        <time>2018-10-21T06:53:20Z</time>
      </trkpt>
      <trkpt lat="46.0138" lon="1.18512">
        <ele>322.66</ele>
        <time>2018-10-21T06:53:23Z</time>
      </trkpt>
      <trkpt lat="46.01381" lon="1.18514">
        <ele>321.7</ele>
        <time>2018-10-21T06:53:24Z</time>
      </trkpt>
      <trkpt lat="46.01393" lon="1.18542">
        <ele>319.3</ele>
        <time>2018-10-21T06:53:35Z</time>
      </trkpt>
      <trkpt lat="46.01395" lon="1.18543">
        <ele>319.78</ele>
        <time>2018-10-21T06:53:36Z</time>
      </trkpt>
      <trkpt lat="46.01397" lon="1.18543">
        <ele>319.78</ele>
        <time>2018-10-21T06:53:37Z</time>
      </trkpt>
      <trkpt lat="46.01414" lon="1.18561">
        <ele>320.74</ele>
        <time>2018-10-21T06:53:44Z</time>
      </trkpt>
      <trkpt lat="46.01416" lon="1.18564">
        <ele>320.74</ele>
        <time>2018-10-21T06:53:45Z</time>
      </trkpt>
      <trkpt lat="46.01418" lon="1.18566">
        <ele>320.74</ele>
        <time>2018-10-21T06:53:46Z</time>
      </trkpt>
      <trkpt lat="46.0142" lon="1.18567">
        <ele>321.22</ele>
        <time>2018-10-21T06:53:47Z</time>
      </trkpt>
      <trkpt lat="46.01424" lon="1.18569">
        <ele>321.22</ele>
        <time>2018-10-21T06:53:48Z</time>
      </trkpt>
      <trkpt lat="46.01427" lon="1.18569">
        <ele>321.22</ele>
        <time>2018-10-21T06:53:49Z</time>
      </trkpt>
      <trkpt lat="46.01457" lon="1.18591">
        <ele>321.22</ele>
        <time>2018-10-21T06:53:59Z</time>
      </trkpt>
      <trkpt lat="46.0146" lon="1.18593">
        <ele>321.22</ele>
        <time>2018-10-21T06:54:00Z</time>
      </trkpt>
      <trkpt lat="46.01462" lon="1.18595">
        <ele>321.22</ele>
        <time>2018-10-21T06:54:01Z</time>
      </trkpt>
      <trkpt lat="46.01464" lon="1.18597">
        <ele>321.22</ele>
        <time>2018-10-21T06:54:02Z</time>
      </trkpt>
      <trkpt lat="46.01467" lon="1.18598">
        <ele>321.22</ele>
        <time>2018-10-21T06:54:03Z</time>
      </trkpt>
      <trkpt lat="46.0147" lon="1.18598">
        <ele>321.22</ele>
        <time>2018-10-21T06:54:04Z</time>
      </trkpt>
      <trkpt lat="46.01473" lon="1.18597">
        <ele>321.22</ele>
        <time>2018-10-21T06:54:05Z</time>
      </trkpt>
      <trkpt lat="46.01475" lon="1.18594">
        <ele>321.22</ele>
        <time>2018-10-21T06:54:06Z</time>
      </trkpt>
      <trkpt lat="46.01481" lon="1.18592">
        <ele>321.7</ele>
        <time>2018-10-21T06:54:09Z</time>
      </trkpt>
      <trkpt lat="46.01511" lon="1.18615">
        <ele>322.18</ele>
        <time>2018-10-21T06:54:19Z</time>
      </trkpt>
      <trkpt lat="46.01513" lon="1.18618">
        <ele>322.18</ele>
        <time>2018-10-21T06:54:20Z</time>
      </trkpt>
      <trkpt lat="46.01514" lon="1.18622">
        <ele>322.18</ele>
        <time>2018-10-21T06:54:21Z</time>
      </trkpt>
      <trkpt lat="46.01516" lon="1.18628">
        <ele>322.18</ele>
        <time>2018-10-21T06:54:23Z</time>
      </trkpt>
      <trkpt lat="46.01533" lon="1.18648">
        <ele>324.58</ele>
        <time>2018-10-21T06:54:33Z</time>
      </trkpt>
      <trkpt lat="46.01547" lon="1.18645">
        <ele>325.54</ele>
        <time>2018-10-21T06:54:38Z</time>
      </trkpt>
      <trkpt lat="46.01563" lon="1.18637">
        <ele>325.54</ele>
        <time>2018-10-21T06:54:43Z</time>
      </trkpt>
      <trkpt lat="46.01567" lon="1.18633">
        <ele>325.54</ele>
        <time>2018-10-21T06:54:44Z</time>
      </trkpt>
      <trkpt lat="46.0157" lon="1.18627">
        <ele>325.54</ele>
        <time>2018-10-21T06:54:45Z</time>
      </trkpt>
      <trkpt lat="46.01572" lon="1.18621">
        <ele>325.54</ele>
        <time>2018-10-21T06:54:46Z</time>
      </trkpt>
      <trkpt lat="46.01574" lon="1.18613">
        <ele>325.06</ele>
        <time>2018-10-21T06:54:47Z</time>
      </trkpt>
      <trkpt lat="46.01584" lon="1.18573">
        <ele>324.1</ele>
        <time>2018-10-21T06:54:51Z</time>
      </trkpt>
      <trkpt lat="46.01589" lon="1.18563">
        <ele>324.1</ele>
        <time>2018-10-21T06:54:52Z</time>
      </trkpt>
      <trkpt lat="46.01595" lon="1.18554">
        <ele>323.62</ele>
        <time>2018-10-21T06:54:53Z</time>
      </trkpt>
      <trkpt lat="46.01604" lon="1.18547">
        <ele>323.14</ele>
        <time>2018-10-21T06:54:54Z</time>
      </trkpt>
      <trkpt lat="46.01614" lon="1.18542">
        <ele>322.66</ele>
        <time>2018-10-21T06:54:55Z</time>
      </trkpt>
      <trkpt lat="46.01624" lon="1.18537">
        <ele>322.66</ele>
        <time>2018-10-21T06:54:56Z</time>
      </trkpt>
      <trkpt lat="46.01651" lon="1.1852">
        <ele>318.81</ele>
        <time>2018-10-21T06:54:59Z</time>
      </trkpt>
      <trkpt lat="46.01657" lon="1.18511">
        <ele>317.37</ele>
        <time>2018-10-21T06:55:00Z</time>
      </trkpt>
      <trkpt lat="46.01661" lon="1.18502">
        <ele>315.93</ele>
        <time>2018-10-21T06:55:01Z</time>
      </trkpt>
      <trkpt lat="46.01664" lon="1.18492">
        <ele>314.49</ele>
        <time>2018-10-21T06:55:02Z</time>
      </trkpt>
      <trkpt lat="46.01667" lon="1.18481">
        <ele>313.53</ele>
        <time>2018-10-21T06:55:03Z</time>
      </trkpt>
      <trkpt lat="46.01668" lon="1.18471">
        <ele>312.57</ele>
        <time>2018-10-21T06:55:04Z</time>
      </trkpt>
      <trkpt lat="46.01676" lon="1.18404">
        <ele>311.6</ele>
        <time>2018-10-21T06:55:11Z</time>
      </trkpt>
      <trkpt lat="46.01682" lon="1.18375">
        <ele>310.64</ele>
        <time>2018-10-21T06:55:14Z</time>
      </trkpt>
      <trkpt lat="46.0169" lon="1.18351">
        <ele>310.64</ele>
        <time>2018-10-21T06:55:17Z</time>
      </trkpt>
      <trkpt lat="46.01694" lon="1.18344">
        <ele>310.64</ele>
        <time>2018-10-21T06:55:18Z</time>
      </trkpt>
      <trkpt lat="46.01698" lon="1.18339">
        <ele>310.64</ele>
        <time>2018-10-21T06:55:19Z</time>
      </trkpt>
      <trkpt lat="46.01703" lon="1.18335">
        <ele>310.64</ele>
        <time>2018-10-21T06:55:20Z</time>
      </trkpt>
      <trkpt lat="46.01707" lon="1.18331">
        <ele>310.64</ele>
        <time>2018-10-21T06:55:21Z</time>
      </trkpt>
      <trkpt lat="46.01766" lon="1.18288">
        <ele>310.64</ele>
        <time>2018-10-21T06:55:33Z</time>
      </trkpt>
      <trkpt lat="46.01772" lon="1.18287">
        <ele>310.64</ele>
        <time>2018-10-21T06:55:34Z</time>
      </trkpt>
      <trkpt lat="46.01781" lon="1.18287">
        <ele>310.64</ele>
        <time>2018-10-21T06:55:36Z</time>
      </trkpt>
      <trkpt lat="46.01786" lon="1.18285">
        <ele>310.16</ele>
        <time>2018-10-21T06:55:37Z</time>
      </trkpt>
      <trkpt lat="46.01791" lon="1.18283">
        <ele>310.16</ele>
        <time>2018-10-21T06:55:38Z</time>
      </trkpt>
      <trkpt lat="46.01796" lon="1.18282">
        <ele>310.16</ele>
        <time>2018-10-21T06:55:39Z</time>
      </trkpt>
      <trkpt lat="46.01801" lon="1.18282">
        <ele>309.68</ele>
        <time>2018-10-21T06:55:40Z</time>
      </trkpt>
      <trkpt lat="46.01807" lon="1.18284">
        <ele>309.68</ele>
        <time>2018-10-21T06:55:41Z</time>
      </trkpt>
      <trkpt lat="46.01812" lon="1.18286">
        <ele>309.2</ele>
        <time>2018-10-21T06:55:42Z</time>
      </trkpt>
      <trkpt lat="46.01816" lon="1.18288">
        <ele>309.2</ele>
        <time>2018-10-21T06:55:43Z</time>
      </trkpt>
      <trkpt lat="46.01819" lon="1.1829">
        <ele>309.2</ele>
        <time>2018-10-21T06:55:44Z</time>
      </trkpt>
      <trkpt lat="46.01829" lon="1.18287">
        <ele>308.24</ele>
        <time>2018-10-21T06:55:52Z</time>
      </trkpt>
      <trkpt lat="46.0183" lon="1.18284">
        <ele>307.76</ele>
        <time>2018-10-21T06:55:53Z</time>
      </trkpt>
      <trkpt lat="46.0183" lon="1.1828">
        <ele>307.76</ele>
        <time>2018-10-21T06:55:54Z</time>
      </trkpt>
      <trkpt lat="46.01832" lon="1.18275">
        <ele>307.76</ele>
        <time>2018-10-21T06:55:55Z</time>
      </trkpt>
      <trkpt lat="46.01834" lon="1.18272">
        <ele>307.76</ele>
        <time>2018-10-21T06:55:56Z</time>
      </trkpt>
      <trkpt lat="46.01837" lon="1.18271">
        <ele>307.76</ele>
        <time>2018-10-21T06:55:57Z</time>
      </trkpt>
      <trkpt lat="46.01841" lon="1.1827">
        <ele>307.76</ele>
        <time>2018-10-21T06:55:58Z</time>
      </trkpt>
      <trkpt lat="46.01845" lon="1.1827">
        <ele>307.76</ele>
        <time>2018-10-21T06:55:59Z</time>
      </trkpt>
      <trkpt lat="46.0185" lon="1.1827">
        <ele>307.76</ele>
        <time>2018-10-21T06:56:00Z</time>
      </trkpt>
      <trkpt lat="46.01855" lon="1.18271">
        <ele>307.28</ele>
        <time>2018-10-21T06:56:01Z</time>
      </trkpt>
      <trkpt lat="46.0186" lon="1.1827">
        <ele>307.28</ele>
        <time>2018-10-21T06:56:02Z</time>
      </trkpt>
      <trkpt lat="46.01866" lon="1.1827">
        <ele>306.8</ele>
        <time>2018-10-21T06:56:03Z</time>
      </trkpt>
      <trkpt lat="46.01873" lon="1.18272">
        <ele>305.84</ele>
        <time>2018-10-21T06:56:04Z</time>
      </trkpt>
      <trkpt lat="46.0188" lon="1.18273">
        <ele>305.36</ele>
        <time>2018-10-21T06:56:05Z</time>
      </trkpt>
      <trkpt lat="46.019" lon="1.18277">
        <ele>303.43</ele>
        <time>2018-10-21T06:56:08Z</time>
      </trkpt>
      <trkpt lat="46.01932" lon="1.1828">
        <ele>301.03</ele>
        <time>2018-10-21T06:56:12Z</time>
      </trkpt>
      <trkpt lat="46.01962" lon="1.18286">
        <ele>297.18</ele>
        <time>2018-10-21T06:56:16Z</time>
      </trkpt>
      <trkpt lat="46.01982" lon="1.18294">
        <ele>294.3</ele>
        <time>2018-10-21T06:56:22Z</time>
      </trkpt>
      <trkpt lat="46.01983" lon="1.18297">
        <ele>293.82</ele>
        <time>2018-10-21T06:56:23Z</time>
      </trkpt>
      <trkpt lat="46.01984" lon="1.18301">
        <ele>293.82</ele>
        <time>2018-10-21T06:56:24Z</time>
      </trkpt>
      <trkpt lat="46.01985" lon="1.18304">
        <ele>293.34</ele>
        <time>2018-10-21T06:56:25Z</time>
      </trkpt>
      <trkpt lat="46.01986" lon="1.18308">
        <ele>293.34</ele>
        <time>2018-10-21T06:56:26Z</time>
      </trkpt>
      <trkpt lat="46.02001" lon="1.18322">
        <ele>290.46</ele>
        <time>2018-10-21T06:56:34Z</time>
      </trkpt>
      <trkpt lat="46.02003" lon="1.18323">
        <ele>289.01</ele>
        <time>2018-10-21T06:56:36Z</time>
      </trkpt>
      <trkpt lat="46.02005" lon="1.18321">
        <ele>288.05</ele>
        <time>2018-10-21T06:56:37Z</time>
      </trkpt>
      <trkpt lat="46.02006" lon="1.18317">
        <ele>288.05</ele>
        <time>2018-10-21T06:56:38Z</time>
      </trkpt>
      <trkpt lat="46.02007" lon="1.18313">
        <ele>287.57</ele>
        <time>2018-10-21T06:56:39Z</time>
      </trkpt>
      <trkpt lat="46.0201" lon="1.1831">
        <ele>287.09</ele>
        <time>2018-10-21T06:56:40Z</time>
      </trkpt>
      <trkpt lat="46.02013" lon="1.18306">
        <ele>287.09</ele>
        <time>2018-10-21T06:56:41Z</time>
      </trkpt>
      <trkpt lat="46.02015" lon="1.18302">
        <ele>286.61</ele>
        <time>2018-10-21T06:56:42Z</time>
      </trkpt>
      <trkpt lat="46.02045" lon="1.18267">
        <ele>283.73</ele>
        <time>2018-10-21T06:56:52Z</time>
      </trkpt>
      <trkpt lat="46.0206" lon="1.18263">
        <ele>279.88</ele>
        <time>2018-10-21T06:56:57Z</time>
      </trkpt>
      <trkpt lat="46.02067" lon="1.18258">
        <ele>278.44</ele>
        <time>2018-10-21T06:56:59Z</time>
      </trkpt>
      <trkpt lat="46.02072" lon="1.18255">
        <ele>277.96</ele>
        <time>2018-10-21T06:57:00Z</time>
      </trkpt>
      <trkpt lat="46.02077" lon="1.18253">
        <ele>277.48</ele>
        <time>2018-10-21T06:57:01Z</time>
      </trkpt>
      <trkpt lat="46.02081" lon="1.18252">
        <ele>277.48</ele>
        <time>2018-10-21T06:57:02Z</time>
      </trkpt>
      <trkpt lat="46.02085" lon="1.18252">
        <ele>277</ele>
        <time>2018-10-21T06:57:03Z</time>
      </trkpt>
      <trkpt lat="46.02088" lon="1.18251">
        <ele>277</ele>
        <time>2018-10-21T06:57:04Z</time>
      </trkpt>
      <trkpt lat="46.02091" lon="1.18253">
        <ele>276.52</ele>
        <time>2018-10-21T06:57:05Z</time>
      </trkpt>
      <trkpt lat="46.02104" lon="1.18257">
        <ele>275.07</ele>
        <time>2018-10-21T06:57:10Z</time>
      </trkpt>
      <trkpt lat="46.02107" lon="1.18255">
        <ele>275.07</ele>
        <time>2018-10-21T06:57:11Z</time>
      </trkpt>
      <trkpt lat="46.02109" lon="1.18252">
        <ele>275.07</ele>
        <time>2018-10-21T06:57:12Z</time>
      </trkpt>
      <trkpt lat="46.02146" lon="1.18248">
        <ele>274.59</ele>
        <time>2018-10-21T06:57:21Z</time>
      </trkpt>
      <trkpt lat="46.02176" lon="1.18255">
        <ele>272.67</ele>
        <time>2018-10-21T06:57:31Z</time>
      </trkpt>
      <trkpt lat="46.02192" lon="1.18259">
        <ele>272.67</ele>
        <time>2018-10-21T06:57:35Z</time>
      </trkpt>
      <trkpt lat="46.02196" lon="1.18261">
        <ele>272.67</ele>
        <time>2018-10-21T06:57:36Z</time>
      </trkpt>
      <trkpt lat="46.02224" lon="1.18283">
        <ele>272.67</ele>
        <time>2018-10-21T06:57:45Z</time>
      </trkpt>
      <trkpt lat="46.02226" lon="1.18292">
        <ele>272.19</ele>
        <time>2018-10-21T06:57:47Z</time>
      </trkpt>
      <trkpt lat="46.02227" lon="1.18299">
        <ele>272.19</ele>
        <time>2018-10-21T06:57:48Z</time>
      </trkpt>
      <trkpt lat="46.02227" lon="1.18303">
        <ele>272.19</ele>
        <time>2018-10-21T06:57:49Z</time>
      </trkpt>
      <trkpt lat="46.02226" lon="1.18308">
        <ele>272.19</ele>
        <time>2018-10-21T06:57:50Z</time>
      </trkpt>
      <trkpt lat="46.02226" lon="1.18314">
        <ele>272.19</ele>
        <time>2018-10-21T06:57:51Z</time>
      </trkpt>
      <trkpt lat="46.02225" lon="1.18319">
        <ele>271.71</ele>
        <time>2018-10-21T06:57:52Z</time>
      </trkpt>
      <trkpt lat="46.02225" lon="1.18324">
        <ele>271.23</ele>
        <time>2018-10-21T06:57:53Z</time>
      </trkpt>
      <trkpt lat="46.02223" lon="1.18371">
        <ele>271.23</ele>
        <time>2018-10-21T06:58:03Z</time>
      </trkpt>
      <trkpt lat="46.02219" lon="1.18425">
        <ele>271.71</ele>
        <time>2018-10-21T06:58:14Z</time>
      </trkpt>
      <trkpt lat="46.02212" lon="1.1847">
        <ele>272.67</ele>
        <time>2018-10-21T06:58:25Z</time>
      </trkpt>
      <trkpt lat="46.0221" lon="1.18477">
        <ele>272.67</ele>
        <time>2018-10-21T06:58:27Z</time>
      </trkpt>
      <trkpt lat="46.02208" lon="1.18482">
        <ele>273.15</ele>
        <time>2018-10-21T06:58:28Z</time>
      </trkpt>
      <trkpt lat="46.02205" lon="1.18486">
        <ele>273.15</ele>
        <time>2018-10-21T06:58:29Z</time>
      </trkpt>
      <trkpt lat="46.02202" lon="1.18492">
        <ele>273.15</ele>
        <time>2018-10-21T06:58:30Z</time>
      </trkpt>
      <trkpt lat="46.02201" lon="1.18497">
        <ele>273.15</ele>
        <time>2018-10-21T06:58:31Z</time>
      </trkpt>
      <trkpt lat="46.02198" lon="1.18502">
        <ele>273.15</ele>
        <time>2018-10-21T06:58:32Z</time>
      </trkpt>
      <trkpt lat="46.02196" lon="1.18508">
        <ele>273.15</ele>
        <time>2018-10-21T06:58:33Z</time>
      </trkpt>
      <trkpt lat="46.02192" lon="1.18514">
        <ele>273.15</ele>
        <time>2018-10-21T06:58:34Z</time>
      </trkpt>
      <trkpt lat="46.02188" lon="1.1852">
        <ele>273.15</ele>
        <time>2018-10-21T06:58:35Z</time>
      </trkpt>
      <trkpt lat="46.02179" lon="1.18535">
        <ele>273.15</ele>
        <time>2018-10-21T06:58:38Z</time>
      </trkpt>
      <trkpt lat="46.02176" lon="1.18539">
        <ele>273.15</ele>
        <time>2018-10-21T06:58:39Z</time>
      </trkpt>
      <trkpt lat="46.02153" lon="1.18573">
        <ele>274.59</ele>
        <time>2018-10-21T06:58:47Z</time>
      </trkpt>
      <trkpt lat="46.0214" lon="1.18622">
        <ele>277.48</ele>
        <time>2018-10-21T06:58:57Z</time>
      </trkpt>
      <trkpt lat="46.0213" lon="1.1867">
        <ele>278.92</ele>
        <time>2018-10-21T06:59:07Z</time>
      </trkpt>
      <trkpt lat="46.02117" lon="1.18725">
        <ele>280.36</ele>
        <time>2018-10-21T06:59:20Z</time>
      </trkpt>
      <trkpt lat="46.02111" lon="1.18774">
        <ele>281.8</ele>
        <time>2018-10-21T06:59:28Z</time>
      </trkpt>
      <trkpt lat="46.02109" lon="1.1878">
        <ele>281.8</ele>
        <time>2018-10-21T06:59:29Z</time>
      </trkpt>
      <trkpt lat="46.02107" lon="1.18786">
        <ele>281.8</ele>
        <time>2018-10-21T06:59:30Z</time>
      </trkpt>
      <trkpt lat="46.02104" lon="1.18791">
        <ele>282.28</ele>
        <time>2018-10-21T06:59:31Z</time>
      </trkpt>
      <trkpt lat="46.02101" lon="1.18797">
        <ele>282.28</ele>
        <time>2018-10-21T06:59:32Z</time>
      </trkpt>
      <trkpt lat="46.02097" lon="1.18801">
        <ele>282.28</ele>
        <time>2018-10-21T06:59:33Z</time>
      </trkpt>
      <trkpt lat="46.02093" lon="1.18806">
        <ele>282.28</ele>
        <time>2018-10-21T06:59:34Z</time>
      </trkpt>
      <trkpt lat="46.02052" lon="1.18841">
        <ele>283.25</ele>
        <time>2018-10-21T06:59:46Z</time>
      </trkpt>
      <trkpt lat="46.02023" lon="1.18869">
        <ele>286.61</ele>
        <time>2018-10-21T06:59:57Z</time>
      </trkpt>
      <trkpt lat="46.01994" lon="1.18894">
        <ele>289.49</ele>
        <time>2018-10-21T07:00:08Z</time>
      </trkpt>
      <trkpt lat="46.0197" lon="1.18943">
        <ele>292.86</ele>
        <time>2018-10-21T07:00:22Z</time>
      </trkpt>
      <trkpt lat="46.01957" lon="1.18992">
        <ele>295.74</ele>
        <time>2018-10-21T07:00:36Z</time>
      </trkpt>
      <trkpt lat="46.01946" lon="1.19039">
        <ele>298.15</ele>
        <time>2018-10-21T07:00:48Z</time>
      </trkpt>
      <trkpt lat="46.01936" lon="1.19085">
        <ele>301.03</ele>
        <time>2018-10-21T07:01:01Z</time>
      </trkpt>
      <trkpt lat="46.0193" lon="1.19111">
        <ele>303.43</ele>
        <time>2018-10-21T07:01:13Z</time>
      </trkpt>
      <trkpt lat="46.01928" lon="1.19105">
        <ele>304.39</ele>
        <time>2018-10-21T07:01:23Z</time>
      </trkpt>
      <trkpt lat="46.01929" lon="1.19092">
        <ele>304.39</ele>
        <time>2018-10-21T07:01:28Z</time>
      </trkpt>
      <trkpt lat="46.01929" lon="1.19089">
        <ele>304.39</ele>
        <time>2018-10-21T07:01:29Z</time>
      </trkpt>
      <trkpt lat="46.01928" lon="1.19085">
        <ele>304.39</ele>
        <time>2018-10-21T07:01:30Z</time>
      </trkpt>
      <trkpt lat="46.01924" lon="1.19071">
        <ele>304.88</ele>
        <time>2018-10-21T07:01:35Z</time>
      </trkpt>
      <trkpt lat="46.01921" lon="1.1907">
        <ele>304.88</ele>
        <time>2018-10-21T07:01:37Z</time>
      </trkpt>
      <trkpt lat="46.01919" lon="1.19073">
        <ele>305.36</ele>
        <time>2018-10-21T07:01:39Z</time>
      </trkpt>
      <trkpt lat="46.01919" lon="1.19076">
        <ele>305.36</ele>
        <time>2018-10-21T07:01:40Z</time>
      </trkpt>
      <trkpt lat="46.01918" lon="1.1908">
        <ele>305.84</ele>
        <time>2018-10-21T07:01:42Z</time>
      </trkpt>
      <trkpt lat="46.01907" lon="1.19106">
        <ele>308.72</ele>
        <time>2018-10-21T07:01:54Z</time>
      </trkpt>
      <trkpt lat="46.01906" lon="1.19109">
        <ele>309.2</ele>
        <time>2018-10-21T07:01:55Z</time>
      </trkpt>
      <trkpt lat="46.01887" lon="1.19161">
        <ele>310.16</ele>
        <time>2018-10-21T07:02:07Z</time>
      </trkpt>
      <trkpt lat="46.01867" lon="1.19195">
        <ele>310.16</ele>
        <time>2018-10-21T07:02:14Z</time>
      </trkpt>
      <trkpt lat="46.01864" lon="1.19201">
        <ele>310.16</ele>
        <time>2018-10-21T07:02:15Z</time>
      </trkpt>
      <trkpt lat="46.01861" lon="1.19208">
        <ele>310.16</ele>
        <time>2018-10-21T07:02:16Z</time>
      </trkpt>
      <trkpt lat="46.01856" lon="1.19221">
        <ele>310.16</ele>
        <time>2018-10-21T07:02:18Z</time>
      </trkpt>
      <trkpt lat="46.01852" lon="1.19227">
        <ele>310.16</ele>
        <time>2018-10-21T07:02:19Z</time>
      </trkpt>
      <trkpt lat="46.01849" lon="1.19233">
        <ele>310.16</ele>
        <time>2018-10-21T07:02:20Z</time>
      </trkpt>
      <trkpt lat="46.01844" lon="1.19246">
        <ele>309.68</ele>
        <time>2018-10-21T07:02:22Z</time>
      </trkpt>
      <trkpt lat="46.01836" lon="1.19255">
        <ele>309.2</ele>
        <time>2018-10-21T07:02:24Z</time>
      </trkpt>
      <trkpt lat="46.01833" lon="1.19259">
        <ele>309.2</ele>
        <time>2018-10-21T07:02:25Z</time>
      </trkpt>
      <trkpt lat="46.0183" lon="1.19264">
        <ele>309.2</ele>
        <time>2018-10-21T07:02:26Z</time>
      </trkpt>
      <trkpt lat="46.01826" lon="1.19269">
        <ele>309.2</ele>
        <time>2018-10-21T07:02:27Z</time>
      </trkpt>
      <trkpt lat="46.01823" lon="1.19271">
        <ele>309.2</ele>
        <time>2018-10-21T07:02:28Z</time>
      </trkpt>
      <trkpt lat="46.01819" lon="1.19273">
        <ele>309.2</ele>
        <time>2018-10-21T07:02:29Z</time>
      </trkpt>
      <trkpt lat="46.01816" lon="1.19276">
        <ele>309.2</ele>
        <time>2018-10-21T07:02:30Z</time>
      </trkpt>
      <trkpt lat="46.01813" lon="1.19278">
        <ele>309.2</ele>
        <time>2018-10-21T07:02:31Z</time>
      </trkpt>
      <trkpt lat="46.01809" lon="1.19279">
        <ele>309.2</ele>
        <time>2018-10-21T07:02:32Z</time>
      </trkpt>
      <trkpt lat="46.01806" lon="1.19281">
        <ele>309.2</ele>
        <time>2018-10-21T07:02:33Z</time>
      </trkpt>
      <trkpt lat="46.01801" lon="1.19282">
        <ele>309.2</ele>
        <time>2018-10-21T07:02:34Z</time>
      </trkpt>
      <trkpt lat="46.01797" lon="1.19284">
        <ele>309.2</ele>
        <time>2018-10-21T07:02:35Z</time>
      </trkpt>
      <trkpt lat="46.01794" lon="1.19286">
        <ele>309.2</ele>
        <time>2018-10-21T07:02:36Z</time>
      </trkpt>
      <trkpt lat="46.01767" lon="1.193">
        <ele>309.68</ele>
        <time>2018-10-21T07:02:45Z</time>
      </trkpt>
      <trkpt lat="46.01749" lon="1.19306">
        <ele>310.16</ele>
        <time>2018-10-21T07:02:51Z</time>
      </trkpt>
      <trkpt lat="46.01746" lon="1.19307">
        <ele>310.16</ele>
        <time>2018-10-21T07:02:52Z</time>
      </trkpt>
      <trkpt lat="46.01707" lon="1.19317">
        <ele>312.09</ele>
        <time>2018-10-21T07:03:03Z</time>
      </trkpt>
      <trkpt lat="46.01694" lon="1.19328">
        <ele>314.01</ele>
        <time>2018-10-21T07:03:09Z</time>
      </trkpt>
      <trkpt lat="46.01692" lon="1.1933">
        <ele>314.01</ele>
        <time>2018-10-21T07:03:10Z</time>
      </trkpt>
      <trkpt lat="46.0169" lon="1.19333">
        <ele>314.49</ele>
        <time>2018-10-21T07:03:11Z</time>
      </trkpt>
      <trkpt lat="46.01688" lon="1.19335">
        <ele>314.49</ele>
        <time>2018-10-21T07:03:12Z</time>
      </trkpt>
      <trkpt lat="46.01686" lon="1.19338">
        <ele>314.49</ele>
        <time>2018-10-21T07:03:13Z</time>
      </trkpt>
      <trkpt lat="46.01684" lon="1.1934">
        <ele>314.97</ele>
        <time>2018-10-21T07:03:14Z</time>
      </trkpt>
      <trkpt lat="46.01682" lon="1.19343">
        <ele>315.45</ele>
        <time>2018-10-21T07:03:15Z</time>
      </trkpt>
      <trkpt lat="46.0168" lon="1.19346">
        <ele>315.93</ele>
        <time>2018-10-21T07:03:16Z</time>
      </trkpt>
      <trkpt lat="46.01679" lon="1.19351">
        <ele>315.93</ele>
        <time>2018-10-21T07:03:17Z</time>
      </trkpt>
      <trkpt lat="46.01676" lon="1.19354">
        <ele>315.93</ele>
        <time>2018-10-21T07:03:18Z</time>
      </trkpt>
      <trkpt lat="46.01674" lon="1.19358">
        <ele>316.41</ele>
        <time>2018-10-21T07:03:19Z</time>
      </trkpt>
      <trkpt lat="46.01652" lon="1.19394">
        <ele>318.81</ele>
        <time>2018-10-21T07:03:33Z</time>
      </trkpt>
      <trkpt lat="46.0165" lon="1.19396">
        <ele>319.3</ele>
        <time>2018-10-21T07:03:34Z</time>
      </trkpt>
      <trkpt lat="46.01646" lon="1.19402">
        <ele>320.26</ele>
        <time>2018-10-21T07:03:40Z</time>
      </trkpt>
      <trkpt lat="46.01645" lon="1.19404">
        <ele>320.74</ele>
        <time>2018-10-21T07:03:41Z</time>
      </trkpt>
      <trkpt lat="46.01644" lon="1.19406">
        <ele>320.74</ele>
        <time>2018-10-21T07:03:42Z</time>
      </trkpt>
      <trkpt lat="46.01631" lon="1.19423">
        <ele>323.62</ele>
        <time>2018-10-21T07:03:54Z</time>
      </trkpt>
      <trkpt lat="46.01611" lon="1.19452">
        <ele>326.99</ele>
        <time>2018-10-21T07:04:10Z</time>
      </trkpt>
      <trkpt lat="46.01596" lon="1.19471">
        <ele>328.43</ele>
        <time>2018-10-21T07:04:23Z</time>
      </trkpt>
      <trkpt lat="46.01581" lon="1.19491">
        <ele>330.35</ele>
        <time>2018-10-21T07:04:35Z</time>
      </trkpt>
      <trkpt lat="46.0157" lon="1.19509">
        <ele>332.75</ele>
        <time>2018-10-21T07:04:47Z</time>
      </trkpt>
      <trkpt lat="46.01568" lon="1.19512">
        <ele>333.23</ele>
        <time>2018-10-21T07:04:49Z</time>
      </trkpt>
      <trkpt lat="46.01565" lon="1.19545">
        <ele>334.68</ele>
        <time>2018-10-21T07:05:01Z</time>
      </trkpt>
      <trkpt lat="46.01565" lon="1.19557">
        <ele>335.16</ele>
        <time>2018-10-21T07:05:05Z</time>
      </trkpt>
      <trkpt lat="46.01565" lon="1.1956">
        <ele>335.16</ele>
        <time>2018-10-21T07:05:06Z</time>
      </trkpt>
      <trkpt lat="46.01565" lon="1.19564">
        <ele>335.16</ele>
        <time>2018-10-21T07:05:07Z</time>
      </trkpt>
      <trkpt lat="46.01573" lon="1.19599">
        <ele>335.16</ele>
        <time>2018-10-21T07:05:15Z</time>
      </trkpt>
      <trkpt lat="46.01575" lon="1.196">
        <ele>335.16</ele>
        <time>2018-10-21T07:05:16Z</time>
      </trkpt>
      <trkpt lat="46.01578" lon="1.19602">
        <ele>335.16</ele>
        <time>2018-10-21T07:05:17Z</time>
      </trkpt>
      <trkpt lat="46.0158" lon="1.19604">
        <ele>334.68</ele>
        <time>2018-10-21T07:05:18Z</time>
      </trkpt>
      <trkpt lat="46.01582" lon="1.19605">
        <ele>334.68</ele>
        <time>2018-10-21T07:05:19Z</time>
      </trkpt>
      <trkpt lat="46.01584" lon="1.19606">
        <ele>334.68</ele>
        <time>2018-10-21T07:05:20Z</time>
      </trkpt>
      <trkpt lat="46.01587" lon="1.19608">
        <ele>334.2</ele>
        <time>2018-10-21T07:05:21Z</time>
      </trkpt>
      <trkpt lat="46.0159" lon="1.19609">
        <ele>334.2</ele>
        <time>2018-10-21T07:05:22Z</time>
      </trkpt>
      <trkpt lat="46.01613" lon="1.1962">
        <ele>332.75</ele>
        <time>2018-10-21T07:05:28Z</time>
      </trkpt>
      <trkpt lat="46.01631" lon="1.19636">
        <ele>329.39</ele>
        <time>2018-10-21T07:05:34Z</time>
      </trkpt>
      <trkpt lat="46.01648" lon="1.1965">
        <ele>326.02</ele>
        <time>2018-10-21T07:05:40Z</time>
      </trkpt>
      <trkpt lat="46.0167" lon="1.19674">
        <ele>323.14</ele>
        <time>2018-10-21T07:05:47Z</time>
      </trkpt>
      <trkpt lat="46.01672" lon="1.19678">
        <ele>322.66</ele>
        <time>2018-10-21T07:05:48Z</time>
      </trkpt>
      <trkpt lat="46.01674" lon="1.19684">
        <ele>321.7</ele>
        <time>2018-10-21T07:05:49Z</time>
      </trkpt>
      <trkpt lat="46.01675" lon="1.19689">
        <ele>321.22</ele>
        <time>2018-10-21T07:05:50Z</time>
      </trkpt>
      <trkpt lat="46.01675" lon="1.19697">
        <ele>320.26</ele>
        <time>2018-10-21T07:05:51Z</time>
      </trkpt>
      <trkpt lat="46.01676" lon="1.19704">
        <ele>319.78</ele>
        <time>2018-10-21T07:05:52Z</time>
      </trkpt>
      <trkpt lat="46.01679" lon="1.19725">
        <ele>316.41</ele>
        <time>2018-10-21T07:05:55Z</time>
      </trkpt>
      <trkpt lat="46.0168" lon="1.19734">
        <ele>315.93</ele>
        <time>2018-10-21T07:05:56Z</time>
      </trkpt>
      <trkpt lat="46.0168" lon="1.19743">
        <ele>314.97</ele>
        <time>2018-10-21T07:05:57Z</time>
      </trkpt>
      <trkpt lat="46.0168" lon="1.19751">
        <ele>314.49</ele>
        <time>2018-10-21T07:05:58Z</time>
      </trkpt>
      <trkpt lat="46.01679" lon="1.19774">
        <ele>313.05</ele>
        <time>2018-10-21T07:06:01Z</time>
      </trkpt>
      <trkpt lat="46.01681" lon="1.19828">
        <ele>309.68</ele>
        <time>2018-10-21T07:06:07Z</time>
      </trkpt>
      <trkpt lat="46.01687" lon="1.19857">
        <ele>307.76</ele>
        <time>2018-10-21T07:06:14Z</time>
      </trkpt>
      <trkpt lat="46.0169" lon="1.1986">
        <ele>307.28</ele>
        <time>2018-10-21T07:06:15Z</time>
      </trkpt>
      <trkpt lat="46.01691" lon="1.19863">
        <ele>307.28</ele>
        <time>2018-10-21T07:06:16Z</time>
      </trkpt>
      <trkpt lat="46.01693" lon="1.19865">
        <ele>307.28</ele>
        <time>2018-10-21T07:06:17Z</time>
      </trkpt>
      <trkpt lat="46.01695" lon="1.19868">
        <ele>306.8</ele>
        <time>2018-10-21T07:06:18Z</time>
      </trkpt>
      <trkpt lat="46.01704" lon="1.19879">
        <ele>306.32</ele>
        <time>2018-10-21T07:06:24Z</time>
      </trkpt>
      <trkpt lat="46.01727" lon="1.1991">
        <ele>303.91</ele>
        <time>2018-10-21T07:06:34Z</time>
      </trkpt>
      <trkpt lat="46.01765" lon="1.1991">
        <ele>301.99</ele>
        <time>2018-10-21T07:06:44Z</time>
      </trkpt>
      <trkpt lat="46.01798" lon="1.19911">
        <ele>302.47</ele>
        <time>2018-10-21T07:06:55Z</time>
      </trkpt>
      <trkpt lat="46.01804" lon="1.19913">
        <ele>303.43</ele>
        <time>2018-10-21T07:06:58Z</time>
      </trkpt>
      <trkpt lat="46.0181" lon="1.19919">
        <ele>304.39</ele>
        <time>2018-10-21T07:07:01Z</time>
      </trkpt>
      <trkpt lat="46.01815" lon="1.19924">
        <ele>305.36</ele>
        <time>2018-10-21T07:07:04Z</time>
      </trkpt>
      <trkpt lat="46.01836" lon="1.1996">
        <ele>306.32</ele>
        <time>2018-10-21T07:07:13Z</time>
      </trkpt>
      <trkpt lat="46.01861" lon="1.19986">
        <ele>304.39</ele>
        <time>2018-10-21T07:07:21Z</time>
      </trkpt>
      <trkpt lat="46.01895" lon="1.20013">
        <ele>301.03</ele>
        <time>2018-10-21T07:07:30Z</time>
      </trkpt>
      <trkpt lat="46.0191" lon="1.20022">
        <ele>298.63</ele>
        <time>2018-10-21T07:07:36Z</time>
      </trkpt>
      <trkpt lat="46.01927" lon="1.20039">
        <ele>298.15</ele>
        <time>2018-10-21T07:07:43Z</time>
      </trkpt>
      <trkpt lat="46.0193" lon="1.2004">
        <ele>298.15</ele>
        <time>2018-10-21T07:07:44Z</time>
      </trkpt>
      <trkpt lat="46.01933" lon="1.20042">
        <ele>298.15</ele>
        <time>2018-10-21T07:07:45Z</time>
      </trkpt>
      <trkpt lat="46.01935" lon="1.20042">
        <ele>298.15</ele>
        <time>2018-10-21T07:07:46Z</time>
      </trkpt>
      <trkpt lat="46.01938" lon="1.20044">
        <ele>298.15</ele>
        <time>2018-10-21T07:07:47Z</time>
      </trkpt>
      <trkpt lat="46.0194" lon="1.20045">
        <ele>298.15</ele>
        <time>2018-10-21T07:07:48Z</time>
      </trkpt>
      <trkpt lat="46.01942" lon="1.20048">
        <ele>298.15</ele>
        <time>2018-10-21T07:07:51Z</time>
      </trkpt>
      <trkpt lat="46.01944" lon="1.20049">
        <ele>298.15</ele>
        <time>2018-10-21T07:07:52Z</time>
      </trkpt>
      <trkpt lat="46.01951" lon="1.20051">
        <ele>298.63</ele>
        <time>2018-10-21T07:07:56Z</time>
      </trkpt>
      <trkpt lat="46.01964" lon="1.20045">
        <ele>298.63</ele>
        <time>2018-10-21T07:08:02Z</time>
      </trkpt>
      <trkpt lat="46.01966" lon="1.20045">
        <ele>298.63</ele>
        <time>2018-10-21T07:08:03Z</time>
      </trkpt>
      <trkpt lat="46.01967" lon="1.20047">
        <ele>298.63</ele>
        <time>2018-10-21T07:08:04Z</time>
      </trkpt>
      <trkpt lat="46.01967" lon="1.20049">
        <ele>298.63</ele>
        <time>2018-10-21T07:08:05Z</time>
      </trkpt>
      <trkpt lat="46.01977" lon="1.20055">
        <ele>297.67</ele>
        <time>2018-10-21T07:08:11Z</time>
      </trkpt>
      <trkpt lat="46.01988" lon="1.20059">
        <ele>297.18</ele>
        <time>2018-10-21T07:08:16Z</time>
      </trkpt>
      <trkpt lat="46.0199" lon="1.2006">
        <ele>297.18</ele>
        <time>2018-10-21T07:08:17Z</time>
      </trkpt>
      <trkpt lat="46.01992" lon="1.2006">
        <ele>297.18</ele>
        <time>2018-10-21T07:08:18Z</time>
      </trkpt>
      <trkpt lat="46.0201" lon="1.20065">
        <ele>297.18</ele>
        <time>2018-10-21T07:08:26Z</time>
      </trkpt>
      <trkpt lat="46.02012" lon="1.20065">
        <ele>297.18</ele>
        <time>2018-10-21T07:08:27Z</time>
      </trkpt>
      <trkpt lat="46.02015" lon="1.20065">
        <ele>297.18</ele>
        <time>2018-10-21T07:08:28Z</time>
      </trkpt>
      <trkpt lat="46.02019" lon="1.20065">
        <ele>297.18</ele>
        <time>2018-10-21T07:08:29Z</time>
      </trkpt>
      <trkpt lat="46.02022" lon="1.20064">
        <ele>297.18</ele>
        <time>2018-10-21T07:08:30Z</time>
      </trkpt>
      <trkpt lat="46.02026" lon="1.20062">
        <ele>297.18</ele>
        <time>2018-10-21T07:08:31Z</time>
      </trkpt>
      <trkpt lat="46.02029" lon="1.2006">
        <ele>297.18</ele>
        <time>2018-10-21T07:08:32Z</time>
      </trkpt>
      <trkpt lat="46.02033" lon="1.20059">
        <ele>297.18</ele>
        <time>2018-10-21T07:08:33Z</time>
      </trkpt>
      <trkpt lat="46.02037" lon="1.2006">
        <ele>297.18</ele>
        <time>2018-10-21T07:08:34Z</time>
      </trkpt>
      <trkpt lat="46.02041" lon="1.20061">
        <ele>297.18</ele>
        <time>2018-10-21T07:08:35Z</time>
      </trkpt>
      <trkpt lat="46.02045" lon="1.20064">
        <ele>297.18</ele>
        <time>2018-10-21T07:08:36Z</time>
      </trkpt>
      <trkpt lat="46.02098" lon="1.20107">
        <ele>295.26</ele>
        <time>2018-10-21T07:08:50Z</time>
      </trkpt>
      <trkpt lat="46.02117" lon="1.20122">
        <ele>295.26</ele>
        <time>2018-10-21T07:08:55Z</time>
      </trkpt>
      <trkpt lat="46.0213" lon="1.20131">
        <ele>295.26</ele>
        <time>2018-10-21T07:08:58Z</time>
      </trkpt>
      <trkpt lat="46.02132" lon="1.20137">
        <ele>295.26</ele>
        <time>2018-10-21T07:08:59Z</time>
      </trkpt>
      <trkpt lat="46.02133" lon="1.20143">
        <ele>295.26</ele>
        <time>2018-10-21T07:09:00Z</time>
      </trkpt>
      <trkpt lat="46.02133" lon="1.2015">
        <ele>295.26</ele>
        <time>2018-10-21T07:09:01Z</time>
      </trkpt>
      <trkpt lat="46.02132" lon="1.20157">
        <ele>295.26</ele>
        <time>2018-10-21T07:09:02Z</time>
      </trkpt>
      <trkpt lat="46.02131" lon="1.20164">
        <ele>295.74</ele>
        <time>2018-10-21T07:09:03Z</time>
      </trkpt>
      <trkpt lat="46.02128" lon="1.20196">
        <ele>295.74</ele>
        <time>2018-10-21T07:09:08Z</time>
      </trkpt>
      <trkpt lat="46.02127" lon="1.20202">
        <ele>295.74</ele>
        <time>2018-10-21T07:09:09Z</time>
      </trkpt>
      <trkpt lat="46.02123" lon="1.20213">
        <ele>296.22</ele>
        <time>2018-10-21T07:09:11Z</time>
      </trkpt>
      <trkpt lat="46.02109" lon="1.20253">
        <ele>298.63</ele>
        <time>2018-10-21T07:09:20Z</time>
      </trkpt>
      <trkpt lat="46.0211" lon="1.20258">
        <ele>301.51</ele>
        <time>2018-10-21T07:09:26Z</time>
      </trkpt>
      <trkpt lat="46.02112" lon="1.20267">
        <ele>303.91</ele>
        <time>2018-10-21T07:10:36Z</time>
      </trkpt>
      <trkpt lat="46.02111" lon="1.2027">
        <ele>303.43</ele>
        <time>2018-10-21T07:10:37Z</time>
      </trkpt>
      <trkpt lat="46.0211" lon="1.20274">
        <ele>303.43</ele>
        <time>2018-10-21T07:10:38Z</time>
      </trkpt>
      <trkpt lat="46.02108" lon="1.20277">
        <ele>303.43</ele>
        <time>2018-10-21T07:10:39Z</time>
      </trkpt>
      <trkpt lat="46.02105" lon="1.2028">
        <ele>303.43</ele>
        <time>2018-10-21T07:10:40Z</time>
      </trkpt>
      <trkpt lat="46.02102" lon="1.20282">
        <ele>303.43</ele>
        <time>2018-10-21T07:10:41Z</time>
      </trkpt>
      <trkpt lat="46.02098" lon="1.20285">
        <ele>303.43</ele>
        <time>2018-10-21T07:10:42Z</time>
      </trkpt>
      <trkpt lat="46.02072" lon="1.20312">
        <ele>301.99</ele>
        <time>2018-10-21T07:10:48Z</time>
      </trkpt>
      <trkpt lat="46.02067" lon="1.20318">
        <ele>301.51</ele>
        <time>2018-10-21T07:10:49Z</time>
      </trkpt>
      <trkpt lat="46.0204" lon="1.20348">
        <ele>297.67</ele>
        <time>2018-10-21T07:10:55Z</time>
      </trkpt>
      <trkpt lat="46.02036" lon="1.20352">
        <ele>297.67</ele>
        <time>2018-10-21T07:10:56Z</time>
      </trkpt>
      <trkpt lat="46.01999" lon="1.20394">
        <ele>297.18</ele>
        <time>2018-10-21T07:11:06Z</time>
      </trkpt>
      <trkpt lat="46.01983" lon="1.20445">
        <ele>298.15</ele>
        <time>2018-10-21T07:11:16Z</time>
      </trkpt>
      <trkpt lat="46.01975" lon="1.20496">
        <ele>299.11</ele>
        <time>2018-10-21T07:11:27Z</time>
      </trkpt>
      <trkpt lat="46.01956" lon="1.20565">
        <ele>299.59</ele>
        <time>2018-10-21T07:11:41Z</time>
      </trkpt>
      <trkpt lat="46.01932" lon="1.20617">
        <ele>301.03</ele>
        <time>2018-10-21T07:11:54Z</time>
      </trkpt>
      <trkpt lat="46.01919" lon="1.20647">
        <ele>301.03</ele>
        <time>2018-10-21T07:12:01Z</time>
      </trkpt>
      <trkpt lat="46.0192" lon="1.20652">
        <ele>301.03</ele>
        <time>2018-10-21T07:12:02Z</time>
      </trkpt>
      <trkpt lat="46.0192" lon="1.20698">
        <ele>302.47</ele>
        <time>2018-10-21T07:12:13Z</time>
      </trkpt>
      <trkpt lat="46.01903" lon="1.20763">
        <ele>303.43</ele>
        <time>2018-10-21T07:12:27Z</time>
      </trkpt>
      <trkpt lat="46.01912" lon="1.20794">
        <ele>303.91</ele>
        <time>2018-10-21T07:12:36Z</time>
      </trkpt>
      <trkpt lat="46.01911" lon="1.20796">
        <ele>303.91</ele>
        <time>2018-10-21T07:12:37Z</time>
      </trkpt>
      <trkpt lat="46.01911" lon="1.20798">
        <ele>303.91</ele>
        <time>2018-10-21T07:12:38Z</time>
      </trkpt>
      <trkpt lat="46.01909" lon="1.208">
        <ele>304.39</ele>
        <time>2018-10-21T07:12:39Z</time>
      </trkpt>
      <trkpt lat="46.01907" lon="1.20801">
        <ele>304.88</ele>
        <time>2018-10-21T07:12:40Z</time>
      </trkpt>
      <trkpt lat="46.01905" lon="1.20801">
        <ele>304.88</ele>
        <time>2018-10-21T07:12:41Z</time>
      </trkpt>
      <trkpt lat="46.01903" lon="1.208">
        <ele>305.36</ele>
        <time>2018-10-21T07:12:42Z</time>
      </trkpt>
      <trkpt lat="46.019" lon="1.20798">
        <ele>305.36</ele>
        <time>2018-10-21T07:12:43Z</time>
      </trkpt>
      <trkpt lat="46.01897" lon="1.20795">
        <ele>305.84</ele>
        <time>2018-10-21T07:12:44Z</time>
      </trkpt>
      <trkpt lat="46.01884" lon="1.20785">
        <ele>305.84</ele>
        <time>2018-10-21T07:12:49Z</time>
      </trkpt>
      <trkpt lat="46.01882" lon="1.20788">
        <ele>305.84</ele>
        <time>2018-10-21T07:12:50Z</time>
      </trkpt>
      <trkpt lat="46.0188" lon="1.20791">
        <ele>305.84</ele>
        <time>2018-10-21T07:12:51Z</time>
      </trkpt>
      <trkpt lat="46.01859" lon="1.2082">
        <ele>305.84</ele>
        <time>2018-10-21T07:13:04Z</time>
      </trkpt>
      <trkpt lat="46.01856" lon="1.20826">
        <ele>306.8</ele>
        <time>2018-10-21T07:13:08Z</time>
      </trkpt>
      <trkpt lat="46.01855" lon="1.20828">
        <ele>306.8</ele>
        <time>2018-10-21T07:13:09Z</time>
      </trkpt>
      <trkpt lat="46.01856" lon="1.2083">
        <ele>306.8</ele>
        <time>2018-10-21T07:13:10Z</time>
      </trkpt>
      <trkpt lat="46.01857" lon="1.20832">
        <ele>307.28</ele>
        <time>2018-10-21T07:13:11Z</time>
      </trkpt>
      <trkpt lat="46.01857" lon="1.20834">
        <ele>307.76</ele>
        <time>2018-10-21T07:13:12Z</time>
      </trkpt>
      <trkpt lat="46.01857" lon="1.20837">
        <ele>308.24</ele>
        <time>2018-10-21T07:13:13Z</time>
      </trkpt>
      <trkpt lat="46.01857" lon="1.20839">
        <ele>308.24</ele>
        <time>2018-10-21T07:13:14Z</time>
      </trkpt>
      <trkpt lat="46.01858" lon="1.20842">
        <ele>308.72</ele>
        <time>2018-10-21T07:13:15Z</time>
      </trkpt>
      <trkpt lat="46.01858" lon="1.20844">
        <ele>308.72</ele>
        <time>2018-10-21T07:13:16Z</time>
      </trkpt>
      <trkpt lat="46.01857" lon="1.20848">
        <ele>309.2</ele>
        <time>2018-10-21T07:13:18Z</time>
      </trkpt>
      <trkpt lat="46.01855" lon="1.20874">
        <ele>311.6</ele>
        <time>2018-10-21T07:13:29Z</time>
      </trkpt>
      <trkpt lat="46.01856" lon="1.20877">
        <ele>311.6</ele>
        <time>2018-10-21T07:13:30Z</time>
      </trkpt>
      <trkpt lat="46.01856" lon="1.20884">
        <ele>312.09</ele>
        <time>2018-10-21T07:13:33Z</time>
      </trkpt>
      <trkpt lat="46.01856" lon="1.20899">
        <ele>313.05</ele>
        <time>2018-10-21T07:13:39Z</time>
      </trkpt>
      <trkpt lat="46.01857" lon="1.20903">
        <ele>313.53</ele>
        <time>2018-10-21T07:13:40Z</time>
      </trkpt>
      <trkpt lat="46.01857" lon="1.20905">
        <ele>313.53</ele>
        <time>2018-10-21T07:13:41Z</time>
      </trkpt>
      <trkpt lat="46.01857" lon="1.20908">
        <ele>314.01</ele>
        <time>2018-10-21T07:13:42Z</time>
      </trkpt>
      <trkpt lat="46.01857" lon="1.20911">
        <ele>314.01</ele>
        <time>2018-10-21T07:13:43Z</time>
      </trkpt>
      <trkpt lat="46.01857" lon="1.20913">
        <ele>314.01</ele>
        <time>2018-10-21T07:13:44Z</time>
      </trkpt>
      <trkpt lat="46.01858" lon="1.20916">
        <ele>314.01</ele>
        <time>2018-10-21T07:13:45Z</time>
      </trkpt>
      <trkpt lat="46.0186" lon="1.20934">
        <ele>314.97</ele>
        <time>2018-10-21T07:13:51Z</time>
      </trkpt>
      <trkpt lat="46.01879" lon="1.20974">
        <ele>315.93</ele>
        <time>2018-10-21T07:14:01Z</time>
      </trkpt>
      <trkpt lat="46.01892" lon="1.21023">
        <ele>316.41</ele>
        <time>2018-10-21T07:14:10Z</time>
      </trkpt>
      <trkpt lat="46.01895" lon="1.21029">
        <ele>316.41</ele>
        <time>2018-10-21T07:14:11Z</time>
      </trkpt>
      <trkpt lat="46.01899" lon="1.21049">
        <ele>315.93</ele>
        <time>2018-10-21T07:14:14Z</time>
      </trkpt>
      <trkpt lat="46.019" lon="1.21056">
        <ele>315.45</ele>
        <time>2018-10-21T07:14:15Z</time>
      </trkpt>
      <trkpt lat="46.01901" lon="1.21061">
        <ele>314.97</ele>
        <time>2018-10-21T07:14:16Z</time>
      </trkpt>
      <trkpt lat="46.01899" lon="1.21116">
        <ele>314.01</ele>
        <time>2018-10-21T07:14:25Z</time>
      </trkpt>
      <trkpt lat="46.01899" lon="1.21131">
        <ele>314.01</ele>
        <time>2018-10-21T07:14:27Z</time>
      </trkpt>
      <trkpt lat="46.019" lon="1.21163">
        <ele>314.01</ele>
        <time>2018-10-21T07:14:35Z</time>
      </trkpt>
      <trkpt lat="46.01898" lon="1.21183">
        <ele>314.01</ele>
        <time>2018-10-21T07:14:41Z</time>
      </trkpt>
      <trkpt lat="46.01897" lon="1.21188">
        <ele>314.01</ele>
        <time>2018-10-21T07:14:42Z</time>
      </trkpt>
      <trkpt lat="46.01896" lon="1.21192">
        <ele>314.01</ele>
        <time>2018-10-21T07:14:43Z</time>
      </trkpt>
      <trkpt lat="46.01887" lon="1.21219">
        <ele>313.05</ele>
        <time>2018-10-21T07:14:51Z</time>
      </trkpt>
      <trkpt lat="46.01886" lon="1.21269">
        <ele>314.01</ele>
        <time>2018-10-21T07:15:02Z</time>
      </trkpt>
      <trkpt lat="46.01908" lon="1.21301">
        <ele>316.41</ele>
        <time>2018-10-21T07:15:13Z</time>
      </trkpt>
      <trkpt lat="46.01931" lon="1.21332">
        <ele>316.41</ele>
        <time>2018-10-21T07:15:22Z</time>
      </trkpt>
      <trkpt lat="46.01954" lon="1.21357">
        <ele>316.41</ele>
        <time>2018-10-21T07:15:27Z</time>
      </trkpt>
      <trkpt lat="46.01959" lon="1.21362">
        <ele>316.41</ele>
        <time>2018-10-21T07:15:28Z</time>
      </trkpt>
      <trkpt lat="46.01964" lon="1.21365">
        <ele>316.41</ele>
        <time>2018-10-21T07:15:29Z</time>
      </trkpt>
      <trkpt lat="46.01968" lon="1.21369">
        <ele>316.41</ele>
        <time>2018-10-21T07:15:30Z</time>
      </trkpt>
      <trkpt lat="46.01972" lon="1.21372">
        <ele>316.41</ele>
        <time>2018-10-21T07:15:31Z</time>
      </trkpt>
      <trkpt lat="46.01977" lon="1.21375">
        <ele>316.41</ele>
        <time>2018-10-21T07:15:32Z</time>
      </trkpt>
      <trkpt lat="46.01981" lon="1.21378">
        <ele>316.41</ele>
        <time>2018-10-21T07:15:33Z</time>
      </trkpt>
      <trkpt lat="46.01993" lon="1.21384">
        <ele>316.89</ele>
        <time>2018-10-21T07:15:36Z</time>
      </trkpt>
      <trkpt lat="46.01999" lon="1.21386">
        <ele>316.89</ele>
        <time>2018-10-21T07:15:37Z</time>
      </trkpt>
      <trkpt lat="46.02004" lon="1.21388">
        <ele>316.89</ele>
        <time>2018-10-21T07:15:38Z</time>
      </trkpt>
      <trkpt lat="46.0201" lon="1.21391">
        <ele>316.89</ele>
        <time>2018-10-21T07:15:39Z</time>
      </trkpt>
      <trkpt lat="46.02015" lon="1.21394">
        <ele>316.89</ele>
        <time>2018-10-21T07:15:40Z</time>
      </trkpt>
      <trkpt lat="46.02019" lon="1.21396">
        <ele>316.89</ele>
        <time>2018-10-21T07:15:41Z</time>
      </trkpt>
      <trkpt lat="46.02023" lon="1.21399">
        <ele>316.89</ele>
        <time>2018-10-21T07:15:42Z</time>
      </trkpt>
      <trkpt lat="46.02027" lon="1.21404">
        <ele>316.89</ele>
        <time>2018-10-21T07:15:43Z</time>
      </trkpt>
      <trkpt lat="46.02032" lon="1.21408">
        <ele>316.89</ele>
        <time>2018-10-21T07:15:44Z</time>
      </trkpt>
      <trkpt lat="46.02036" lon="1.21411">
        <ele>316.89</ele>
        <time>2018-10-21T07:15:45Z</time>
      </trkpt>
      <trkpt lat="46.02057" lon="1.21451">
        <ele>317.85</ele>
        <time>2018-10-21T07:15:55Z</time>
      </trkpt>
      <trkpt lat="46.02058" lon="1.21453">
        <ele>317.85</ele>
        <time>2018-10-21T07:15:56Z</time>
      </trkpt>
      <trkpt lat="46.02058" lon="1.21456">
        <ele>318.33</ele>
        <time>2018-10-21T07:15:57Z</time>
      </trkpt>
      <trkpt lat="46.02057" lon="1.21458">
        <ele>318.81</ele>
        <time>2018-10-21T07:15:58Z</time>
      </trkpt>
      <trkpt lat="46.02052" lon="1.21467">
        <ele>321.7</ele>
        <time>2018-10-21T07:16:05Z</time>
      </trkpt>
      <trkpt lat="46.02049" lon="1.21469">
        <ele>322.66</ele>
        <time>2018-10-21T07:16:08Z</time>
      </trkpt>
      <trkpt lat="46.02044" lon="1.21477">
        <ele>324.1</ele>
        <time>2018-10-21T07:16:13Z</time>
      </trkpt>
      <trkpt lat="46.02043" lon="1.21479">
        <ele>324.58</ele>
        <time>2018-10-21T07:16:14Z</time>
      </trkpt>
      <trkpt lat="46.02031" lon="1.21494">
        <ele>327.47</ele>
        <time>2018-10-21T07:16:25Z</time>
      </trkpt>
      <trkpt lat="46.02015" lon="1.21511">
        <ele>330.83</ele>
        <time>2018-10-21T07:16:38Z</time>
      </trkpt>
      <trkpt lat="46.02014" lon="1.21512">
        <ele>330.83</ele>
        <time>2018-10-21T07:16:39Z</time>
      </trkpt>
      <trkpt lat="46.01995" lon="1.21521">
        <ele>333.71</ele>
        <time>2018-10-21T07:16:53Z</time>
      </trkpt>
      <trkpt lat="46.01973" lon="1.21528">
        <ele>336.6</ele>
        <time>2018-10-21T07:17:06Z</time>
      </trkpt>
      <trkpt lat="46.01948" lon="1.21536">
        <ele>339</ele>
        <time>2018-10-21T07:17:19Z</time>
      </trkpt>
      <trkpt lat="46.01907" lon="1.2154">
        <ele>339.96</ele>
        <time>2018-10-21T07:17:33Z</time>
      </trkpt>
      <trkpt lat="46.01859" lon="1.21542">
        <ele>341.41</ele>
        <time>2018-10-21T07:17:48Z</time>
      </trkpt>
      <trkpt lat="46.01828" lon="1.21545">
        <ele>341.89</ele>
        <time>2018-10-21T07:17:58Z</time>
      </trkpt>
      <trkpt lat="46.01802" lon="1.21529">
        <ele>343.33</ele>
        <time>2018-10-21T07:18:09Z</time>
      </trkpt>
      <trkpt lat="46.0177" lon="1.21508">
        <ele>346.21</ele>
        <time>2018-10-21T07:18:25Z</time>
      </trkpt>
      <trkpt lat="46.0175" lon="1.21503">
        <ele>349.1</ele>
        <time>2018-10-21T07:18:35Z</time>
      </trkpt>
      <trkpt lat="46.01726" lon="1.21505">
        <ele>351.98</ele>
        <time>2018-10-21T07:18:51Z</time>
      </trkpt>
      <trkpt lat="46.01699" lon="1.21509">
        <ele>353.9</ele>
        <time>2018-10-21T07:19:05Z</time>
      </trkpt>
      <trkpt lat="46.01684" lon="1.21509">
        <ele>354.86</ele>
        <time>2018-10-21T07:19:13Z</time>
      </trkpt>
      <trkpt lat="46.01662" lon="1.21509">
        <ele>356.79</ele>
        <time>2018-10-21T07:19:25Z</time>
      </trkpt>
      <trkpt lat="46.01637" lon="1.21501">
        <ele>357.75</ele>
        <time>2018-10-21T07:19:35Z</time>
      </trkpt>
      <trkpt lat="46.01635" lon="1.215">
        <ele>357.75</ele>
        <time>2018-10-21T07:19:36Z</time>
      </trkpt>
      <trkpt lat="46.0163" lon="1.21496">
        <ele>358.23</ele>
        <time>2018-10-21T07:19:43Z</time>
      </trkpt>
      <trkpt lat="46.01634" lon="1.21504">
        <ele>359.19</ele>
        <time>2018-10-21T07:19:51Z</time>
      </trkpt>
      <trkpt lat="46.01658" lon="1.21505">
        <ele>358.23</ele>
        <time>2018-10-21T07:20:06Z</time>
      </trkpt>
      <trkpt lat="46.01684" lon="1.21506">
        <ele>356.79</ele>
        <time>2018-10-21T07:20:20Z</time>
      </trkpt>
      <trkpt lat="46.01701" lon="1.21506">
        <ele>355.34</ele>
        <time>2018-10-21T07:20:33Z</time>
      </trkpt>
      <trkpt lat="46.01689" lon="1.21506">
        <ele>354.38</ele>
        <time>2018-10-21T07:20:50Z</time>
      </trkpt>
      <trkpt lat="46.01682" lon="1.21507">
        <ele>354.38</ele>
        <time>2018-10-21T07:20:52Z</time>
      </trkpt>
      <trkpt lat="46.01654" lon="1.21506">
        <ele>355.83</ele>
        <time>2018-10-21T07:21:03Z</time>
      </trkpt>
      <trkpt lat="46.0164" lon="1.21504">
        <ele>357.27</ele>
        <time>2018-10-21T07:21:10Z</time>
      </trkpt>
      <trkpt lat="46.01638" lon="1.21504">
        <ele>357.75</ele>
        <time>2018-10-21T07:21:11Z</time>
      </trkpt>
      <trkpt lat="46.01636" lon="1.21504">
        <ele>357.75</ele>
        <time>2018-10-21T07:21:12Z</time>
      </trkpt>
      <trkpt lat="46.01634" lon="1.21502">
        <ele>357.75</ele>
        <time>2018-10-21T07:21:13Z</time>
      </trkpt>
      <trkpt lat="46.01632" lon="1.215">
        <ele>357.75</ele>
        <time>2018-10-21T07:21:14Z</time>
      </trkpt>
      <trkpt lat="46.01614" lon="1.21488">
        <ele>358.23</ele>
        <time>2018-10-21T07:21:20Z</time>
      </trkpt>
      <trkpt lat="46.01606" lon="1.21487">
        <ele>358.23</ele>
        <time>2018-10-21T07:21:21Z</time>
      </trkpt>
      <trkpt lat="46.01556" lon="1.21482">
        <ele>358.23</ele>
        <time>2018-10-21T07:21:34Z</time>
      </trkpt>
      <trkpt lat="46.01538" lon="1.21479">
        <ele>358.71</ele>
        <time>2018-10-21T07:21:39Z</time>
      </trkpt>
      <trkpt lat="46.01512" lon="1.2148">
        <ele>358.71</ele>
        <time>2018-10-21T07:21:46Z</time>
      </trkpt>
      <trkpt lat="46.01508" lon="1.21484">
        <ele>358.71</ele>
        <time>2018-10-21T07:21:47Z</time>
      </trkpt>
      <trkpt lat="46.01505" lon="1.21489">
        <ele>358.71</ele>
        <time>2018-10-21T07:21:48Z</time>
      </trkpt>
      <trkpt lat="46.01459" lon="1.21551">
        <ele>356.31</ele>
        <time>2018-10-21T07:22:02Z</time>
      </trkpt>
      <trkpt lat="46.01456" lon="1.21557">
        <ele>356.31</ele>
        <time>2018-10-21T07:22:03Z</time>
      </trkpt>
      <trkpt lat="46.01451" lon="1.21567">
        <ele>355.83</ele>
        <time>2018-10-21T07:22:05Z</time>
      </trkpt>
      <trkpt lat="46.01449" lon="1.21573">
        <ele>355.83</ele>
        <time>2018-10-21T07:22:06Z</time>
      </trkpt>
      <trkpt lat="46.01441" lon="1.2159">
        <ele>355.83</ele>
        <time>2018-10-21T07:22:09Z</time>
      </trkpt>
      <trkpt lat="46.01438" lon="1.21595">
        <ele>355.83</ele>
        <time>2018-10-21T07:22:10Z</time>
      </trkpt>
      <trkpt lat="46.01436" lon="1.216">
        <ele>355.83</ele>
        <time>2018-10-21T07:22:11Z</time>
      </trkpt>
      <trkpt lat="46.01434" lon="1.21605">
        <ele>355.83</ele>
        <time>2018-10-21T07:22:12Z</time>
      </trkpt>
      <trkpt lat="46.01432" lon="1.21611">
        <ele>355.83</ele>
        <time>2018-10-21T07:22:13Z</time>
      </trkpt>
      <trkpt lat="46.01424" lon="1.21629">
        <ele>355.34</ele>
        <time>2018-10-21T07:22:17Z</time>
      </trkpt>
      <trkpt lat="46.01421" lon="1.21631">
        <ele>355.34</ele>
        <time>2018-10-21T07:22:18Z</time>
      </trkpt>
      <trkpt lat="46.01418" lon="1.21634">
        <ele>354.86</ele>
        <time>2018-10-21T07:22:19Z</time>
      </trkpt>
      <trkpt lat="46.01414" lon="1.21635">
        <ele>354.86</ele>
        <time>2018-10-21T07:22:20Z</time>
      </trkpt>
      <trkpt lat="46.01411" lon="1.21637">
        <ele>354.86</ele>
        <time>2018-10-21T07:22:21Z</time>
      </trkpt>
      <trkpt lat="46.01406" lon="1.21641">
        <ele>354.86</ele>
        <time>2018-10-21T07:22:22Z</time>
      </trkpt>
      <trkpt lat="46.01365" lon="1.21656">
        <ele>354.86</ele>
        <time>2018-10-21T07:22:32Z</time>
      </trkpt>
      <trkpt lat="46.01361" lon="1.21703">
        <ele>355.83</ele>
        <time>2018-10-21T07:22:41Z</time>
      </trkpt>
      <trkpt lat="46.01362" lon="1.21721">
        <ele>355.83</ele>
        <time>2018-10-21T07:22:44Z</time>
      </trkpt>
      <trkpt lat="46.01365" lon="1.21779">
        <ele>355.83</ele>
        <time>2018-10-21T07:22:54Z</time>
      </trkpt>
      <trkpt lat="46.01359" lon="1.2183">
        <ele>356.79</ele>
        <time>2018-10-21T07:23:04Z</time>
      </trkpt>
      <trkpt lat="46.01339" lon="1.21874">
        <ele>357.75</ele>
        <time>2018-10-21T07:23:17Z</time>
      </trkpt>
      <trkpt lat="46.01312" lon="1.21899">
        <ele>359.19</ele>
        <time>2018-10-21T07:23:29Z</time>
      </trkpt>
      <trkpt lat="46.01289" lon="1.21936">
        <ele>361.59</ele>
        <time>2018-10-21T07:23:41Z</time>
      </trkpt>
      <trkpt lat="46.01272" lon="1.21968">
        <ele>359.67</ele>
        <time>2018-10-21T07:23:51Z</time>
      </trkpt>
      <trkpt lat="46.01255" lon="1.21988">
        <ele>356.79</ele>
        <time>2018-10-21T07:23:58Z</time>
      </trkpt>
      <trkpt lat="46.01252" lon="1.21991">
        <ele>356.31</ele>
        <time>2018-10-21T07:23:59Z</time>
      </trkpt>
      <trkpt lat="46.01238" lon="1.22002">
        <ele>355.34</ele>
        <time>2018-10-21T07:24:03Z</time>
      </trkpt>
      <trkpt lat="46.01233" lon="1.22006">
        <ele>355.34</ele>
        <time>2018-10-21T07:24:04Z</time>
      </trkpt>
      <trkpt lat="46.01207" lon="1.22028">
        <ele>351.98</ele>
        <time>2018-10-21T07:24:10Z</time>
      </trkpt>
      <trkpt lat="46.01187" lon="1.22043">
        <ele>349.1</ele>
        <time>2018-10-21T07:24:15Z</time>
      </trkpt>
      <trkpt lat="46.01163" lon="1.22045">
        <ele>345.25</ele>
        <time>2018-10-21T07:24:21Z</time>
      </trkpt>
      <trkpt lat="46.01154" lon="1.22046">
        <ele>343.81</ele>
        <time>2018-10-21T07:24:24Z</time>
      </trkpt>
      <trkpt lat="46.01153" lon="1.22049">
        <ele>343.33</ele>
        <time>2018-10-21T07:24:25Z</time>
      </trkpt>
      <trkpt lat="46.01152" lon="1.22054">
        <ele>342.85</ele>
        <time>2018-10-21T07:24:26Z</time>
      </trkpt>
      <trkpt lat="46.01152" lon="1.22073">
        <ele>341.41</ele>
        <time>2018-10-21T07:24:29Z</time>
      </trkpt>
      <trkpt lat="46.01153" lon="1.2208">
        <ele>340.92</ele>
        <time>2018-10-21T07:24:30Z</time>
      </trkpt>
      <trkpt lat="46.01154" lon="1.22142">
        <ele>337.56</ele>
        <time>2018-10-21T07:24:39Z</time>
      </trkpt>
      <trkpt lat="46.01153" lon="1.22147">
        <ele>337.08</ele>
        <time>2018-10-21T07:24:40Z</time>
      </trkpt>
      <trkpt lat="46.01151" lon="1.22153">
        <ele>336.6</ele>
        <time>2018-10-21T07:24:41Z</time>
      </trkpt>
      <trkpt lat="46.01135" lon="1.22187">
        <ele>334.2</ele>
        <time>2018-10-21T07:24:48Z</time>
      </trkpt>
      <trkpt lat="46.01116" lon="1.22222">
        <ele>333.71</ele>
        <time>2018-10-21T07:24:54Z</time>
      </trkpt>
      <trkpt lat="46.01099" lon="1.2224">
        <ele>333.71</ele>
        <time>2018-10-21T07:24:58Z</time>
      </trkpt>
      <trkpt lat="46.01094" lon="1.22242">
        <ele>333.71</ele>
        <time>2018-10-21T07:24:59Z</time>
      </trkpt>
      <trkpt lat="46.01074" lon="1.22247">
        <ele>333.71</ele>
        <time>2018-10-21T07:25:03Z</time>
      </trkpt>
      <trkpt lat="46.01068" lon="1.2225">
        <ele>334.2</ele>
        <time>2018-10-21T07:25:04Z</time>
      </trkpt>
      <trkpt lat="46.01064" lon="1.22254">
        <ele>334.2</ele>
        <time>2018-10-21T07:25:05Z</time>
      </trkpt>
      <trkpt lat="46.0106" lon="1.22261">
        <ele>334.2</ele>
        <time>2018-10-21T07:25:06Z</time>
      </trkpt>
      <trkpt lat="46.01056" lon="1.22267">
        <ele>334.2</ele>
        <time>2018-10-21T07:25:07Z</time>
      </trkpt>
      <trkpt lat="46.01049" lon="1.22282">
        <ele>334.2</ele>
        <time>2018-10-21T07:25:09Z</time>
      </trkpt>
      <trkpt lat="46.01029" lon="1.22332">
        <ele>334.68</ele>
        <time>2018-10-21T07:25:16Z</time>
      </trkpt>
      <trkpt lat="46.01026" lon="1.22339">
        <ele>334.68</ele>
        <time>2018-10-21T07:25:17Z</time>
      </trkpt>
      <trkpt lat="46.01024" lon="1.22348">
        <ele>334.68</ele>
        <time>2018-10-21T07:25:18Z</time>
      </trkpt>
      <trkpt lat="46.01024" lon="1.22357">
        <ele>334.68</ele>
        <time>2018-10-21T07:25:19Z</time>
      </trkpt>
      <trkpt lat="46.01026" lon="1.22368">
        <ele>334.68</ele>
        <time>2018-10-21T07:25:20Z</time>
      </trkpt>
      <trkpt lat="46.01029" lon="1.22378">
        <ele>334.68</ele>
        <time>2018-10-21T07:25:21Z</time>
      </trkpt>
      <trkpt lat="46.01033" lon="1.22387">
        <ele>334.68</ele>
        <time>2018-10-21T07:25:22Z</time>
      </trkpt>
      <trkpt lat="46.01037" lon="1.22396">
        <ele>334.68</ele>
        <time>2018-10-21T07:25:23Z</time>
      </trkpt>
      <trkpt lat="46.01041" lon="1.22405">
        <ele>334.68</ele>
        <time>2018-10-21T07:25:24Z</time>
      </trkpt>
      <trkpt lat="46.01049" lon="1.2242">
        <ele>334.68</ele>
        <time>2018-10-21T07:25:26Z</time>
      </trkpt>
      <trkpt lat="46.01058" lon="1.22427">
        <ele>334.68</ele>
        <time>2018-10-21T07:25:27Z</time>
      </trkpt>
      <trkpt lat="46.01065" lon="1.22433">
        <ele>334.68</ele>
        <time>2018-10-21T07:25:28Z</time>
      </trkpt>
      <trkpt lat="46.01071" lon="1.22438">
        <ele>334.68</ele>
        <time>2018-10-21T07:25:29Z</time>
      </trkpt>
      <trkpt lat="46.01077" lon="1.22442">
        <ele>334.2</ele>
        <time>2018-10-21T07:25:30Z</time>
      </trkpt>
      <trkpt lat="46.01083" lon="1.22446">
        <ele>334.2</ele>
        <time>2018-10-21T07:25:31Z</time>
      </trkpt>
      <trkpt lat="46.0114" lon="1.22482">
        <ele>334.2</ele>
        <time>2018-10-21T07:25:43Z</time>
      </trkpt>
      <trkpt lat="46.01156" lon="1.22493">
        <ele>333.71</ele>
        <time>2018-10-21T07:25:46Z</time>
      </trkpt>
      <trkpt lat="46.01165" lon="1.22503">
        <ele>333.71</ele>
        <time>2018-10-21T07:25:48Z</time>
      </trkpt>
      <trkpt lat="46.01169" lon="1.2251">
        <ele>333.71</ele>
        <time>2018-10-21T07:25:49Z</time>
      </trkpt>
      <trkpt lat="46.01178" lon="1.22527">
        <ele>333.23</ele>
        <time>2018-10-21T07:25:52Z</time>
      </trkpt>
      <trkpt lat="46.01182" lon="1.2253">
        <ele>333.23</ele>
        <time>2018-10-21T07:25:53Z</time>
      </trkpt>
      <trkpt lat="46.01197" lon="1.22539">
        <ele>332.27</ele>
        <time>2018-10-21T07:25:58Z</time>
      </trkpt>
      <trkpt lat="46.01201" lon="1.22538">
        <ele>332.27</ele>
        <time>2018-10-21T07:25:59Z</time>
      </trkpt>
      <trkpt lat="46.01208" lon="1.22533">
        <ele>332.27</ele>
        <time>2018-10-21T07:26:01Z</time>
      </trkpt>
      <trkpt lat="46.01226" lon="1.22519">
        <ele>333.23</ele>
        <time>2018-10-21T07:26:10Z</time>
      </trkpt>
      <trkpt lat="46.01248" lon="1.2253">
        <ele>333.23</ele>
        <time>2018-10-21T07:26:45Z</time>
      </trkpt>
      <trkpt lat="46.01262" lon="1.2257">
        <ele>333.23</ele>
        <time>2018-10-21T07:26:57Z</time>
      </trkpt>
      <trkpt lat="46.01264" lon="1.22618">
        <ele>333.23</ele>
        <time>2018-10-21T07:27:10Z</time>
      </trkpt>
      <trkpt lat="46.01268" lon="1.22663">
        <ele>333.23</ele>
        <time>2018-10-21T07:27:22Z</time>
      </trkpt>
      <trkpt lat="46.01271" lon="1.22662">
        <ele>332.27</ele>
        <time>2018-10-21T07:27:37Z</time>
      </trkpt>
      <trkpt lat="46.01277" lon="1.2269">
        <ele>332.75</ele>
        <time>2018-10-21T07:31:15Z</time>
      </trkpt>
      <trkpt lat="46.01286" lon="1.22723">
        <ele>333.71</ele>
        <time>2018-10-21T07:31:25Z</time>
      </trkpt>
      <trkpt lat="46.01289" lon="1.22727">
        <ele>333.71</ele>
        <time>2018-10-21T07:31:26Z</time>
      </trkpt>
      <trkpt lat="46.01297" lon="1.22728">
        <ele>333.71</ele>
        <time>2018-10-21T07:31:28Z</time>
      </trkpt>
      <trkpt lat="46.01305" lon="1.22737">
        <ele>333.71</ele>
        <time>2018-10-21T07:31:31Z</time>
      </trkpt>
      <trkpt lat="46.01309" lon="1.22783">
        <ele>332.75</ele>
        <time>2018-10-21T07:31:41Z</time>
      </trkpt>
      <trkpt lat="46.01289" lon="1.22824">
        <ele>333.23</ele>
        <time>2018-10-21T07:31:51Z</time>
      </trkpt>
      <trkpt lat="46.01274" lon="1.22859">
        <ele>335.16</ele>
        <time>2018-10-21T07:32:01Z</time>
      </trkpt>
      <trkpt lat="46.01266" lon="1.22894">
        <ele>335.64</ele>
        <time>2018-10-21T07:32:12Z</time>
      </trkpt>
      <trkpt lat="46.01259" lon="1.22929">
        <ele>336.12</ele>
        <time>2018-10-21T07:32:25Z</time>
      </trkpt>
      <trkpt lat="46.01256" lon="1.22941">
        <ele>337.08</ele>
        <time>2018-10-21T07:32:31Z</time>
      </trkpt>
      <trkpt lat="46.01257" lon="1.22949">
        <ele>337.56</ele>
        <time>2018-10-21T07:32:34Z</time>
      </trkpt>
      <trkpt lat="46.01262" lon="1.22961">
        <ele>338.52</ele>
        <time>2018-10-21T07:32:40Z</time>
      </trkpt>
      <trkpt lat="46.01247" lon="1.22996">
        <ele>341.41</ele>
        <time>2018-10-21T07:32:54Z</time>
      </trkpt>
      <trkpt lat="46.01229" lon="1.23009">
        <ele>342.85</ele>
        <time>2018-10-21T07:33:05Z</time>
      </trkpt>
      <trkpt lat="46.01217" lon="1.23012">
        <ele>343.33</ele>
        <time>2018-10-21T07:33:09Z</time>
      </trkpt>
      <trkpt lat="46.01188" lon="1.23039">
        <ele>343.81</ele>
        <time>2018-10-21T07:33:23Z</time>
      </trkpt>
      <trkpt lat="46.01181" lon="1.23051">
        <ele>344.77</ele>
        <time>2018-10-21T07:33:29Z</time>
      </trkpt>
      <trkpt lat="46.01163" lon="1.23082">
        <ele>346.21</ele>
        <time>2018-10-21T07:33:40Z</time>
      </trkpt>
      <trkpt lat="46.01136" lon="1.23132">
        <ele>345.73</ele>
        <time>2018-10-21T07:33:51Z</time>
      </trkpt>
      <trkpt lat="46.01128" lon="1.2317">
        <ele>345.25</ele>
        <time>2018-10-21T07:33:57Z</time>
      </trkpt>
      <trkpt lat="46.01126" lon="1.2321">
        <ele>344.29</ele>
        <time>2018-10-21T07:34:02Z</time>
      </trkpt>
      <trkpt lat="46.01122" lon="1.23227">
        <ele>342.37</ele>
        <time>2018-10-21T07:34:05Z</time>
      </trkpt>
      <trkpt lat="46.01113" lon="1.23254">
        <ele>341.89</ele>
        <time>2018-10-21T07:34:11Z</time>
      </trkpt>
      <trkpt lat="46.01114" lon="1.23257">
        <ele>341.89</ele>
        <time>2018-10-21T07:34:12Z</time>
      </trkpt>
      <trkpt lat="46.01116" lon="1.23259">
        <ele>341.89</ele>
        <time>2018-10-21T07:34:13Z</time>
      </trkpt>
      <trkpt lat="46.01128" lon="1.23272">
        <ele>344.77</ele>
        <time>2018-10-21T07:34:19Z</time>
      </trkpt>
      <trkpt lat="46.01147" lon="1.23294">
        <ele>348.13</ele>
        <time>2018-10-21T07:34:28Z</time>
      </trkpt>
      <trkpt lat="46.01157" lon="1.23317">
        <ele>351.02</ele>
        <time>2018-10-21T07:34:36Z</time>
      </trkpt>
      <trkpt lat="46.01157" lon="1.23336">
        <ele>354.38</ele>
        <time>2018-10-21T07:34:43Z</time>
      </trkpt>
      <trkpt lat="46.01156" lon="1.23338">
        <ele>354.86</ele>
        <time>2018-10-21T07:34:44Z</time>
      </trkpt>
      <trkpt lat="46.01156" lon="1.2334">
        <ele>355.34</ele>
        <time>2018-10-21T07:34:45Z</time>
      </trkpt>
      <trkpt lat="46.01156" lon="1.23343">
        <ele>355.83</ele>
        <time>2018-10-21T07:34:46Z</time>
      </trkpt>
      <trkpt lat="46.01156" lon="1.23345">
        <ele>355.83</ele>
        <time>2018-10-21T07:34:47Z</time>
      </trkpt>
      <trkpt lat="46.01155" lon="1.23348">
        <ele>356.31</ele>
        <time>2018-10-21T07:34:48Z</time>
      </trkpt>
      <trkpt lat="46.01155" lon="1.2335">
        <ele>356.79</ele>
        <time>2018-10-21T07:34:49Z</time>
      </trkpt>
      <trkpt lat="46.01155" lon="1.23352">
        <ele>357.27</ele>
        <time>2018-10-21T07:34:50Z</time>
      </trkpt>
      <trkpt lat="46.01154" lon="1.23355">
        <ele>357.27</ele>
        <time>2018-10-21T07:34:51Z</time>
      </trkpt>
      <trkpt lat="46.01154" lon="1.23357">
        <ele>357.75</ele>
        <time>2018-10-21T07:34:52Z</time>
      </trkpt>
      <trkpt lat="46.01154" lon="1.23359">
        <ele>358.23</ele>
        <time>2018-10-21T07:34:53Z</time>
      </trkpt>
      <trkpt lat="46.01148" lon="1.23387">
        <ele>361.59</ele>
        <time>2018-10-21T07:35:06Z</time>
      </trkpt>
      <trkpt lat="46.01146" lon="1.23417">
        <ele>364.48</ele>
        <time>2018-10-21T07:35:17Z</time>
      </trkpt>
      <trkpt lat="46.01147" lon="1.23419">
        <ele>364.48</ele>
        <time>2018-10-21T07:35:18Z</time>
      </trkpt>
      <trkpt lat="46.0115" lon="1.23416">
        <ele>365.44</ele>
        <time>2018-10-21T07:35:23Z</time>
      </trkpt>
      <trkpt lat="46.01148" lon="1.23416">
        <ele>365.92</ele>
        <time>2018-10-21T07:35:25Z</time>
      </trkpt>
      <trkpt lat="46.01145" lon="1.23424">
        <ele>366.4</ele>
        <time>2018-10-21T07:35:30Z</time>
      </trkpt>
      <trkpt lat="46.01142" lon="1.23453">
        <ele>367.36</ele>
        <time>2018-10-21T07:35:44Z</time>
      </trkpt>
      <trkpt lat="46.01147" lon="1.23472">
        <ele>369.28</ele>
        <time>2018-10-21T07:35:53Z</time>
      </trkpt>
      <trkpt lat="46.01164" lon="1.23495">
        <ele>371.69</ele>
        <time>2018-10-21T07:36:09Z</time>
      </trkpt>
      <trkpt lat="46.01181" lon="1.23507">
        <ele>373.61</ele>
        <time>2018-10-21T07:36:23Z</time>
      </trkpt>
      <trkpt lat="46.01211" lon="1.23525">
        <ele>376.49</ele>
        <time>2018-10-21T07:36:42Z</time>
      </trkpt>
      <trkpt lat="46.01242" lon="1.23546">
        <ele>377.45</ele>
        <time>2018-10-21T07:36:55Z</time>
      </trkpt>
      <trkpt lat="46.01301" lon="1.23588">
        <ele>377.45</ele>
        <time>2018-10-21T07:37:11Z</time>
      </trkpt>
      <trkpt lat="46.01319" lon="1.2361">
        <ele>377.94</ele>
        <time>2018-10-21T07:37:17Z</time>
      </trkpt>
      <trkpt lat="46.01321" lon="1.23616">
        <ele>377.94</ele>
        <time>2018-10-21T07:37:18Z</time>
      </trkpt>
      <trkpt lat="46.01355" lon="1.2372">
        <ele>376.97</ele>
        <time>2018-10-21T07:37:31Z</time>
      </trkpt>
      <trkpt lat="46.01367" lon="1.23762">
        <ele>375.53</ele>
        <time>2018-10-21T07:37:35Z</time>
      </trkpt>
      <trkpt lat="46.01369" lon="1.23773">
        <ele>375.05</ele>
        <time>2018-10-21T07:37:36Z</time>
      </trkpt>
      <trkpt lat="46.01372" lon="1.23807">
        <ele>374.09</ele>
        <time>2018-10-21T07:37:39Z</time>
      </trkpt>
      <trkpt lat="46.01375" lon="1.23817">
        <ele>373.61</ele>
        <time>2018-10-21T07:37:40Z</time>
      </trkpt>
      <trkpt lat="46.01379" lon="1.23827">
        <ele>373.61</ele>
        <time>2018-10-21T07:37:41Z</time>
      </trkpt>
      <trkpt lat="46.01383" lon="1.23836">
        <ele>373.13</ele>
        <time>2018-10-21T07:37:42Z</time>
      </trkpt>
      <trkpt lat="46.01389" lon="1.23845">
        <ele>372.65</ele>
        <time>2018-10-21T07:37:43Z</time>
      </trkpt>
      <trkpt lat="46.01395" lon="1.23852">
        <ele>372.17</ele>
        <time>2018-10-21T07:37:44Z</time>
      </trkpt>
      <trkpt lat="46.01401" lon="1.23859">
        <ele>372.17</ele>
        <time>2018-10-21T07:37:45Z</time>
      </trkpt>
      <trkpt lat="46.01407" lon="1.23866">
        <ele>372.17</ele>
        <time>2018-10-21T07:37:46Z</time>
      </trkpt>
      <trkpt lat="46.01411" lon="1.23873">
        <ele>371.69</ele>
        <time>2018-10-21T07:37:47Z</time>
      </trkpt>
      <trkpt lat="46.01416" lon="1.23879">
        <ele>371.69</ele>
        <time>2018-10-21T07:37:48Z</time>
      </trkpt>
      <trkpt lat="46.01481" lon="1.23954">
        <ele>371.21</ele>
        <time>2018-10-21T07:38:01Z</time>
      </trkpt>
      <trkpt lat="46.01486" lon="1.23958">
        <ele>371.21</ele>
        <time>2018-10-21T07:38:02Z</time>
      </trkpt>
      <trkpt lat="46.01492" lon="1.23961">
        <ele>371.21</ele>
        <time>2018-10-21T07:38:03Z</time>
      </trkpt>
      <trkpt lat="46.01497" lon="1.23965">
        <ele>371.21</ele>
        <time>2018-10-21T07:38:04Z</time>
      </trkpt>
      <trkpt lat="46.01502" lon="1.2397">
        <ele>371.21</ele>
        <time>2018-10-21T07:38:05Z</time>
      </trkpt>
      <trkpt lat="46.01549" lon="1.24019">
        <ele>373.13</ele>
        <time>2018-10-21T07:38:17Z</time>
      </trkpt>
      <trkpt lat="46.01555" lon="1.2403">
        <ele>373.61</ele>
        <time>2018-10-21T07:38:19Z</time>
      </trkpt>
      <trkpt lat="46.01566" lon="1.24058">
        <ele>374.09</ele>
        <time>2018-10-21T07:38:23Z</time>
      </trkpt>
      <trkpt lat="46.01569" lon="1.24065">
        <ele>374.57</ele>
        <time>2018-10-21T07:38:24Z</time>
      </trkpt>
      <trkpt lat="46.0158" lon="1.24088">
        <ele>374.57</ele>
        <time>2018-10-21T07:38:27Z</time>
      </trkpt>
      <trkpt lat="46.01584" lon="1.24097">
        <ele>374.57</ele>
        <time>2018-10-21T07:38:28Z</time>
      </trkpt>
      <trkpt lat="46.01587" lon="1.24106">
        <ele>374.57</ele>
        <time>2018-10-21T07:38:29Z</time>
      </trkpt>
      <trkpt lat="46.01612" lon="1.24173">
        <ele>372.65</ele>
        <time>2018-10-21T07:38:37Z</time>
      </trkpt>
      <trkpt lat="46.01613" lon="1.24181">
        <ele>372.17</ele>
        <time>2018-10-21T07:38:38Z</time>
      </trkpt>
      <trkpt lat="46.01626" lon="1.24235">
        <ele>372.17</ele>
        <time>2018-10-21T07:38:45Z</time>
      </trkpt>
      <trkpt lat="46.01635" lon="1.24265">
        <ele>373.13</ele>
        <time>2018-10-21T07:38:49Z</time>
      </trkpt>
      <trkpt lat="46.01639" lon="1.2428">
        <ele>373.13</ele>
        <time>2018-10-21T07:38:51Z</time>
      </trkpt>
      <trkpt lat="46.01644" lon="1.24293">
        <ele>373.13</ele>
        <time>2018-10-21T07:38:53Z</time>
      </trkpt>
      <trkpt lat="46.01652" lon="1.24313">
        <ele>373.61</ele>
        <time>2018-10-21T07:38:56Z</time>
      </trkpt>
      <trkpt lat="46.01658" lon="1.24339">
        <ele>373.61</ele>
        <time>2018-10-21T07:39:01Z</time>
      </trkpt>
      <trkpt lat="46.01657" lon="1.2434">
        <ele>373.61</ele>
        <time>2018-10-21T07:39:02Z</time>
      </trkpt>
      <trkpt lat="46.01656" lon="1.24342">
        <ele>373.61</ele>
        <time>2018-10-21T07:39:03Z</time>
      </trkpt>
      <trkpt lat="46.01643" lon="1.24358">
        <ele>373.61</ele>
        <time>2018-10-21T07:39:07Z</time>
      </trkpt>
      <trkpt lat="46.01628" lon="1.2439">
        <ele>373.61</ele>
        <time>2018-10-21T07:39:11Z</time>
      </trkpt>
      <trkpt lat="46.01616" lon="1.2441">
        <ele>372.65</ele>
        <time>2018-10-21T07:39:14Z</time>
      </trkpt>
      <trkpt lat="46.01613" lon="1.24414">
        <ele>372.17</ele>
        <time>2018-10-21T07:39:15Z</time>
      </trkpt>
      <trkpt lat="46.01609" lon="1.24416">
        <ele>372.17</ele>
        <time>2018-10-21T07:39:16Z</time>
      </trkpt>
      <trkpt lat="46.01605" lon="1.24418">
        <ele>372.17</ele>
        <time>2018-10-21T07:39:17Z</time>
      </trkpt>
      <trkpt lat="46.01602" lon="1.24418">
        <ele>372.17</ele>
        <time>2018-10-21T07:39:18Z</time>
      </trkpt>
      <trkpt lat="46.01598" lon="1.24417">
        <ele>372.17</ele>
        <time>2018-10-21T07:39:19Z</time>
      </trkpt>
      <trkpt lat="46.01594" lon="1.24416">
        <ele>372.17</ele>
        <time>2018-10-21T07:39:20Z</time>
      </trkpt>
      <trkpt lat="46.0159" lon="1.24415">
        <ele>371.69</ele>
        <time>2018-10-21T07:39:21Z</time>
      </trkpt>
      <trkpt lat="46.01573" lon="1.2441">
        <ele>371.69</ele>
        <time>2018-10-21T07:39:25Z</time>
      </trkpt>
      <trkpt lat="46.01568" lon="1.2441">
        <ele>371.69</ele>
        <time>2018-10-21T07:39:26Z</time>
      </trkpt>
      <trkpt lat="46.01541" lon="1.24418">
        <ele>372.17</ele>
        <time>2018-10-21T07:39:32Z</time>
      </trkpt>
      <trkpt lat="46.01539" lon="1.24421">
        <ele>372.17</ele>
        <time>2018-10-21T07:39:33Z</time>
      </trkpt>
      <trkpt lat="46.01539" lon="1.24425">
        <ele>372.17</ele>
        <time>2018-10-21T07:39:34Z</time>
      </trkpt>
      <trkpt lat="46.01541" lon="1.24429">
        <ele>372.17</ele>
        <time>2018-10-21T07:39:35Z</time>
      </trkpt>
      <trkpt lat="46.01543" lon="1.24433">
        <ele>372.17</ele>
        <time>2018-10-21T07:39:36Z</time>
      </trkpt>
      <trkpt lat="46.01545" lon="1.24437">
        <ele>372.17</ele>
        <time>2018-10-21T07:39:37Z</time>
      </trkpt>
      <trkpt lat="46.01547" lon="1.24441">
        <ele>372.17</ele>
        <time>2018-10-21T07:39:38Z</time>
      </trkpt>
      <trkpt lat="46.01564" lon="1.24473">
        <ele>374.57</ele>
        <time>2018-10-21T07:39:49Z</time>
      </trkpt>
      <trkpt lat="46.01588" lon="1.24512">
        <ele>376.97</ele>
        <time>2018-10-21T07:40:05Z</time>
      </trkpt>
      <trkpt lat="46.01616" lon="1.2455">
        <ele>378.9</ele>
        <time>2018-10-21T07:40:19Z</time>
      </trkpt>
      <trkpt lat="46.01642" lon="1.2459">
        <ele>379.38</ele>
        <time>2018-10-21T07:40:29Z</time>
      </trkpt>
      <trkpt lat="46.01642" lon="1.24596">
        <ele>379.38</ele>
        <time>2018-10-21T07:40:30Z</time>
      </trkpt>
      <trkpt lat="46.0164" lon="1.24601">
        <ele>379.86</ele>
        <time>2018-10-21T07:40:31Z</time>
      </trkpt>
      <trkpt lat="46.01638" lon="1.24606">
        <ele>379.86</ele>
        <time>2018-10-21T07:40:32Z</time>
      </trkpt>
      <trkpt lat="46.01636" lon="1.24611">
        <ele>379.86</ele>
        <time>2018-10-21T07:40:33Z</time>
      </trkpt>
      <trkpt lat="46.01635" lon="1.24617">
        <ele>379.86</ele>
        <time>2018-10-21T07:40:34Z</time>
      </trkpt>
      <trkpt lat="46.01621" lon="1.24657">
        <ele>379.86</ele>
        <time>2018-10-21T07:40:41Z</time>
      </trkpt>
      <trkpt lat="46.01619" lon="1.24662">
        <ele>379.86</ele>
        <time>2018-10-21T07:40:42Z</time>
      </trkpt>
      <trkpt lat="46.01613" lon="1.24672">
        <ele>379.86</ele>
        <time>2018-10-21T07:40:44Z</time>
      </trkpt>
      <trkpt lat="46.01576" lon="1.24726">
        <ele>381.78</ele>
        <time>2018-10-21T07:40:56Z</time>
      </trkpt>
      <trkpt lat="46.01573" lon="1.24731">
        <ele>381.78</ele>
        <time>2018-10-21T07:40:57Z</time>
      </trkpt>
      <trkpt lat="46.01565" lon="1.24748">
        <ele>382.26</ele>
        <time>2018-10-21T07:41:00Z</time>
      </trkpt>
      <trkpt lat="46.01563" lon="1.24754">
        <ele>382.26</ele>
        <time>2018-10-21T07:41:01Z</time>
      </trkpt>
      <trkpt lat="46.01561" lon="1.2476">
        <ele>382.26</ele>
        <time>2018-10-21T07:41:02Z</time>
      </trkpt>
      <trkpt lat="46.01558" lon="1.24765">
        <ele>382.74</ele>
        <time>2018-10-21T07:41:03Z</time>
      </trkpt>
      <trkpt lat="46.01556" lon="1.24771">
        <ele>382.74</ele>
        <time>2018-10-21T07:41:04Z</time>
      </trkpt>
      <trkpt lat="46.01554" lon="1.24777">
        <ele>383.22</ele>
        <time>2018-10-21T07:41:05Z</time>
      </trkpt>
      <trkpt lat="46.0155" lon="1.24799">
        <ele>384.18</ele>
        <time>2018-10-21T07:41:10Z</time>
      </trkpt>
      <trkpt lat="46.01552" lon="1.248">
        <ele>384.66</ele>
        <time>2018-10-21T07:41:11Z</time>
      </trkpt>
      <trkpt lat="46.01553" lon="1.248">
        <ele>384.66</ele>
        <time>2018-10-21T07:41:12Z</time>
      </trkpt>
      <trkpt lat="46.01554" lon="1.24797">
        <ele>385.63</ele>
        <time>2018-10-21T07:41:13Z</time>
      </trkpt>
      <trkpt lat="46.01553" lon="1.24793">
        <ele>385.63</ele>
        <time>2018-10-21T07:41:14Z</time>
      </trkpt>
      <trkpt lat="46.01553" lon="1.24789">
        <ele>386.11</ele>
        <time>2018-10-21T07:41:15Z</time>
      </trkpt>
      <trkpt lat="46.01552" lon="1.24784">
        <ele>386.59</ele>
        <time>2018-10-21T07:41:16Z</time>
      </trkpt>
      <trkpt lat="46.01552" lon="1.24779">
        <ele>386.59</ele>
        <time>2018-10-21T07:41:17Z</time>
      </trkpt>
      <trkpt lat="46.01554" lon="1.24773">
        <ele>386.59</ele>
        <time>2018-10-21T07:41:18Z</time>
      </trkpt>
      <trkpt lat="46.01556" lon="1.24767">
        <ele>386.59</ele>
        <time>2018-10-21T07:41:19Z</time>
      </trkpt>
      <trkpt lat="46.01558" lon="1.24761">
        <ele>386.59</ele>
        <time>2018-10-21T07:41:20Z</time>
      </trkpt>
      <trkpt lat="46.01562" lon="1.24755">
        <ele>386.59</ele>
        <time>2018-10-21T07:41:21Z</time>
      </trkpt>
      <trkpt lat="46.01565" lon="1.2475">
        <ele>386.59</ele>
        <time>2018-10-21T07:41:22Z</time>
      </trkpt>
      <trkpt lat="46.01587" lon="1.24717">
        <ele>384.66</ele>
        <time>2018-10-21T07:41:29Z</time>
      </trkpt>
      <trkpt lat="46.01584" lon="1.24717">
        <ele>383.7</ele>
        <time>2018-10-21T07:41:32Z</time>
      </trkpt>
      <trkpt lat="46.01583" lon="1.24719">
        <ele>383.22</ele>
        <time>2018-10-21T07:41:33Z</time>
      </trkpt>
      <trkpt lat="46.01576" lon="1.24728">
        <ele>383.22</ele>
        <time>2018-10-21T07:41:36Z</time>
      </trkpt>
      <trkpt lat="46.01574" lon="1.24731">
        <ele>383.22</ele>
        <time>2018-10-21T07:41:37Z</time>
      </trkpt>
      <trkpt lat="46.01572" lon="1.24734">
        <ele>383.22</ele>
        <time>2018-10-21T07:41:38Z</time>
      </trkpt>
      <trkpt lat="46.01569" lon="1.24737">
        <ele>383.22</ele>
        <time>2018-10-21T07:41:39Z</time>
      </trkpt>
      <trkpt lat="46.01552" lon="1.24773">
        <ele>384.18</ele>
        <time>2018-10-21T07:41:49Z</time>
      </trkpt>
      <trkpt lat="46.01531" lon="1.24816">
        <ele>386.59</ele>
        <time>2018-10-21T07:42:02Z</time>
      </trkpt>
      <trkpt lat="46.01509" lon="1.24882">
        <ele>388.03</ele>
        <time>2018-10-21T07:42:14Z</time>
      </trkpt>
      <trkpt lat="46.01501" lon="1.24914">
        <ele>388.03</ele>
        <time>2018-10-21T07:42:18Z</time>
      </trkpt>
      <trkpt lat="46.01497" lon="1.24922">
        <ele>388.03</ele>
        <time>2018-10-21T07:42:19Z</time>
      </trkpt>
      <trkpt lat="46.01492" lon="1.24929">
        <ele>387.55</ele>
        <time>2018-10-21T07:42:20Z</time>
      </trkpt>
      <trkpt lat="46.01486" lon="1.24936">
        <ele>387.55</ele>
        <time>2018-10-21T07:42:21Z</time>
      </trkpt>
      <trkpt lat="46.0148" lon="1.24942">
        <ele>387.55</ele>
        <time>2018-10-21T07:42:22Z</time>
      </trkpt>
      <trkpt lat="46.01472" lon="1.24946">
        <ele>386.59</ele>
        <time>2018-10-21T07:42:23Z</time>
      </trkpt>
      <trkpt lat="46.01465" lon="1.24951">
        <ele>386.59</ele>
        <time>2018-10-21T07:42:24Z</time>
      </trkpt>
      <trkpt lat="46.01432" lon="1.24969">
        <ele>383.22</ele>
        <time>2018-10-21T07:42:28Z</time>
      </trkpt>
      <trkpt lat="46.01398" lon="1.24994">
        <ele>379.38</ele>
        <time>2018-10-21T07:42:33Z</time>
      </trkpt>
      <trkpt lat="46.01312" lon="1.25069">
        <ele>379.38</ele>
        <time>2018-10-21T07:42:48Z</time>
      </trkpt>
      <trkpt lat="46.01308" lon="1.25076">
        <ele>379.86</ele>
        <time>2018-10-21T07:42:49Z</time>
      </trkpt>
      <trkpt lat="46.01303" lon="1.25082">
        <ele>380.34</ele>
        <time>2018-10-21T07:42:50Z</time>
      </trkpt>
      <trkpt lat="46.01298" lon="1.25087">
        <ele>380.34</ele>
        <time>2018-10-21T07:42:51Z</time>
      </trkpt>
      <trkpt lat="46.01292" lon="1.25092">
        <ele>380.82</ele>
        <time>2018-10-21T07:42:52Z</time>
      </trkpt>
      <trkpt lat="46.01208" lon="1.25162">
        <ele>382.74</ele>
        <time>2018-10-21T07:43:05Z</time>
      </trkpt>
      <trkpt lat="46.01159" lon="1.25186">
        <ele>378.9</ele>
        <time>2018-10-21T07:43:11Z</time>
      </trkpt>
      <trkpt lat="46.01101" lon="1.25208">
        <ele>376.01</ele>
        <time>2018-10-21T07:43:18Z</time>
      </trkpt>
      <trkpt lat="46.0099" lon="1.25223">
        <ele>373.13</ele>
        <time>2018-10-21T07:43:32Z</time>
      </trkpt>
      <trkpt lat="46.00943" lon="1.25232">
        <ele>371.21</ele>
        <time>2018-10-21T07:43:40Z</time>
      </trkpt>
      <trkpt lat="46.00938" lon="1.25235">
        <ele>370.73</ele>
        <time>2018-10-21T07:43:41Z</time>
      </trkpt>
      <trkpt lat="46.00932" lon="1.25238">
        <ele>370.24</ele>
        <time>2018-10-21T07:43:42Z</time>
      </trkpt>
      <trkpt lat="46.0088" lon="1.25274">
        <ele>366.4</ele>
        <time>2018-10-21T07:43:49Z</time>
      </trkpt>
      <trkpt lat="46.00867" lon="1.25284">
        <ele>364</ele>
        <time>2018-10-21T07:43:51Z</time>
      </trkpt>
      <trkpt lat="46.00862" lon="1.2529">
        <ele>363.04</ele>
        <time>2018-10-21T07:43:52Z</time>
      </trkpt>
      <trkpt lat="46.00857" lon="1.25297">
        <ele>361.59</ele>
        <time>2018-10-21T07:43:53Z</time>
      </trkpt>
      <trkpt lat="46.00852" lon="1.25305">
        <ele>360.63</ele>
        <time>2018-10-21T07:43:54Z</time>
      </trkpt>
      <trkpt lat="46.00849" lon="1.25313">
        <ele>359.19</ele>
        <time>2018-10-21T07:43:55Z</time>
      </trkpt>
      <trkpt lat="46.00847" lon="1.25321">
        <ele>358.23</ele>
        <time>2018-10-21T07:43:56Z</time>
      </trkpt>
      <trkpt lat="46.00839" lon="1.25343">
        <ele>355.34</ele>
        <time>2018-10-21T07:43:59Z</time>
      </trkpt>
      <trkpt lat="46.00837" lon="1.2535">
        <ele>354.86</ele>
        <time>2018-10-21T07:44:00Z</time>
      </trkpt>
      <trkpt lat="46.00835" lon="1.25357">
        <ele>354.86</ele>
        <time>2018-10-21T07:44:01Z</time>
      </trkpt>
      <trkpt lat="46.00833" lon="1.25364">
        <ele>354.38</ele>
        <time>2018-10-21T07:44:02Z</time>
      </trkpt>
      <trkpt lat="46.0083" lon="1.2537">
        <ele>354.38</ele>
        <time>2018-10-21T07:44:03Z</time>
      </trkpt>
      <trkpt lat="46.00825" lon="1.25383">
        <ele>354.38</ele>
        <time>2018-10-21T07:44:05Z</time>
      </trkpt>
      <trkpt lat="46.00821" lon="1.25389">
        <ele>354.38</ele>
        <time>2018-10-21T07:44:06Z</time>
      </trkpt>
      <trkpt lat="46.00818" lon="1.25395">
        <ele>354.38</ele>
        <time>2018-10-21T07:44:07Z</time>
      </trkpt>
      <trkpt lat="46.0079" lon="1.2542">
        <ele>353.9</ele>
        <time>2018-10-21T07:44:13Z</time>
      </trkpt>
      <trkpt lat="46.00785" lon="1.25425">
        <ele>353.9</ele>
        <time>2018-10-21T07:44:14Z</time>
      </trkpt>
      <trkpt lat="46.00774" lon="1.25444">
        <ele>353.42</ele>
        <time>2018-10-21T07:44:17Z</time>
      </trkpt>
      <trkpt lat="46.00771" lon="1.25451">
        <ele>352.94</ele>
        <time>2018-10-21T07:44:18Z</time>
      </trkpt>
      <trkpt lat="46.00769" lon="1.25458">
        <ele>352.94</ele>
        <time>2018-10-21T07:44:19Z</time>
      </trkpt>
      <trkpt lat="46.00767" lon="1.25465">
        <ele>352.46</ele>
        <time>2018-10-21T07:44:20Z</time>
      </trkpt>
      <trkpt lat="46.00767" lon="1.25472">
        <ele>351.98</ele>
        <time>2018-10-21T07:44:21Z</time>
      </trkpt>
      <trkpt lat="46.00768" lon="1.25479">
        <ele>351.02</ele>
        <time>2018-10-21T07:44:22Z</time>
      </trkpt>
      <trkpt lat="46.0077" lon="1.25487">
        <ele>350.06</ele>
        <time>2018-10-21T07:44:23Z</time>
      </trkpt>
      <trkpt lat="46.00771" lon="1.25496">
        <ele>348.62</ele>
        <time>2018-10-21T07:44:24Z</time>
      </trkpt>
      <trkpt lat="46.00773" lon="1.25504">
        <ele>347.17</ele>
        <time>2018-10-21T07:44:25Z</time>
      </trkpt>
      <trkpt lat="46.00775" lon="1.25512">
        <ele>346.21</ele>
        <time>2018-10-21T07:44:26Z</time>
      </trkpt>
      <trkpt lat="46.00777" lon="1.25521">
        <ele>345.25</ele>
        <time>2018-10-21T07:44:27Z</time>
      </trkpt>
      <trkpt lat="46.00778" lon="1.25529">
        <ele>344.77</ele>
        <time>2018-10-21T07:44:28Z</time>
      </trkpt>
      <trkpt lat="46.00777" lon="1.25537">
        <ele>343.81</ele>
        <time>2018-10-21T07:44:29Z</time>
      </trkpt>
      <trkpt lat="46.00775" lon="1.25541">
        <ele>343.81</ele>
        <time>2018-10-21T07:44:30Z</time>
      </trkpt>
      <trkpt lat="46.00771" lon="1.25545">
        <ele>343.33</ele>
        <time>2018-10-21T07:44:31Z</time>
      </trkpt>
      <trkpt lat="46.00767" lon="1.25548">
        <ele>342.85</ele>
        <time>2018-10-21T07:44:32Z</time>
      </trkpt>
      <trkpt lat="46.00742" lon="1.25579">
        <ele>341.89</ele>
        <time>2018-10-21T07:44:39Z</time>
      </trkpt>
      <trkpt lat="46.0074" lon="1.25584">
        <ele>341.89</ele>
        <time>2018-10-21T07:44:40Z</time>
      </trkpt>
      <trkpt lat="46.00737" lon="1.25588">
        <ele>341.89</ele>
        <time>2018-10-21T07:44:41Z</time>
      </trkpt>
      <trkpt lat="46.00726" lon="1.25609">
        <ele>342.85</ele>
        <time>2018-10-21T07:44:48Z</time>
      </trkpt>
      <trkpt lat="46.00724" lon="1.2561">
        <ele>342.85</ele>
        <time>2018-10-21T07:44:49Z</time>
      </trkpt>
      <trkpt lat="46.00722" lon="1.25611">
        <ele>343.81</ele>
        <time>2018-10-21T07:44:50Z</time>
      </trkpt>
      <trkpt lat="46.0072" lon="1.25611">
        <ele>344.29</ele>
        <time>2018-10-21T07:44:51Z</time>
      </trkpt>
      <trkpt lat="46.00718" lon="1.25611">
        <ele>344.77</ele>
        <time>2018-10-21T07:44:53Z</time>
      </trkpt>
      <trkpt lat="46.00698" lon="1.25609">
        <ele>348.13</ele>
        <time>2018-10-21T07:45:05Z</time>
      </trkpt>
      <trkpt lat="46.00694" lon="1.2561">
        <ele>348.62</ele>
        <time>2018-10-21T07:45:07Z</time>
      </trkpt>
      <trkpt lat="46.00693" lon="1.25611">
        <ele>348.62</ele>
        <time>2018-10-21T07:45:08Z</time>
      </trkpt>
      <trkpt lat="46.00689" lon="1.2562">
        <ele>349.58</ele>
        <time>2018-10-21T07:45:13Z</time>
      </trkpt>
      <trkpt lat="46.00692" lon="1.25636">
        <ele>351.98</ele>
        <time>2018-10-21T07:45:22Z</time>
      </trkpt>
      <trkpt lat="46.00699" lon="1.2566">
        <ele>354.38</ele>
        <time>2018-10-21T07:45:34Z</time>
      </trkpt>
      <trkpt lat="46.00704" lon="1.25688">
        <ele>356.79</ele>
        <time>2018-10-21T07:45:44Z</time>
      </trkpt>
      <trkpt lat="46.00688" lon="1.25734">
        <ele>358.23</ele>
        <time>2018-10-21T07:45:59Z</time>
      </trkpt>
      <trkpt lat="46.00668" lon="1.25783">
        <ele>360.15</ele>
        <time>2018-10-21T07:46:14Z</time>
      </trkpt>
      <trkpt lat="46.0065" lon="1.25821">
        <ele>362.07</ele>
        <time>2018-10-21T07:46:26Z</time>
      </trkpt>
      <trkpt lat="46.0063" lon="1.25847">
        <ele>364.96</ele>
        <time>2018-10-21T07:46:37Z</time>
      </trkpt>
      <trkpt lat="46.0063" lon="1.2585">
        <ele>364.96</ele>
        <time>2018-10-21T07:46:38Z</time>
      </trkpt>
      <trkpt lat="46.00635" lon="1.2586">
        <ele>366.4</ele>
        <time>2018-10-21T07:46:43Z</time>
      </trkpt>
      <trkpt lat="46.00661" lon="1.25881">
        <ele>369.28</ele>
        <time>2018-10-21T07:46:57Z</time>
      </trkpt>
      <trkpt lat="46.00691" lon="1.25899">
        <ele>371.69</ele>
        <time>2018-10-21T07:47:12Z</time>
      </trkpt>
      <trkpt lat="46.00701" lon="1.25907">
        <ele>372.17</ele>
        <time>2018-10-21T07:47:22Z</time>
      </trkpt>
      <trkpt lat="46.00703" lon="1.25908">
        <ele>372.17</ele>
        <time>2018-10-21T07:47:23Z</time>
      </trkpt>
      <trkpt lat="46.00705" lon="1.25908">
        <ele>372.17</ele>
        <time>2018-10-21T07:47:27Z</time>
      </trkpt>
      <trkpt lat="46.00689" lon="1.259">
        <ele>372.17</ele>
        <time>2018-10-21T07:54:46Z</time>
      </trkpt>
      <trkpt lat="46.00663" lon="1.25883">
        <ele>372.17</ele>
        <time>2018-10-21T07:54:55Z</time>
      </trkpt>
      <trkpt lat="46.00635" lon="1.25862">
        <ele>370.73</ele>
        <time>2018-10-21T07:55:05Z</time>
      </trkpt>
      <trkpt lat="46.00626" lon="1.25856">
        <ele>369.76</ele>
        <time>2018-10-21T07:55:08Z</time>
      </trkpt>
      <trkpt lat="46.00623" lon="1.25856">
        <ele>369.28</ele>
        <time>2018-10-21T07:55:09Z</time>
      </trkpt>
      <trkpt lat="46.0062" lon="1.25856">
        <ele>369.28</ele>
        <time>2018-10-21T07:55:10Z</time>
      </trkpt>
      <trkpt lat="46.00617" lon="1.25855">
        <ele>368.8</ele>
        <time>2018-10-21T07:55:11Z</time>
      </trkpt>
      <trkpt lat="46.00613" lon="1.25856">
        <ele>368.8</ele>
        <time>2018-10-21T07:55:12Z</time>
      </trkpt>
      <trkpt lat="46.0061" lon="1.25856">
        <ele>368.8</ele>
        <time>2018-10-21T07:55:13Z</time>
      </trkpt>
      <trkpt lat="46.00607" lon="1.25857">
        <ele>368.32</ele>
        <time>2018-10-21T07:55:14Z</time>
      </trkpt>
      <trkpt lat="46.0057" lon="1.25867">
        <ele>366.4</ele>
        <time>2018-10-21T07:55:23Z</time>
      </trkpt>
      <trkpt lat="46.00542" lon="1.25895">
        <ele>364</ele>
        <time>2018-10-21T07:55:29Z</time>
      </trkpt>
      <trkpt lat="46.00538" lon="1.25902">
        <ele>363.52</ele>
        <time>2018-10-21T07:55:30Z</time>
      </trkpt>
      <trkpt lat="46.00534" lon="1.2591">
        <ele>363.04</ele>
        <time>2018-10-21T07:55:31Z</time>
      </trkpt>
      <trkpt lat="46.00531" lon="1.25917">
        <ele>362.55</ele>
        <time>2018-10-21T07:55:32Z</time>
      </trkpt>
      <trkpt lat="46.00529" lon="1.25923">
        <ele>360.63</ele>
        <time>2018-10-21T07:55:33Z</time>
      </trkpt>
      <trkpt lat="46.00527" lon="1.25927">
        <ele>360.15</ele>
        <time>2018-10-21T07:55:34Z</time>
      </trkpt>
      <trkpt lat="46.00518" lon="1.25946">
        <ele>358.23</ele>
        <time>2018-10-21T07:55:37Z</time>
      </trkpt>
      <trkpt lat="46.00516" lon="1.25951">
        <ele>358.23</ele>
        <time>2018-10-21T07:55:38Z</time>
      </trkpt>
      <trkpt lat="46.00513" lon="1.25955">
        <ele>358.23</ele>
        <time>2018-10-21T07:55:39Z</time>
      </trkpt>
      <trkpt lat="46.0051" lon="1.2596">
        <ele>357.75</ele>
        <time>2018-10-21T07:55:40Z</time>
      </trkpt>
      <trkpt lat="46.00507" lon="1.25965">
        <ele>357.75</ele>
        <time>2018-10-21T07:55:41Z</time>
      </trkpt>
      <trkpt lat="46.00505" lon="1.2597">
        <ele>357.75</ele>
        <time>2018-10-21T07:55:42Z</time>
      </trkpt>
      <trkpt lat="46.00501" lon="1.25975">
        <ele>357.75</ele>
        <time>2018-10-21T07:55:43Z</time>
      </trkpt>
      <trkpt lat="46.00498" lon="1.2598">
        <ele>357.27</ele>
        <time>2018-10-21T07:55:44Z</time>
      </trkpt>
      <trkpt lat="46.00494" lon="1.25983">
        <ele>356.79</ele>
        <time>2018-10-21T07:55:45Z</time>
      </trkpt>
      <trkpt lat="46.00491" lon="1.25986">
        <ele>356.79</ele>
        <time>2018-10-21T07:55:46Z</time>
      </trkpt>
      <trkpt lat="46.00455" lon="1.25998">
        <ele>355.34</ele>
        <time>2018-10-21T07:55:56Z</time>
      </trkpt>
      <trkpt lat="46.00419" lon="1.25999">
        <ele>356.31</ele>
        <time>2018-10-21T07:56:07Z</time>
      </trkpt>
      <trkpt lat="46.00392" lon="1.26011">
        <ele>358.23</ele>
        <time>2018-10-21T07:56:15Z</time>
      </trkpt>
      <trkpt lat="46.00363" lon="1.26041">
        <ele>358.71</ele>
        <time>2018-10-21T07:56:21Z</time>
      </trkpt>
      <trkpt lat="46.00359" lon="1.26048">
        <ele>358.71</ele>
        <time>2018-10-21T07:56:22Z</time>
      </trkpt>
      <trkpt lat="46.00354" lon="1.26055">
        <ele>358.71</ele>
        <time>2018-10-21T07:56:23Z</time>
      </trkpt>
      <trkpt lat="46.00348" lon="1.26061">
        <ele>358.23</ele>
        <time>2018-10-21T07:56:24Z</time>
      </trkpt>
      <trkpt lat="46.00342" lon="1.26068">
        <ele>358.23</ele>
        <time>2018-10-21T07:56:25Z</time>
      </trkpt>
      <trkpt lat="46.00337" lon="1.26076">
        <ele>357.75</ele>
        <time>2018-10-21T07:56:26Z</time>
      </trkpt>
      <trkpt lat="46.00332" lon="1.26086">
        <ele>357.27</ele>
        <time>2018-10-21T07:56:27Z</time>
      </trkpt>
      <trkpt lat="46.00328" lon="1.26096">
        <ele>356.79</ele>
        <time>2018-10-21T07:56:28Z</time>
      </trkpt>
      <trkpt lat="46.00322" lon="1.26105">
        <ele>355.83</ele>
        <time>2018-10-21T07:56:29Z</time>
      </trkpt>
      <trkpt lat="46.00315" lon="1.26113">
        <ele>354.86</ele>
        <time>2018-10-21T07:56:30Z</time>
      </trkpt>
      <trkpt lat="46.00308" lon="1.26119">
        <ele>353.9</ele>
        <time>2018-10-21T07:56:31Z</time>
      </trkpt>
      <trkpt lat="46.00299" lon="1.26123">
        <ele>353.42</ele>
        <time>2018-10-21T07:56:32Z</time>
      </trkpt>
      <trkpt lat="46.00289" lon="1.26123">
        <ele>352.94</ele>
        <time>2018-10-21T07:56:33Z</time>
      </trkpt>
      <trkpt lat="46.0028" lon="1.26122">
        <ele>352.46</ele>
        <time>2018-10-21T07:56:34Z</time>
      </trkpt>
      <trkpt lat="46.00271" lon="1.26119">
        <ele>351.5</ele>
        <time>2018-10-21T07:56:35Z</time>
      </trkpt>
      <trkpt lat="46.00263" lon="1.26116">
        <ele>351.02</ele>
        <time>2018-10-21T07:56:36Z</time>
      </trkpt>
      <trkpt lat="46.00219" lon="1.26103">
        <ele>347.65</ele>
        <time>2018-10-21T07:56:41Z</time>
      </trkpt>
      <trkpt lat="46.00194" lon="1.26099">
        <ele>346.69</ele>
        <time>2018-10-21T07:56:44Z</time>
      </trkpt>
      <trkpt lat="46.00186" lon="1.26101">
        <ele>346.21</ele>
        <time>2018-10-21T07:56:45Z</time>
      </trkpt>
      <trkpt lat="46.00178" lon="1.26105">
        <ele>345.73</ele>
        <time>2018-10-21T07:56:46Z</time>
      </trkpt>
      <trkpt lat="46.00171" lon="1.26111">
        <ele>345.73</ele>
        <time>2018-10-21T07:56:47Z</time>
      </trkpt>
      <trkpt lat="46.00165" lon="1.26118">
        <ele>345.25</ele>
        <time>2018-10-21T07:56:48Z</time>
      </trkpt>
      <trkpt lat="46.00159" lon="1.26125">
        <ele>344.77</ele>
        <time>2018-10-21T07:56:49Z</time>
      </trkpt>
      <trkpt lat="46.00152" lon="1.26131">
        <ele>344.29</ele>
        <time>2018-10-21T07:56:50Z</time>
      </trkpt>
      <trkpt lat="46.00145" lon="1.26136">
        <ele>344.29</ele>
        <time>2018-10-21T07:56:51Z</time>
      </trkpt>
      <trkpt lat="46.00137" lon="1.2614">
        <ele>343.81</ele>
        <time>2018-10-21T07:56:52Z</time>
      </trkpt>
      <trkpt lat="46.00129" lon="1.26143">
        <ele>343.81</ele>
        <time>2018-10-21T07:56:53Z</time>
      </trkpt>
      <trkpt lat="46.00121" lon="1.26145">
        <ele>343.81</ele>
        <time>2018-10-21T07:56:54Z</time>
      </trkpt>
      <trkpt lat="46.00105" lon="1.26151">
        <ele>343.33</ele>
        <time>2018-10-21T07:56:56Z</time>
      </trkpt>
      <trkpt lat="46.00098" lon="1.26156">
        <ele>342.85</ele>
        <time>2018-10-21T07:56:57Z</time>
      </trkpt>
      <trkpt lat="46.00085" lon="1.26164">
        <ele>342.37</ele>
        <time>2018-10-21T07:56:59Z</time>
      </trkpt>
      <trkpt lat="46.00079" lon="1.26165">
        <ele>342.37</ele>
        <time>2018-10-21T07:57:00Z</time>
      </trkpt>
      <trkpt lat="46.00073" lon="1.26163">
        <ele>342.37</ele>
        <time>2018-10-21T07:57:01Z</time>
      </trkpt>
      <trkpt lat="46.00069" lon="1.2616">
        <ele>342.37</ele>
        <time>2018-10-21T07:57:02Z</time>
      </trkpt>
      <trkpt lat="46.00065" lon="1.26155">
        <ele>342.37</ele>
        <time>2018-10-21T07:57:03Z</time>
      </trkpt>
      <trkpt lat="46.00061" lon="1.26151">
        <ele>342.37</ele>
        <time>2018-10-21T07:57:04Z</time>
      </trkpt>
      <trkpt lat="46.00058" lon="1.26146">
        <ele>342.37</ele>
        <time>2018-10-21T07:57:05Z</time>
      </trkpt>
      <trkpt lat="46.00054" lon="1.26142">
        <ele>342.37</ele>
        <time>2018-10-21T07:57:06Z</time>
      </trkpt>
      <trkpt lat="46.0005" lon="1.26138">
        <ele>342.37</ele>
        <time>2018-10-21T07:57:07Z</time>
      </trkpt>
      <trkpt lat="46.00031" lon="1.26117">
        <ele>342.37</ele>
        <time>2018-10-21T07:57:12Z</time>
      </trkpt>
      <trkpt lat="45.99998" lon="1.26086">
        <ele>342.37</ele>
        <time>2018-10-21T07:57:19Z</time>
      </trkpt>
      <trkpt lat="45.99993" lon="1.26082">
        <ele>342.37</ele>
        <time>2018-10-21T07:57:20Z</time>
      </trkpt>
      <trkpt lat="45.99989" lon="1.26078">
        <ele>342.37</ele>
        <time>2018-10-21T07:57:21Z</time>
      </trkpt>
      <trkpt lat="45.99971" lon="1.26063">
        <ele>342.37</ele>
        <time>2018-10-21T07:57:25Z</time>
      </trkpt>
      <trkpt lat="45.99967" lon="1.26059">
        <ele>342.37</ele>
        <time>2018-10-21T07:57:26Z</time>
      </trkpt>
      <trkpt lat="45.99954" lon="1.26046">
        <ele>342.37</ele>
        <time>2018-10-21T07:57:29Z</time>
      </trkpt>
      <trkpt lat="45.99909" lon="1.26018">
        <ele>344.77</ele>
        <time>2018-10-21T07:57:40Z</time>
      </trkpt>
      <trkpt lat="45.99876" lon="1.26019">
        <ele>346.21</ele>
        <time>2018-10-21T07:57:49Z</time>
      </trkpt>
      <trkpt lat="45.99837" lon="1.26027">
        <ele>348.13</ele>
        <time>2018-10-21T07:58:00Z</time>
      </trkpt>
      <trkpt lat="45.99812" lon="1.26034">
        <ele>350.06</ele>
        <time>2018-10-21T07:58:07Z</time>
      </trkpt>
      <trkpt lat="45.99809" lon="1.26036">
        <ele>350.06</ele>
        <time>2018-10-21T07:58:08Z</time>
      </trkpt>
      <trkpt lat="45.9978" lon="1.26073">
        <ele>352.94</ele>
        <time>2018-10-21T07:58:21Z</time>
      </trkpt>
      <trkpt lat="45.99753" lon="1.26112">
        <ele>355.34</ele>
        <time>2018-10-21T07:58:37Z</time>
      </trkpt>
      <trkpt lat="45.99719" lon="1.26164">
        <ele>358.23</ele>
        <time>2018-10-21T07:58:57Z</time>
      </trkpt>
      <trkpt lat="45.99692" lon="1.26203">
        <ele>359.19</ele>
        <time>2018-10-21T07:59:11Z</time>
      </trkpt>
      <trkpt lat="45.99651" lon="1.2624">
        <ele>360.63</ele>
        <time>2018-10-21T07:59:26Z</time>
      </trkpt>
      <trkpt lat="45.99615" lon="1.26287">
        <ele>361.59</ele>
        <time>2018-10-21T07:59:42Z</time>
      </trkpt>
      <trkpt lat="45.99608" lon="1.26295">
        <ele>362.55</ele>
        <time>2018-10-21T07:59:47Z</time>
      </trkpt>
      <trkpt lat="45.99608" lon="1.26297">
        <ele>362.55</ele>
        <time>2018-10-21T07:59:48Z</time>
      </trkpt>
      <trkpt lat="45.99609" lon="1.26299">
        <ele>363.04</ele>
        <time>2018-10-21T07:59:49Z</time>
      </trkpt>
      <trkpt lat="45.99611" lon="1.26295">
        <ele>363.04</ele>
        <time>2018-10-21T07:59:51Z</time>
      </trkpt>
      <trkpt lat="45.9961" lon="1.26291">
        <ele>363.04</ele>
        <time>2018-10-21T07:59:52Z</time>
      </trkpt>
      <trkpt lat="45.99608" lon="1.26288">
        <ele>363.04</ele>
        <time>2018-10-21T07:59:53Z</time>
      </trkpt>
      <trkpt lat="45.99605" lon="1.26285">
        <ele>363.04</ele>
        <time>2018-10-21T07:59:54Z</time>
      </trkpt>
      <trkpt lat="45.99591" lon="1.26273">
        <ele>363.04</ele>
        <time>2018-10-21T07:59:58Z</time>
      </trkpt>
      <trkpt lat="45.99555" lon="1.26238">
        <ele>363.04</ele>
        <time>2018-10-21T08:00:09Z</time>
      </trkpt>
      <trkpt lat="45.99521" lon="1.26266">
        <ele>361.11</ele>
        <time>2018-10-21T08:00:21Z</time>
      </trkpt>
      <trkpt lat="45.99515" lon="1.26265">
        <ele>361.11</ele>
        <time>2018-10-21T08:00:23Z</time>
      </trkpt>
      <trkpt lat="45.99512" lon="1.2626">
        <ele>361.11</ele>
        <time>2018-10-21T08:00:24Z</time>
      </trkpt>
      <trkpt lat="45.9951" lon="1.26254">
        <ele>361.11</ele>
        <time>2018-10-21T08:00:25Z</time>
      </trkpt>
      <trkpt lat="45.99508" lon="1.26247">
        <ele>361.11</ele>
        <time>2018-10-21T08:00:26Z</time>
      </trkpt>
      <trkpt lat="45.99506" lon="1.26239">
        <ele>361.11</ele>
        <time>2018-10-21T08:00:27Z</time>
      </trkpt>
      <trkpt lat="45.99499" lon="1.26218">
        <ele>360.63</ele>
        <time>2018-10-21T08:00:30Z</time>
      </trkpt>
      <trkpt lat="45.99496" lon="1.26214">
        <ele>360.63</ele>
        <time>2018-10-21T08:00:31Z</time>
      </trkpt>
      <trkpt lat="45.99492" lon="1.26211">
        <ele>360.63</ele>
        <time>2018-10-21T08:00:32Z</time>
      </trkpt>
      <trkpt lat="45.99487" lon="1.26211">
        <ele>360.63</ele>
        <time>2018-10-21T08:00:33Z</time>
      </trkpt>
      <trkpt lat="45.99482" lon="1.26213">
        <ele>360.15</ele>
        <time>2018-10-21T08:00:34Z</time>
      </trkpt>
      <trkpt lat="45.99477" lon="1.26215">
        <ele>359.19</ele>
        <time>2018-10-21T08:00:35Z</time>
      </trkpt>
      <trkpt lat="45.99466" lon="1.2622">
        <ele>358.23</ele>
        <time>2018-10-21T08:00:37Z</time>
      </trkpt>
      <trkpt lat="45.9946" lon="1.26224">
        <ele>358.23</ele>
        <time>2018-10-21T08:00:38Z</time>
      </trkpt>
      <trkpt lat="45.99455" lon="1.26228">
        <ele>357.75</ele>
        <time>2018-10-21T08:00:39Z</time>
      </trkpt>
      <trkpt lat="45.99451" lon="1.26233">
        <ele>357.75</ele>
        <time>2018-10-21T08:00:40Z</time>
      </trkpt>
      <trkpt lat="45.99448" lon="1.26239">
        <ele>357.75</ele>
        <time>2018-10-21T08:00:41Z</time>
      </trkpt>
      <trkpt lat="45.99446" lon="1.26246">
        <ele>357.27</ele>
        <time>2018-10-21T08:00:42Z</time>
      </trkpt>
      <trkpt lat="45.99446" lon="1.26252">
        <ele>357.27</ele>
        <time>2018-10-21T08:00:43Z</time>
      </trkpt>
      <trkpt lat="45.99445" lon="1.26255">
        <ele>357.27</ele>
        <time>2018-10-21T08:00:44Z</time>
      </trkpt>
      <trkpt lat="45.99442" lon="1.26256">
        <ele>356.79</ele>
        <time>2018-10-21T08:00:45Z</time>
      </trkpt>
      <trkpt lat="45.9944" lon="1.26255">
        <ele>356.79</ele>
        <time>2018-10-21T08:00:46Z</time>
      </trkpt>
      <trkpt lat="45.99438" lon="1.26251">
        <ele>356.79</ele>
        <time>2018-10-21T08:00:47Z</time>
      </trkpt>
      <trkpt lat="45.99437" lon="1.26247">
        <ele>356.79</ele>
        <time>2018-10-21T08:00:48Z</time>
      </trkpt>
      <trkpt lat="45.99437" lon="1.26241">
        <ele>356.79</ele>
        <time>2018-10-21T08:00:49Z</time>
      </trkpt>
      <trkpt lat="45.99437" lon="1.26234">
        <ele>356.79</ele>
        <time>2018-10-21T08:00:50Z</time>
      </trkpt>
      <trkpt lat="45.99438" lon="1.26227">
        <ele>356.79</ele>
        <time>2018-10-21T08:00:51Z</time>
      </trkpt>
      <trkpt lat="45.99439" lon="1.26218">
        <ele>356.79</ele>
        <time>2018-10-21T08:00:52Z</time>
      </trkpt>
      <trkpt lat="45.9945" lon="1.26164">
        <ele>355.83</ele>
        <time>2018-10-21T08:00:57Z</time>
      </trkpt>
      <trkpt lat="45.99452" lon="1.26152">
        <ele>355.34</ele>
        <time>2018-10-21T08:00:58Z</time>
      </trkpt>
      <trkpt lat="45.99453" lon="1.26129">
        <ele>353.9</ele>
        <time>2018-10-21T08:01:00Z</time>
      </trkpt>
      <trkpt lat="45.99452" lon="1.26118">
        <ele>351.5</ele>
        <time>2018-10-21T08:01:01Z</time>
      </trkpt>
      <trkpt lat="45.99449" lon="1.26086">
        <ele>348.13</ele>
        <time>2018-10-21T08:01:04Z</time>
      </trkpt>
      <trkpt lat="45.99447" lon="1.26076">
        <ele>347.17</ele>
        <time>2018-10-21T08:01:05Z</time>
      </trkpt>
      <trkpt lat="45.99442" lon="1.26056">
        <ele>346.21</ele>
        <time>2018-10-21T08:01:07Z</time>
      </trkpt>
      <trkpt lat="45.99433" lon="1.2603">
        <ele>344.77</ele>
        <time>2018-10-21T08:01:10Z</time>
      </trkpt>
      <trkpt lat="45.99424" lon="1.26006">
        <ele>344.29</ele>
        <time>2018-10-21T08:01:13Z</time>
      </trkpt>
      <trkpt lat="45.99419" lon="1.25991">
        <ele>343.81</ele>
        <time>2018-10-21T08:01:15Z</time>
      </trkpt>
      <trkpt lat="45.99414" lon="1.25977">
        <ele>343.81</ele>
        <time>2018-10-21T08:01:17Z</time>
      </trkpt>
      <trkpt lat="45.99411" lon="1.25971">
        <ele>343.81</ele>
        <time>2018-10-21T08:01:18Z</time>
      </trkpt>
      <trkpt lat="45.99407" lon="1.25967">
        <ele>343.81</ele>
        <time>2018-10-21T08:01:19Z</time>
      </trkpt>
      <trkpt lat="45.99404" lon="1.25965">
        <ele>343.81</ele>
        <time>2018-10-21T08:01:20Z</time>
      </trkpt>
      <trkpt lat="45.99401" lon="1.25965">
        <ele>343.81</ele>
        <time>2018-10-21T08:01:21Z</time>
      </trkpt>
      <trkpt lat="45.99396" lon="1.25966">
        <ele>344.29</ele>
        <time>2018-10-21T08:01:22Z</time>
      </trkpt>
      <trkpt lat="45.99392" lon="1.25966">
        <ele>344.29</ele>
        <time>2018-10-21T08:01:23Z</time>
      </trkpt>
      <trkpt lat="45.99388" lon="1.25966">
        <ele>344.29</ele>
        <time>2018-10-21T08:01:24Z</time>
      </trkpt>
      <trkpt lat="45.99382" lon="1.25966">
        <ele>344.29</ele>
        <time>2018-10-21T08:01:25Z</time>
      </trkpt>
      <trkpt lat="45.99363" lon="1.2597">
        <ele>344.77</ele>
        <time>2018-10-21T08:01:29Z</time>
      </trkpt>
      <trkpt lat="45.99352" lon="1.25971">
        <ele>345.25</ele>
        <time>2018-10-21T08:01:32Z</time>
      </trkpt>
      <trkpt lat="45.99347" lon="1.25973">
        <ele>345.25</ele>
        <time>2018-10-21T08:01:33Z</time>
      </trkpt>
      <trkpt lat="45.99305" lon="1.25987">
        <ele>346.21</ele>
        <time>2018-10-21T08:01:42Z</time>
      </trkpt>
      <trkpt lat="45.993" lon="1.25988">
        <ele>346.21</ele>
        <time>2018-10-21T08:01:43Z</time>
      </trkpt>
      <trkpt lat="45.99255" lon="1.25988">
        <ele>345.73</ele>
        <time>2018-10-21T08:01:51Z</time>
      </trkpt>
      <trkpt lat="45.9925" lon="1.25987">
        <ele>345.73</ele>
        <time>2018-10-21T08:01:52Z</time>
      </trkpt>
      <trkpt lat="45.99246" lon="1.25985">
        <ele>345.73</ele>
        <time>2018-10-21T08:01:53Z</time>
      </trkpt>
      <trkpt lat="45.99218" lon="1.25969">
        <ele>345.73</ele>
        <time>2018-10-21T08:02:01Z</time>
      </trkpt>
      <trkpt lat="45.99213" lon="1.25969">
        <ele>346.21</ele>
        <time>2018-10-21T08:02:02Z</time>
      </trkpt>
      <trkpt lat="45.99209" lon="1.25967">
        <ele>346.21</ele>
        <time>2018-10-21T08:02:03Z</time>
      </trkpt>
      <trkpt lat="45.99205" lon="1.25966">
        <ele>346.21</ele>
        <time>2018-10-21T08:02:04Z</time>
      </trkpt>
      <trkpt lat="45.99201" lon="1.25965">
        <ele>346.21</ele>
        <time>2018-10-21T08:02:05Z</time>
      </trkpt>
      <trkpt lat="45.99197" lon="1.25964">
        <ele>346.69</ele>
        <time>2018-10-21T08:02:06Z</time>
      </trkpt>
      <trkpt lat="45.99194" lon="1.25962">
        <ele>347.17</ele>
        <time>2018-10-21T08:02:07Z</time>
      </trkpt>
      <trkpt lat="45.99166" lon="1.25959">
        <ele>350.06</ele>
        <time>2018-10-21T08:02:17Z</time>
      </trkpt>
      <trkpt lat="45.9914" lon="1.25954">
        <ele>351.98</ele>
        <time>2018-10-21T08:02:27Z</time>
      </trkpt>
      <trkpt lat="45.99136" lon="1.25952">
        <ele>351.98</ele>
        <time>2018-10-21T08:02:29Z</time>
      </trkpt>
      <trkpt lat="45.99134" lon="1.25951">
        <ele>352.46</ele>
        <time>2018-10-21T08:02:30Z</time>
      </trkpt>
      <trkpt lat="45.99132" lon="1.2595">
        <ele>352.46</ele>
        <time>2018-10-21T08:02:31Z</time>
      </trkpt>
      <trkpt lat="45.9913" lon="1.25949">
        <ele>352.46</ele>
        <time>2018-10-21T08:02:32Z</time>
      </trkpt>
      <trkpt lat="45.99128" lon="1.25947">
        <ele>352.46</ele>
        <time>2018-10-21T08:02:33Z</time>
      </trkpt>
      <trkpt lat="45.99126" lon="1.25945">
        <ele>352.46</ele>
        <time>2018-10-21T08:02:34Z</time>
      </trkpt>
      <trkpt lat="45.99124" lon="1.25943">
        <ele>352.94</ele>
        <time>2018-10-21T08:02:35Z</time>
      </trkpt>
      <trkpt lat="45.99122" lon="1.25942">
        <ele>352.94</ele>
        <time>2018-10-21T08:02:36Z</time>
      </trkpt>
      <trkpt lat="45.9912" lon="1.25939">
        <ele>353.42</ele>
        <time>2018-10-21T08:02:37Z</time>
      </trkpt>
      <trkpt lat="45.99118" lon="1.25937">
        <ele>353.42</ele>
        <time>2018-10-21T08:02:38Z</time>
      </trkpt>
      <trkpt lat="45.99116" lon="1.25935">
        <ele>353.42</ele>
        <time>2018-10-21T08:02:39Z</time>
      </trkpt>
      <trkpt lat="45.99095" lon="1.2591">
        <ele>354.38</ele>
        <time>2018-10-21T08:02:50Z</time>
      </trkpt>
      <trkpt lat="45.99081" lon="1.25887">
        <ele>355.34</ele>
        <time>2018-10-21T08:03:00Z</time>
      </trkpt>
      <trkpt lat="45.99066" lon="1.25865">
        <ele>356.31</ele>
        <time>2018-10-21T08:03:10Z</time>
      </trkpt>
      <trkpt lat="45.99057" lon="1.25852">
        <ele>356.79</ele>
        <time>2018-10-21T08:03:18Z</time>
      </trkpt>
      <trkpt lat="45.99056" lon="1.2585">
        <ele>356.79</ele>
        <time>2018-10-21T08:03:19Z</time>
      </trkpt>
      <trkpt lat="45.99053" lon="1.25842">
        <ele>357.27</ele>
        <time>2018-10-21T08:03:23Z</time>
      </trkpt>
      <trkpt lat="45.99043" lon="1.25827">
        <ele>357.75</ele>
        <time>2018-10-21T08:03:32Z</time>
      </trkpt>
      <trkpt lat="45.99029" lon="1.25803">
        <ele>359.19</ele>
        <time>2018-10-21T08:03:45Z</time>
      </trkpt>
      <trkpt lat="45.9901" lon="1.25782">
        <ele>360.15</ele>
        <time>2018-10-21T08:03:58Z</time>
      </trkpt>
      <trkpt lat="45.98994" lon="1.25765">
        <ele>361.11</ele>
        <time>2018-10-21T08:04:11Z</time>
      </trkpt>
      <trkpt lat="45.9897" lon="1.25738">
        <ele>363.04</ele>
        <time>2018-10-21T08:04:24Z</time>
      </trkpt>
      <trkpt lat="45.98961" lon="1.25731">
        <ele>363.04</ele>
        <time>2018-10-21T08:04:27Z</time>
      </trkpt>
      <trkpt lat="45.98956" lon="1.25729">
        <ele>364</ele>
        <time>2018-10-21T08:04:32Z</time>
      </trkpt>
      <trkpt lat="45.98946" lon="1.25715">
        <ele>364.96</ele>
        <time>2018-10-21T08:05:27Z</time>
      </trkpt>
      <trkpt lat="45.98941" lon="1.25714">
        <ele>364.96</ele>
        <time>2018-10-21T08:05:28Z</time>
      </trkpt>
      <trkpt lat="45.98937" lon="1.25713">
        <ele>364.96</ele>
        <time>2018-10-21T08:05:29Z</time>
      </trkpt>
      <trkpt lat="45.98932" lon="1.25714">
        <ele>364.96</ele>
        <time>2018-10-21T08:05:30Z</time>
      </trkpt>
      <trkpt lat="45.98926" lon="1.25715">
        <ele>364.96</ele>
        <time>2018-10-21T08:05:31Z</time>
      </trkpt>
      <trkpt lat="45.98907" lon="1.25717">
        <ele>364.96</ele>
        <time>2018-10-21T08:05:34Z</time>
      </trkpt>
      <trkpt lat="45.989" lon="1.2572">
        <ele>364.96</ele>
        <time>2018-10-21T08:05:35Z</time>
      </trkpt>
      <trkpt lat="45.98879" lon="1.25729">
        <ele>364.96</ele>
        <time>2018-10-21T08:05:38Z</time>
      </trkpt>
      <trkpt lat="45.98872" lon="1.25731">
        <ele>364.96</ele>
        <time>2018-10-21T08:05:39Z</time>
      </trkpt>
      <trkpt lat="45.98825" lon="1.2573">
        <ele>361.59</ele>
        <time>2018-10-21T08:05:46Z</time>
      </trkpt>
      <trkpt lat="45.98818" lon="1.25731">
        <ele>361.11</ele>
        <time>2018-10-21T08:05:48Z</time>
      </trkpt>
      <trkpt lat="45.98809" lon="1.25741">
        <ele>360.15</ele>
        <time>2018-10-21T08:05:53Z</time>
      </trkpt>
      <trkpt lat="45.98808" lon="1.25743">
        <ele>359.67</ele>
        <time>2018-10-21T08:05:54Z</time>
      </trkpt>
      <trkpt lat="45.98807" lon="1.25758">
        <ele>360.15</ele>
        <time>2018-10-21T08:06:06Z</time>
      </trkpt>
      <trkpt lat="45.98807" lon="1.25755">
        <ele>360.15</ele>
        <time>2018-10-21T08:06:07Z</time>
      </trkpt>
      <trkpt lat="45.98817" lon="1.25735">
        <ele>360.15</ele>
        <time>2018-10-21T08:06:15Z</time>
      </trkpt>
      <trkpt lat="45.9882" lon="1.25734">
        <ele>360.15</ele>
        <time>2018-10-21T08:06:16Z</time>
      </trkpt>
      <trkpt lat="45.98823" lon="1.25733">
        <ele>360.15</ele>
        <time>2018-10-21T08:06:17Z</time>
      </trkpt>
      <trkpt lat="45.98825" lon="1.25733">
        <ele>360.15</ele>
        <time>2018-10-21T08:06:18Z</time>
      </trkpt>
      <trkpt lat="45.98827" lon="1.25733">
        <ele>360.15</ele>
        <time>2018-10-21T08:06:19Z</time>
      </trkpt>
      <trkpt lat="45.9883" lon="1.25734">
        <ele>360.15</ele>
        <time>2018-10-21T08:06:20Z</time>
      </trkpt>
      <trkpt lat="45.9887" lon="1.25734">
        <ele>361.11</ele>
        <time>2018-10-21T08:06:34Z</time>
      </trkpt>
      <trkpt lat="45.98905" lon="1.25717">
        <ele>363.04</ele>
        <time>2018-10-21T08:06:47Z</time>
      </trkpt>
      <trkpt lat="45.98927" lon="1.25693">
        <ele>364.48</ele>
        <time>2018-10-21T08:06:56Z</time>
      </trkpt>
      <trkpt lat="45.98929" lon="1.2569">
        <ele>364.48</ele>
        <time>2018-10-21T08:06:57Z</time>
      </trkpt>
      <trkpt lat="45.98937" lon="1.25677">
        <ele>365.44</ele>
        <time>2018-10-21T08:07:03Z</time>
      </trkpt>
      <trkpt lat="45.9895" lon="1.25646">
        <ele>367.84</ele>
        <time>2018-10-21T08:07:14Z</time>
      </trkpt>
      <trkpt lat="45.98946" lon="1.25602">
        <ele>370.24</ele>
        <time>2018-10-21T08:07:25Z</time>
      </trkpt>
      <trkpt lat="45.98929" lon="1.25561">
        <ele>372.65</ele>
        <time>2018-10-21T08:07:36Z</time>
      </trkpt>
      <trkpt lat="45.98926" lon="1.25551">
        <ele>372.65</ele>
        <time>2018-10-21T08:07:38Z</time>
      </trkpt>
      <trkpt lat="45.98926" lon="1.25544">
        <ele>372.65</ele>
        <time>2018-10-21T08:07:39Z</time>
      </trkpt>
      <trkpt lat="45.98926" lon="1.25539">
        <ele>372.65</ele>
        <time>2018-10-21T08:07:40Z</time>
      </trkpt>
      <trkpt lat="45.98925" lon="1.25516">
        <ele>372.65</ele>
        <time>2018-10-21T08:07:44Z</time>
      </trkpt>
      <trkpt lat="45.98924" lon="1.25509">
        <ele>372.65</ele>
        <time>2018-10-21T08:07:45Z</time>
      </trkpt>
      <trkpt lat="45.9892" lon="1.25483">
        <ele>371.69</ele>
        <time>2018-10-21T08:07:49Z</time>
      </trkpt>
      <trkpt lat="45.98914" lon="1.25452">
        <ele>371.69</ele>
        <time>2018-10-21T08:07:55Z</time>
      </trkpt>
      <trkpt lat="45.9891" lon="1.25449">
        <ele>371.69</ele>
        <time>2018-10-21T08:07:56Z</time>
      </trkpt>
      <trkpt lat="45.98906" lon="1.25447">
        <ele>371.69</ele>
        <time>2018-10-21T08:07:57Z</time>
      </trkpt>
      <trkpt lat="45.98902" lon="1.25447">
        <ele>371.69</ele>
        <time>2018-10-21T08:07:58Z</time>
      </trkpt>
      <trkpt lat="45.98898" lon="1.25447">
        <ele>371.69</ele>
        <time>2018-10-21T08:07:59Z</time>
      </trkpt>
      <trkpt lat="45.9886" lon="1.25449">
        <ele>373.61</ele>
        <time>2018-10-21T08:08:11Z</time>
      </trkpt>
      <trkpt lat="45.98844" lon="1.25447">
        <ele>374.57</ele>
        <time>2018-10-21T08:08:17Z</time>
      </trkpt>
      <trkpt lat="45.98842" lon="1.25446">
        <ele>375.05</ele>
        <time>2018-10-21T08:08:18Z</time>
      </trkpt>
      <trkpt lat="45.98817" lon="1.2543">
        <ele>377.94</ele>
        <time>2018-10-21T08:08:28Z</time>
      </trkpt>
      <trkpt lat="45.988" lon="1.25392">
        <ele>380.82</ele>
        <time>2018-10-21T08:08:40Z</time>
      </trkpt>
      <trkpt lat="45.98773" lon="1.25366">
        <ele>383.22</ele>
        <time>2018-10-21T08:08:51Z</time>
      </trkpt>
      <trkpt lat="45.98731" lon="1.25332">
        <ele>384.18</ele>
        <time>2018-10-21T08:09:03Z</time>
      </trkpt>
      <trkpt lat="45.98671" lon="1.25327">
        <ele>385.63</ele>
        <time>2018-10-21T08:09:19Z</time>
      </trkpt>
      <trkpt lat="45.98638" lon="1.25311">
        <ele>387.55</ele>
        <time>2018-10-21T08:09:30Z</time>
      </trkpt>
      <trkpt lat="45.9862" lon="1.25297">
        <ele>388.51</ele>
        <time>2018-10-21T08:09:36Z</time>
      </trkpt>
      <trkpt lat="45.98616" lon="1.25295">
        <ele>388.51</ele>
        <time>2018-10-21T08:09:37Z</time>
      </trkpt>
      <trkpt lat="45.98594" lon="1.25281">
        <ele>388.51</ele>
        <time>2018-10-21T08:09:42Z</time>
      </trkpt>
      <trkpt lat="45.9859" lon="1.25279">
        <ele>388.51</ele>
        <time>2018-10-21T08:09:43Z</time>
      </trkpt>
      <trkpt lat="45.98585" lon="1.25278">
        <ele>388.51</ele>
        <time>2018-10-21T08:09:44Z</time>
      </trkpt>
      <trkpt lat="45.98581" lon="1.25278">
        <ele>388.99</ele>
        <time>2018-10-21T08:09:45Z</time>
      </trkpt>
      <trkpt lat="45.98576" lon="1.25278">
        <ele>388.99</ele>
        <time>2018-10-21T08:09:46Z</time>
      </trkpt>
      <trkpt lat="45.98571" lon="1.25278">
        <ele>388.99</ele>
        <time>2018-10-21T08:09:47Z</time>
      </trkpt>
      <trkpt lat="45.98567" lon="1.2528">
        <ele>388.99</ele>
        <time>2018-10-21T08:09:48Z</time>
      </trkpt>
      <trkpt lat="45.98563" lon="1.25282">
        <ele>388.99</ele>
        <time>2018-10-21T08:09:49Z</time>
      </trkpt>
      <trkpt lat="45.98559" lon="1.25284">
        <ele>388.99</ele>
        <time>2018-10-21T08:09:50Z</time>
      </trkpt>
      <trkpt lat="45.98502" lon="1.25301">
        <ele>389.47</ele>
        <time>2018-10-21T08:10:06Z</time>
      </trkpt>
      <trkpt lat="45.98462" lon="1.25292">
        <ele>390.91</ele>
        <time>2018-10-21T08:10:19Z</time>
      </trkpt>
      <trkpt lat="45.98427" lon="1.25289">
        <ele>393.32</ele>
        <time>2018-10-21T08:10:31Z</time>
      </trkpt>
      <trkpt lat="45.98397" lon="1.25313">
        <ele>396.68</ele>
        <time>2018-10-21T08:10:42Z</time>
      </trkpt>
      <trkpt lat="45.98394" lon="1.25316">
        <ele>396.68</ele>
        <time>2018-10-21T08:10:43Z</time>
      </trkpt>
      <trkpt lat="45.98369" lon="1.25334">
        <ele>397.16</ele>
        <time>2018-10-21T08:10:49Z</time>
      </trkpt>
      <trkpt lat="45.98364" lon="1.25337">
        <ele>397.16</ele>
        <time>2018-10-21T08:10:50Z</time>
      </trkpt>
      <trkpt lat="45.98359" lon="1.25339">
        <ele>397.16</ele>
        <time>2018-10-21T08:10:51Z</time>
      </trkpt>
      <trkpt lat="45.98354" lon="1.25339">
        <ele>396.68</ele>
        <time>2018-10-21T08:10:52Z</time>
      </trkpt>
      <trkpt lat="45.98349" lon="1.25339">
        <ele>396.68</ele>
        <time>2018-10-21T08:10:53Z</time>
      </trkpt>
      <trkpt lat="45.98344" lon="1.25338">
        <ele>396.2</ele>
        <time>2018-10-21T08:10:54Z</time>
      </trkpt>
      <trkpt lat="45.98339" lon="1.25337">
        <ele>396.2</ele>
        <time>2018-10-21T08:10:55Z</time>
      </trkpt>
      <trkpt lat="45.98334" lon="1.25335">
        <ele>396.2</ele>
        <time>2018-10-21T08:10:56Z</time>
      </trkpt>
      <trkpt lat="45.98315" lon="1.2533">
        <ele>395.24</ele>
        <time>2018-10-21T08:11:00Z</time>
      </trkpt>
      <trkpt lat="45.9829" lon="1.25325">
        <ele>393.8</ele>
        <time>2018-10-21T08:11:08Z</time>
      </trkpt>
      <trkpt lat="45.98289" lon="1.2533">
        <ele>393.32</ele>
        <time>2018-10-21T08:11:10Z</time>
      </trkpt>
      <trkpt lat="45.98291" lon="1.25331">
        <ele>392.84</ele>
        <time>2018-10-21T08:11:11Z</time>
      </trkpt>
      <trkpt lat="45.98295" lon="1.25328">
        <ele>392.84</ele>
        <time>2018-10-21T08:11:15Z</time>
      </trkpt>
      <trkpt lat="45.98298" lon="1.25328">
        <ele>392.84</ele>
        <time>2018-10-21T08:11:17Z</time>
      </trkpt>
      <trkpt lat="45.98314" lon="1.25332">
        <ele>392.84</ele>
        <time>2018-10-21T08:11:25Z</time>
      </trkpt>
      <trkpt lat="45.98317" lon="1.25333">
        <ele>392.84</ele>
        <time>2018-10-21T08:11:26Z</time>
      </trkpt>
      <trkpt lat="45.98343" lon="1.25341">
        <ele>393.8</ele>
        <time>2018-10-21T08:11:38Z</time>
      </trkpt>
      <trkpt lat="45.98378" lon="1.2533">
        <ele>395.24</ele>
        <time>2018-10-21T08:11:51Z</time>
      </trkpt>
      <trkpt lat="45.98401" lon="1.25315">
        <ele>396.68</ele>
        <time>2018-10-21T08:12:03Z</time>
      </trkpt>
      <trkpt lat="45.98404" lon="1.25308">
        <ele>397.16</ele>
        <time>2018-10-21T08:12:10Z</time>
      </trkpt>
      <trkpt lat="45.98395" lon="1.25313">
        <ele>397.16</ele>
        <time>2018-10-21T08:12:14Z</time>
      </trkpt>
      <trkpt lat="45.98387" lon="1.25318">
        <ele>397.16</ele>
        <time>2018-10-21T08:12:16Z</time>
      </trkpt>
      <trkpt lat="45.98361" lon="1.25334">
        <ele>397.16</ele>
        <time>2018-10-21T08:12:22Z</time>
      </trkpt>
      <trkpt lat="45.98357" lon="1.25335">
        <ele>397.16</ele>
        <time>2018-10-21T08:12:23Z</time>
      </trkpt>
      <trkpt lat="45.98342" lon="1.25333">
        <ele>396.68</ele>
        <time>2018-10-21T08:12:26Z</time>
      </trkpt>
      <trkpt lat="45.98311" lon="1.25324">
        <ele>395.24</ele>
        <time>2018-10-21T08:12:32Z</time>
      </trkpt>
      <trkpt lat="45.98307" lon="1.25323">
        <ele>395.24</ele>
        <time>2018-10-21T08:12:33Z</time>
      </trkpt>
      <trkpt lat="45.98303" lon="1.25324">
        <ele>395.24</ele>
        <time>2018-10-21T08:12:34Z</time>
      </trkpt>
      <trkpt lat="45.983" lon="1.25326">
        <ele>394.76</ele>
        <time>2018-10-21T08:12:35Z</time>
      </trkpt>
      <trkpt lat="45.98297" lon="1.2533">
        <ele>394.76</ele>
        <time>2018-10-21T08:12:36Z</time>
      </trkpt>
      <trkpt lat="45.98295" lon="1.25335">
        <ele>394.28</ele>
        <time>2018-10-21T08:12:37Z</time>
      </trkpt>
      <trkpt lat="45.98295" lon="1.2534">
        <ele>394.28</ele>
        <time>2018-10-21T08:12:38Z</time>
      </trkpt>
      <trkpt lat="45.98295" lon="1.25345">
        <ele>393.8</ele>
        <time>2018-10-21T08:12:39Z</time>
      </trkpt>
      <trkpt lat="45.98296" lon="1.25351">
        <ele>393.8</ele>
        <time>2018-10-21T08:12:40Z</time>
      </trkpt>
      <trkpt lat="45.98297" lon="1.25357">
        <ele>393.8</ele>
        <time>2018-10-21T08:12:41Z</time>
      </trkpt>
      <trkpt lat="45.98297" lon="1.25364">
        <ele>393.8</ele>
        <time>2018-10-21T08:12:42Z</time>
      </trkpt>
      <trkpt lat="45.98297" lon="1.25371">
        <ele>393.32</ele>
        <time>2018-10-21T08:12:43Z</time>
      </trkpt>
      <trkpt lat="45.98297" lon="1.25385">
        <ele>392.84</ele>
        <time>2018-10-21T08:12:45Z</time>
      </trkpt>
      <trkpt lat="45.98296" lon="1.25393">
        <ele>392.36</ele>
        <time>2018-10-21T08:12:46Z</time>
      </trkpt>
      <trkpt lat="45.98295" lon="1.254">
        <ele>392.36</ele>
        <time>2018-10-21T08:12:47Z</time>
      </trkpt>
      <trkpt lat="45.98294" lon="1.25406">
        <ele>391.87</ele>
        <time>2018-10-21T08:12:48Z</time>
      </trkpt>
      <trkpt lat="45.98293" lon="1.25412">
        <ele>391.87</ele>
        <time>2018-10-21T08:12:49Z</time>
      </trkpt>
      <trkpt lat="45.98292" lon="1.25425">
        <ele>391.39</ele>
        <time>2018-10-21T08:12:51Z</time>
      </trkpt>
      <trkpt lat="45.9829" lon="1.2543">
        <ele>391.39</ele>
        <time>2018-10-21T08:12:52Z</time>
      </trkpt>
      <trkpt lat="45.98276" lon="1.25475">
        <ele>391.87</ele>
        <time>2018-10-21T08:13:02Z</time>
      </trkpt>
      <trkpt lat="45.98265" lon="1.25496">
        <ele>391.87</ele>
        <time>2018-10-21T08:13:06Z</time>
      </trkpt>
      <trkpt lat="45.98261" lon="1.255">
        <ele>391.87</ele>
        <time>2018-10-21T08:13:07Z</time>
      </trkpt>
      <trkpt lat="45.98257" lon="1.25502">
        <ele>391.87</ele>
        <time>2018-10-21T08:13:08Z</time>
      </trkpt>
      <trkpt lat="45.98252" lon="1.25501">
        <ele>391.87</ele>
        <time>2018-10-21T08:13:09Z</time>
      </trkpt>
      <trkpt lat="45.98248" lon="1.25499">
        <ele>392.36</ele>
        <time>2018-10-21T08:13:10Z</time>
      </trkpt>
      <trkpt lat="45.98245" lon="1.25495">
        <ele>392.36</ele>
        <time>2018-10-21T08:13:11Z</time>
      </trkpt>
      <trkpt lat="45.98242" lon="1.25491">
        <ele>392.36</ele>
        <time>2018-10-21T08:13:12Z</time>
      </trkpt>
      <trkpt lat="45.98238" lon="1.25486">
        <ele>392.36</ele>
        <time>2018-10-21T08:13:13Z</time>
      </trkpt>
      <trkpt lat="45.98178" lon="1.25422">
        <ele>391.87</ele>
        <time>2018-10-21T08:13:24Z</time>
      </trkpt>
      <trkpt lat="45.98168" lon="1.25411">
        <ele>390.91</ele>
        <time>2018-10-21T08:13:26Z</time>
      </trkpt>
      <trkpt lat="45.98164" lon="1.25405">
        <ele>390.43</ele>
        <time>2018-10-21T08:13:27Z</time>
      </trkpt>
      <trkpt lat="45.9816" lon="1.25397">
        <ele>389.47</ele>
        <time>2018-10-21T08:13:28Z</time>
      </trkpt>
      <trkpt lat="45.98157" lon="1.25388">
        <ele>388.51</ele>
        <time>2018-10-21T08:13:29Z</time>
      </trkpt>
      <trkpt lat="45.98154" lon="1.25378">
        <ele>388.03</ele>
        <time>2018-10-21T08:13:30Z</time>
      </trkpt>
      <trkpt lat="45.98151" lon="1.25369">
        <ele>387.07</ele>
        <time>2018-10-21T08:13:31Z</time>
      </trkpt>
      <trkpt lat="45.98149" lon="1.25361">
        <ele>386.11</ele>
        <time>2018-10-21T08:13:32Z</time>
      </trkpt>
      <trkpt lat="45.98146" lon="1.25353">
        <ele>385.63</ele>
        <time>2018-10-21T08:13:33Z</time>
      </trkpt>
      <trkpt lat="45.98138" lon="1.25329">
        <ele>383.22</ele>
        <time>2018-10-21T08:13:36Z</time>
      </trkpt>
      <trkpt lat="45.98135" lon="1.25323">
        <ele>382.26</ele>
        <time>2018-10-21T08:13:37Z</time>
      </trkpt>
      <trkpt lat="45.98131" lon="1.25318">
        <ele>381.3</ele>
        <time>2018-10-21T08:13:38Z</time>
      </trkpt>
      <trkpt lat="45.98127" lon="1.25314">
        <ele>379.86</ele>
        <time>2018-10-21T08:13:39Z</time>
      </trkpt>
      <trkpt lat="45.98124" lon="1.25309">
        <ele>379.38</ele>
        <time>2018-10-21T08:13:40Z</time>
      </trkpt>
      <trkpt lat="45.9812" lon="1.25304">
        <ele>378.9</ele>
        <time>2018-10-21T08:13:41Z</time>
      </trkpt>
      <trkpt lat="45.98105" lon="1.25281">
        <ele>377.94</ele>
        <time>2018-10-21T08:13:44Z</time>
      </trkpt>
      <trkpt lat="45.98101" lon="1.25273">
        <ele>377.45</ele>
        <time>2018-10-21T08:13:45Z</time>
      </trkpt>
      <trkpt lat="45.9809" lon="1.25248">
        <ele>376.97</ele>
        <time>2018-10-21T08:13:49Z</time>
      </trkpt>
      <trkpt lat="45.98086" lon="1.25244">
        <ele>376.97</ele>
        <time>2018-10-21T08:13:50Z</time>
      </trkpt>
      <trkpt lat="45.98082" lon="1.25241">
        <ele>376.01</ele>
        <time>2018-10-21T08:13:51Z</time>
      </trkpt>
      <trkpt lat="45.98072" lon="1.25233">
        <ele>375.05</ele>
        <time>2018-10-21T08:13:53Z</time>
      </trkpt>
      <trkpt lat="45.98068" lon="1.25228">
        <ele>374.57</ele>
        <time>2018-10-21T08:13:54Z</time>
      </trkpt>
      <trkpt lat="45.9805" lon="1.25203">
        <ele>374.09</ele>
        <time>2018-10-21T08:13:58Z</time>
      </trkpt>
      <trkpt lat="45.98033" lon="1.25175">
        <ele>372.17</ele>
        <time>2018-10-21T08:14:02Z</time>
      </trkpt>
      <trkpt lat="45.98031" lon="1.25167">
        <ele>371.69</ele>
        <time>2018-10-21T08:14:03Z</time>
      </trkpt>
      <trkpt lat="45.9803" lon="1.25159">
        <ele>371.69</ele>
        <time>2018-10-21T08:14:04Z</time>
      </trkpt>
      <trkpt lat="45.98029" lon="1.2515">
        <ele>371.69</ele>
        <time>2018-10-21T08:14:05Z</time>
      </trkpt>
      <trkpt lat="45.9803" lon="1.25141">
        <ele>371.21</ele>
        <time>2018-10-21T08:14:06Z</time>
      </trkpt>
      <trkpt lat="45.9803" lon="1.25134">
        <ele>371.21</ele>
        <time>2018-10-21T08:14:07Z</time>
      </trkpt>
      <trkpt lat="45.9803" lon="1.25127">
        <ele>370.73</ele>
        <time>2018-10-21T08:14:08Z</time>
      </trkpt>
      <trkpt lat="45.9803" lon="1.2512">
        <ele>370.24</ele>
        <time>2018-10-21T08:14:09Z</time>
      </trkpt>
      <trkpt lat="45.9803" lon="1.25113">
        <ele>369.76</ele>
        <time>2018-10-21T08:14:10Z</time>
      </trkpt>
      <trkpt lat="45.9803" lon="1.25106">
        <ele>369.28</ele>
        <time>2018-10-21T08:14:11Z</time>
      </trkpt>
      <trkpt lat="45.98024" lon="1.25065">
        <ele>368.32</ele>
        <time>2018-10-21T08:14:18Z</time>
      </trkpt>
      <trkpt lat="45.98021" lon="1.25059">
        <ele>368.32</ele>
        <time>2018-10-21T08:14:19Z</time>
      </trkpt>
      <trkpt lat="45.98008" lon="1.25037">
        <ele>367.84</ele>
        <time>2018-10-21T08:14:24Z</time>
      </trkpt>
      <trkpt lat="45.98005" lon="1.25036">
        <ele>367.84</ele>
        <time>2018-10-21T08:14:25Z</time>
      </trkpt>
      <trkpt lat="45.98002" lon="1.25036">
        <ele>367.84</ele>
        <time>2018-10-21T08:14:26Z</time>
      </trkpt>
      <trkpt lat="45.97997" lon="1.25037">
        <ele>367.84</ele>
        <time>2018-10-21T08:14:27Z</time>
      </trkpt>
      <trkpt lat="45.97993" lon="1.25037">
        <ele>367.84</ele>
        <time>2018-10-21T08:14:28Z</time>
      </trkpt>
      <trkpt lat="45.9799" lon="1.25037">
        <ele>367.84</ele>
        <time>2018-10-21T08:14:29Z</time>
      </trkpt>
      <trkpt lat="45.97986" lon="1.25038">
        <ele>367.36</ele>
        <time>2018-10-21T08:14:30Z</time>
      </trkpt>
      <trkpt lat="45.97983" lon="1.25037">
        <ele>367.36</ele>
        <time>2018-10-21T08:14:31Z</time>
      </trkpt>
      <trkpt lat="45.97981" lon="1.25035">
        <ele>367.36</ele>
        <time>2018-10-21T08:14:32Z</time>
      </trkpt>
      <trkpt lat="45.97979" lon="1.25034">
        <ele>367.36</ele>
        <time>2018-10-21T08:14:33Z</time>
      </trkpt>
      <trkpt lat="45.97978" lon="1.25033">
        <ele>367.36</ele>
        <time>2018-10-21T08:14:34Z</time>
      </trkpt>
      <trkpt lat="45.97977" lon="1.25031">
        <ele>366.88</ele>
        <time>2018-10-21T08:14:35Z</time>
      </trkpt>
      <trkpt lat="45.97974" lon="1.25025">
        <ele>366.4</ele>
        <time>2018-10-21T08:14:38Z</time>
      </trkpt>
      <trkpt lat="45.97974" lon="1.25022">
        <ele>366.4</ele>
        <time>2018-10-21T08:14:39Z</time>
      </trkpt>
      <trkpt lat="45.97974" lon="1.25019">
        <ele>365.92</ele>
        <time>2018-10-21T08:14:40Z</time>
      </trkpt>
      <trkpt lat="45.97961" lon="1.2498">
        <ele>365.44</ele>
        <time>2018-10-21T08:14:51Z</time>
      </trkpt>
      <trkpt lat="45.97948" lon="1.24933">
        <ele>367.36</ele>
        <time>2018-10-21T08:15:02Z</time>
      </trkpt>
      <trkpt lat="45.97947" lon="1.24929">
        <ele>367.36</ele>
        <time>2018-10-21T08:15:03Z</time>
      </trkpt>
      <trkpt lat="45.97945" lon="1.24923">
        <ele>367.36</ele>
        <time>2018-10-21T08:15:04Z</time>
      </trkpt>
      <trkpt lat="45.97945" lon="1.24918">
        <ele>367.36</ele>
        <time>2018-10-21T08:15:05Z</time>
      </trkpt>
      <trkpt lat="45.97941" lon="1.2491">
        <ele>367.84</ele>
        <time>2018-10-21T08:15:06Z</time>
      </trkpt>
      <trkpt lat="45.97939" lon="1.24904">
        <ele>367.84</ele>
        <time>2018-10-21T08:15:07Z</time>
      </trkpt>
      <trkpt lat="45.97919" lon="1.24874">
        <ele>367.36</ele>
        <time>2018-10-21T08:15:12Z</time>
      </trkpt>
      <trkpt lat="45.97908" lon="1.24855">
        <ele>364</ele>
        <time>2018-10-21T08:15:17Z</time>
      </trkpt>
      <trkpt lat="45.97889" lon="1.24834">
        <ele>362.55</ele>
        <time>2018-10-21T08:15:32Z</time>
      </trkpt>
      <trkpt lat="45.97875" lon="1.24823">
        <ele>362.55</ele>
        <time>2018-10-21T08:15:41Z</time>
      </trkpt>
      <trkpt lat="45.97874" lon="1.24822">
        <ele>362.55</ele>
        <time>2018-10-21T08:15:42Z</time>
      </trkpt>
      <trkpt lat="45.97871" lon="1.24809">
        <ele>362.55</ele>
        <time>2018-10-21T08:15:55Z</time>
      </trkpt>
      <trkpt lat="45.97869" lon="1.24798">
        <ele>362.55</ele>
        <time>2018-10-21T08:16:01Z</time>
      </trkpt>
      <trkpt lat="45.97866" lon="1.24793">
        <ele>362.55</ele>
        <time>2018-10-21T08:16:05Z</time>
      </trkpt>
      <trkpt lat="45.97857" lon="1.24789">
        <ele>362.07</ele>
        <time>2018-10-21T08:16:09Z</time>
      </trkpt>
      <trkpt lat="45.97854" lon="1.24788">
        <ele>362.55</ele>
        <time>2018-10-21T08:16:10Z</time>
      </trkpt>
      <trkpt lat="45.97852" lon="1.24787">
        <ele>362.55</ele>
        <time>2018-10-21T08:16:11Z</time>
      </trkpt>
      <trkpt lat="45.9785" lon="1.24786">
        <ele>362.55</ele>
        <time>2018-10-21T08:16:12Z</time>
      </trkpt>
      <trkpt lat="45.97836" lon="1.24769">
        <ele>362.55</ele>
        <time>2018-10-21T08:16:24Z</time>
      </trkpt>
      <trkpt lat="45.97819" lon="1.24757">
        <ele>365.44</ele>
        <time>2018-10-21T08:16:38Z</time>
      </trkpt>
      <trkpt lat="45.97796" lon="1.24736">
        <ele>368.32</ele>
        <time>2018-10-21T08:16:52Z</time>
      </trkpt>
      <trkpt lat="45.97795" lon="1.24733">
        <ele>368.8</ele>
        <time>2018-10-21T08:16:54Z</time>
      </trkpt>
      <trkpt lat="45.97789" lon="1.2472">
        <ele>369.76</ele>
        <time>2018-10-21T08:16:59Z</time>
      </trkpt>
      <trkpt lat="45.97775" lon="1.24679">
        <ele>372.65</ele>
        <time>2018-10-21T08:17:10Z</time>
      </trkpt>
      <trkpt lat="45.97771" lon="1.24635">
        <ele>374.57</ele>
        <time>2018-10-21T08:17:21Z</time>
      </trkpt>
      <trkpt lat="45.97753" lon="1.24591">
        <ele>376.97</ele>
        <time>2018-10-21T08:17:33Z</time>
      </trkpt>
      <trkpt lat="45.97746" lon="1.24551">
        <ele>379.86</ele>
        <time>2018-10-21T08:17:46Z</time>
      </trkpt>
      <trkpt lat="45.97736" lon="1.24512">
        <ele>382.26</ele>
        <time>2018-10-21T08:17:57Z</time>
      </trkpt>
      <trkpt lat="45.97733" lon="1.24505">
        <ele>382.74</ele>
        <time>2018-10-21T08:18:00Z</time>
      </trkpt>
      <trkpt lat="45.97731" lon="1.24502">
        <ele>383.22</ele>
        <time>2018-10-21T08:18:01Z</time>
      </trkpt>
      <trkpt lat="45.9773" lon="1.24498">
        <ele>383.22</ele>
        <time>2018-10-21T08:18:02Z</time>
      </trkpt>
      <trkpt lat="45.97731" lon="1.24494">
        <ele>383.22</ele>
        <time>2018-10-21T08:18:03Z</time>
      </trkpt>
      <trkpt lat="45.9773" lon="1.24491">
        <ele>383.22</ele>
        <time>2018-10-21T08:18:04Z</time>
      </trkpt>
      <trkpt lat="45.9773" lon="1.24489">
        <ele>383.7</ele>
        <time>2018-10-21T08:18:05Z</time>
      </trkpt>
      <trkpt lat="45.97729" lon="1.24486">
        <ele>383.7</ele>
        <time>2018-10-21T08:18:06Z</time>
      </trkpt>
      <trkpt lat="45.97727" lon="1.24483">
        <ele>383.7</ele>
        <time>2018-10-21T08:18:07Z</time>
      </trkpt>
      <trkpt lat="45.97725" lon="1.24481">
        <ele>383.7</ele>
        <time>2018-10-21T08:18:08Z</time>
      </trkpt>
      <trkpt lat="45.97723" lon="1.24479">
        <ele>383.7</ele>
        <time>2018-10-21T08:18:09Z</time>
      </trkpt>
      <trkpt lat="45.97719" lon="1.24478">
        <ele>383.7</ele>
        <time>2018-10-21T08:18:10Z</time>
      </trkpt>
      <trkpt lat="45.97716" lon="1.24476">
        <ele>384.18</ele>
        <time>2018-10-21T08:18:11Z</time>
      </trkpt>
      <trkpt lat="45.9769" lon="1.24458">
        <ele>384.18</ele>
        <time>2018-10-21T08:18:21Z</time>
      </trkpt>
      <trkpt lat="45.97666" lon="1.24443">
        <ele>384.66</ele>
        <time>2018-10-21T08:18:32Z</time>
      </trkpt>
      <trkpt lat="45.97634" lon="1.2443">
        <ele>385.63</ele>
        <time>2018-10-21T08:18:41Z</time>
      </trkpt>
      <trkpt lat="45.97633" lon="1.24428">
        <ele>385.63</ele>
        <time>2018-10-21T08:18:42Z</time>
      </trkpt>
      <trkpt lat="45.97635" lon="1.24426">
        <ele>385.63</ele>
        <time>2018-10-21T08:18:44Z</time>
      </trkpt>
      <trkpt lat="45.97643" lon="1.24427">
        <ele>386.11</ele>
        <time>2018-10-21T08:18:58Z</time>
      </trkpt>
      <trkpt lat="45.97627" lon="1.24429">
        <ele>386.11</ele>
        <time>2018-10-21T08:19:10Z</time>
      </trkpt>
      <trkpt lat="45.97635" lon="1.24428">
        <ele>386.59</ele>
        <time>2018-10-21T08:19:20Z</time>
      </trkpt>
      <trkpt lat="45.97634" lon="1.24425">
        <ele>386.59</ele>
        <time>2018-10-21T08:19:29Z</time>
      </trkpt>
      <trkpt lat="45.97662" lon="1.24421">
        <ele>386.11</ele>
        <time>2018-10-21T08:19:42Z</time>
      </trkpt>
      <trkpt lat="45.977" lon="1.2441">
        <ele>386.11</ele>
        <time>2018-10-21T08:19:54Z</time>
      </trkpt>
      <trkpt lat="45.97753" lon="1.24375">
        <ele>386.11</ele>
        <time>2018-10-21T08:20:09Z</time>
      </trkpt>
      <trkpt lat="45.97789" lon="1.24345">
        <ele>387.07</ele>
        <time>2018-10-21T08:20:21Z</time>
      </trkpt>
      <trkpt lat="45.97799" lon="1.24337">
        <ele>387.55</ele>
        <time>2018-10-21T08:20:24Z</time>
      </trkpt>
      <trkpt lat="45.97803" lon="1.24335">
        <ele>387.55</ele>
        <time>2018-10-21T08:20:25Z</time>
      </trkpt>
      <trkpt lat="45.97807" lon="1.24333">
        <ele>387.55</ele>
        <time>2018-10-21T08:20:26Z</time>
      </trkpt>
      <trkpt lat="45.9781" lon="1.2433">
        <ele>387.55</ele>
        <time>2018-10-21T08:20:27Z</time>
      </trkpt>
      <trkpt lat="45.97814" lon="1.24328">
        <ele>387.55</ele>
        <time>2018-10-21T08:20:28Z</time>
      </trkpt>
      <trkpt lat="45.97848" lon="1.24305">
        <ele>386.59</ele>
        <time>2018-10-21T08:20:36Z</time>
      </trkpt>
      <trkpt lat="45.97851" lon="1.24302">
        <ele>386.59</ele>
        <time>2018-10-21T08:20:37Z</time>
      </trkpt>
      <trkpt lat="45.97853" lon="1.24298">
        <ele>386.59</ele>
        <time>2018-10-21T08:20:38Z</time>
      </trkpt>
      <trkpt lat="45.97854" lon="1.24294">
        <ele>386.59</ele>
        <time>2018-10-21T08:20:39Z</time>
      </trkpt>
      <trkpt lat="45.97855" lon="1.24289">
        <ele>386.11</ele>
        <time>2018-10-21T08:20:40Z</time>
      </trkpt>
      <trkpt lat="45.97855" lon="1.24284">
        <ele>386.11</ele>
        <time>2018-10-21T08:20:41Z</time>
      </trkpt>
      <trkpt lat="45.97854" lon="1.24279">
        <ele>386.11</ele>
        <time>2018-10-21T08:20:42Z</time>
      </trkpt>
      <trkpt lat="45.97854" lon="1.24273">
        <ele>385.63</ele>
        <time>2018-10-21T08:20:43Z</time>
      </trkpt>
      <trkpt lat="45.97854" lon="1.24266">
        <ele>385.63</ele>
        <time>2018-10-21T08:20:44Z</time>
      </trkpt>
      <trkpt lat="45.97854" lon="1.24258">
        <ele>385.63</ele>
        <time>2018-10-21T08:20:45Z</time>
      </trkpt>
      <trkpt lat="45.97853" lon="1.2425">
        <ele>385.63</ele>
        <time>2018-10-21T08:20:46Z</time>
      </trkpt>
      <trkpt lat="45.97853" lon="1.24242">
        <ele>385.63</ele>
        <time>2018-10-21T08:20:47Z</time>
      </trkpt>
      <trkpt lat="45.9785" lon="1.24202">
        <ele>384.18</ele>
        <time>2018-10-21T08:20:51Z</time>
      </trkpt>
      <trkpt lat="45.97849" lon="1.24192">
        <ele>384.18</ele>
        <time>2018-10-21T08:20:52Z</time>
      </trkpt>
      <trkpt lat="45.97848" lon="1.24172">
        <ele>383.22</ele>
        <time>2018-10-21T08:20:54Z</time>
      </trkpt>
      <trkpt lat="45.97847" lon="1.24162">
        <ele>382.74</ele>
        <time>2018-10-21T08:20:55Z</time>
      </trkpt>
      <trkpt lat="45.97846" lon="1.24151">
        <ele>381.78</ele>
        <time>2018-10-21T08:20:56Z</time>
      </trkpt>
      <trkpt lat="45.97845" lon="1.2414">
        <ele>381.3</ele>
        <time>2018-10-21T08:20:57Z</time>
      </trkpt>
      <trkpt lat="45.97845" lon="1.24129">
        <ele>380.34</ele>
        <time>2018-10-21T08:20:58Z</time>
      </trkpt>
      <trkpt lat="45.97845" lon="1.24118">
        <ele>379.38</ele>
        <time>2018-10-21T08:20:59Z</time>
      </trkpt>
      <trkpt lat="45.97846" lon="1.2407">
        <ele>377.94</ele>
        <time>2018-10-21T08:21:03Z</time>
      </trkpt>
      <trkpt lat="45.9784" lon="1.24013">
        <ele>374.57</ele>
        <time>2018-10-21T08:21:08Z</time>
      </trkpt>
      <trkpt lat="45.97837" lon="1.23991">
        <ele>373.13</ele>
        <time>2018-10-21T08:21:10Z</time>
      </trkpt>
      <trkpt lat="45.97835" lon="1.23982">
        <ele>372.17</ele>
        <time>2018-10-21T08:21:11Z</time>
      </trkpt>
      <trkpt lat="45.97833" lon="1.23972">
        <ele>371.69</ele>
        <time>2018-10-21T08:21:12Z</time>
      </trkpt>
      <trkpt lat="45.97832" lon="1.23962">
        <ele>371.21</ele>
        <time>2018-10-21T08:21:13Z</time>
      </trkpt>
      <trkpt lat="45.97832" lon="1.23951">
        <ele>370.73</ele>
        <time>2018-10-21T08:21:14Z</time>
      </trkpt>
      <trkpt lat="45.97832" lon="1.2394">
        <ele>370.73</ele>
        <time>2018-10-21T08:21:15Z</time>
      </trkpt>
      <trkpt lat="45.97834" lon="1.2393">
        <ele>369.76</ele>
        <time>2018-10-21T08:21:16Z</time>
      </trkpt>
      <trkpt lat="45.97835" lon="1.23921">
        <ele>368.8</ele>
        <time>2018-10-21T08:21:17Z</time>
      </trkpt>
      <trkpt lat="45.97834" lon="1.23913">
        <ele>367.84</ele>
        <time>2018-10-21T08:21:18Z</time>
      </trkpt>
      <trkpt lat="45.97833" lon="1.23904">
        <ele>367.36</ele>
        <time>2018-10-21T08:21:19Z</time>
      </trkpt>
      <trkpt lat="45.97824" lon="1.23883">
        <ele>363.52</ele>
        <time>2018-10-21T08:21:24Z</time>
      </trkpt>
      <trkpt lat="45.9782" lon="1.23878">
        <ele>361.59</ele>
        <time>2018-10-21T08:21:26Z</time>
      </trkpt>
      <trkpt lat="45.97819" lon="1.23876">
        <ele>360.63</ele>
        <time>2018-10-21T08:21:27Z</time>
      </trkpt>
      <trkpt lat="45.97817" lon="1.23873">
        <ele>360.63</ele>
        <time>2018-10-21T08:21:28Z</time>
      </trkpt>
      <trkpt lat="45.97816" lon="1.23871">
        <ele>360.15</ele>
        <time>2018-10-21T08:21:29Z</time>
      </trkpt>
      <trkpt lat="45.97816" lon="1.23868">
        <ele>360.15</ele>
        <time>2018-10-21T08:21:30Z</time>
      </trkpt>
      <trkpt lat="45.97815" lon="1.23863">
        <ele>360.15</ele>
        <time>2018-10-21T08:21:31Z</time>
      </trkpt>
      <trkpt lat="45.97815" lon="1.2386">
        <ele>359.67</ele>
        <time>2018-10-21T08:21:32Z</time>
      </trkpt>
      <trkpt lat="45.97814" lon="1.23856">
        <ele>359.67</ele>
        <time>2018-10-21T08:21:33Z</time>
      </trkpt>
      <trkpt lat="45.97815" lon="1.23853">
        <ele>359.67</ele>
        <time>2018-10-21T08:21:34Z</time>
      </trkpt>
      <trkpt lat="45.97816" lon="1.23851">
        <ele>359.67</ele>
        <time>2018-10-21T08:21:35Z</time>
      </trkpt>
      <trkpt lat="45.97817" lon="1.23848">
        <ele>359.67</ele>
        <time>2018-10-21T08:21:36Z</time>
      </trkpt>
      <trkpt lat="45.9782" lon="1.23845">
        <ele>360.15</ele>
        <time>2018-10-21T08:21:38Z</time>
      </trkpt>
      <trkpt lat="45.97821" lon="1.23843">
        <ele>360.63</ele>
        <time>2018-10-21T08:21:39Z</time>
      </trkpt>
      <trkpt lat="45.97822" lon="1.23842">
        <ele>360.63</ele>
        <time>2018-10-21T08:21:40Z</time>
      </trkpt>
      <trkpt lat="45.97842" lon="1.23836">
        <ele>363.52</ele>
        <time>2018-10-21T08:21:50Z</time>
      </trkpt>
      <trkpt lat="45.97859" lon="1.23833">
        <ele>364.96</ele>
        <time>2018-10-21T08:21:59Z</time>
      </trkpt>
      <trkpt lat="45.979" lon="1.2382">
        <ele>364.48</ele>
        <time>2018-10-21T08:22:09Z</time>
      </trkpt>
      <trkpt lat="45.97907" lon="1.23818">
        <ele>364</ele>
        <time>2018-10-21T08:22:10Z</time>
      </trkpt>
      <trkpt lat="45.97912" lon="1.23816">
        <ele>364</ele>
        <time>2018-10-21T08:22:11Z</time>
      </trkpt>
      <trkpt lat="45.9792" lon="1.23813">
        <ele>363.52</ele>
        <time>2018-10-21T08:22:12Z</time>
      </trkpt>
      <trkpt lat="45.97925" lon="1.23809">
        <ele>363.04</ele>
        <time>2018-10-21T08:22:13Z</time>
      </trkpt>
      <trkpt lat="45.97951" lon="1.23779">
        <ele>362.55</ele>
        <time>2018-10-21T08:22:23Z</time>
      </trkpt>
      <trkpt lat="45.9796" lon="1.23738">
        <ele>365.92</ele>
        <time>2018-10-21T08:22:33Z</time>
      </trkpt>
      <trkpt lat="45.97961" lon="1.23706">
        <ele>368.8</ele>
        <time>2018-10-21T08:22:41Z</time>
      </trkpt>
      <trkpt lat="45.97981" lon="1.23636">
        <ele>371.69</ele>
        <time>2018-10-21T08:23:03Z</time>
      </trkpt>
      <trkpt lat="45.98003" lon="1.23585">
        <ele>373.61</ele>
        <time>2018-10-21T08:23:19Z</time>
      </trkpt>
      <trkpt lat="45.98011" lon="1.23566">
        <ele>373.61</ele>
        <time>2018-10-21T08:23:23Z</time>
      </trkpt>
      <trkpt lat="45.98019" lon="1.23543">
        <ele>373.61</ele>
        <time>2018-10-21T08:23:27Z</time>
      </trkpt>
      <trkpt lat="45.98023" lon="1.23533">
        <ele>373.61</ele>
        <time>2018-10-21T08:23:29Z</time>
      </trkpt>
      <trkpt lat="45.98035" lon="1.23506">
        <ele>373.61</ele>
        <time>2018-10-21T08:23:35Z</time>
      </trkpt>
      <trkpt lat="45.98036" lon="1.23501">
        <ele>373.61</ele>
        <time>2018-10-21T08:23:36Z</time>
      </trkpt>
      <trkpt lat="45.98036" lon="1.23496">
        <ele>373.61</ele>
        <time>2018-10-21T08:23:37Z</time>
      </trkpt>
      <trkpt lat="45.98035" lon="1.23491">
        <ele>373.61</ele>
        <time>2018-10-21T08:23:38Z</time>
      </trkpt>
      <trkpt lat="45.98034" lon="1.23486">
        <ele>373.61</ele>
        <time>2018-10-21T08:23:39Z</time>
      </trkpt>
      <trkpt lat="45.98032" lon="1.2348">
        <ele>373.61</ele>
        <time>2018-10-21T08:23:40Z</time>
      </trkpt>
      <trkpt lat="45.98032" lon="1.23474">
        <ele>373.61</ele>
        <time>2018-10-21T08:23:41Z</time>
      </trkpt>
      <trkpt lat="45.98031" lon="1.23467">
        <ele>373.61</ele>
        <time>2018-10-21T08:23:42Z</time>
      </trkpt>
      <trkpt lat="45.98031" lon="1.2346">
        <ele>373.13</ele>
        <time>2018-10-21T08:23:43Z</time>
      </trkpt>
      <trkpt lat="45.98031" lon="1.23453">
        <ele>373.13</ele>
        <time>2018-10-21T08:23:44Z</time>
      </trkpt>
      <trkpt lat="45.98031" lon="1.23446">
        <ele>373.13</ele>
        <time>2018-10-21T08:23:45Z</time>
      </trkpt>
      <trkpt lat="45.98032" lon="1.23439">
        <ele>372.65</ele>
        <time>2018-10-21T08:23:46Z</time>
      </trkpt>
      <trkpt lat="45.98034" lon="1.23431">
        <ele>372.17</ele>
        <time>2018-10-21T08:23:47Z</time>
      </trkpt>
      <trkpt lat="45.98037" lon="1.23425">
        <ele>371.69</ele>
        <time>2018-10-21T08:23:48Z</time>
      </trkpt>
      <trkpt lat="45.98041" lon="1.23421">
        <ele>371.69</ele>
        <time>2018-10-21T08:23:49Z</time>
      </trkpt>
      <trkpt lat="45.98045" lon="1.23419">
        <ele>371.69</ele>
        <time>2018-10-21T08:23:50Z</time>
      </trkpt>
      <trkpt lat="45.9805" lon="1.23417">
        <ele>371.69</ele>
        <time>2018-10-21T08:23:51Z</time>
      </trkpt>
      <trkpt lat="45.98065" lon="1.2341">
        <ele>371.21</ele>
        <time>2018-10-21T08:23:54Z</time>
      </trkpt>
      <trkpt lat="45.9807" lon="1.23407">
        <ele>371.21</ele>
        <time>2018-10-21T08:23:55Z</time>
      </trkpt>
      <trkpt lat="45.98086" lon="1.23392">
        <ele>371.21</ele>
        <time>2018-10-21T08:23:59Z</time>
      </trkpt>
      <trkpt lat="45.98094" lon="1.23383">
        <ele>370.73</ele>
        <time>2018-10-21T08:24:01Z</time>
      </trkpt>
      <trkpt lat="45.98108" lon="1.23355">
        <ele>370.73</ele>
        <time>2018-10-21T08:24:06Z</time>
      </trkpt>
      <trkpt lat="45.98111" lon="1.23351">
        <ele>370.73</ele>
        <time>2018-10-21T08:24:07Z</time>
      </trkpt>
      <trkpt lat="45.98115" lon="1.23348">
        <ele>370.73</ele>
        <time>2018-10-21T08:24:08Z</time>
      </trkpt>
      <trkpt lat="45.98139" lon="1.23329">
        <ele>370.73</ele>
        <time>2018-10-21T08:24:14Z</time>
      </trkpt>
      <trkpt lat="45.98147" lon="1.23327">
        <ele>370.73</ele>
        <time>2018-10-21T08:24:15Z</time>
      </trkpt>
      <trkpt lat="45.98153" lon="1.23324">
        <ele>370.73</ele>
        <time>2018-10-21T08:24:16Z</time>
      </trkpt>
      <trkpt lat="45.98158" lon="1.23321">
        <ele>370.73</ele>
        <time>2018-10-21T08:24:17Z</time>
      </trkpt>
      <trkpt lat="45.98163" lon="1.23317">
        <ele>370.73</ele>
        <time>2018-10-21T08:24:18Z</time>
      </trkpt>
      <trkpt lat="45.98168" lon="1.23312">
        <ele>370.73</ele>
        <time>2018-10-21T08:24:19Z</time>
      </trkpt>
      <trkpt lat="45.9823" lon="1.2326">
        <ele>368.8</ele>
        <time>2018-10-21T08:24:30Z</time>
      </trkpt>
      <trkpt lat="45.98236" lon="1.23254">
        <ele>368.32</ele>
        <time>2018-10-21T08:24:31Z</time>
      </trkpt>
      <trkpt lat="45.98251" lon="1.23236">
        <ele>367.84</ele>
        <time>2018-10-21T08:24:34Z</time>
      </trkpt>
      <trkpt lat="45.98256" lon="1.2323">
        <ele>367.36</ele>
        <time>2018-10-21T08:24:35Z</time>
      </trkpt>
      <trkpt lat="45.98271" lon="1.23213">
        <ele>365.92</ele>
        <time>2018-10-21T08:24:38Z</time>
      </trkpt>
      <trkpt lat="45.98276" lon="1.23209">
        <ele>365.44</ele>
        <time>2018-10-21T08:24:39Z</time>
      </trkpt>
      <trkpt lat="45.98282" lon="1.23206">
        <ele>365.44</ele>
        <time>2018-10-21T08:24:40Z</time>
      </trkpt>
      <trkpt lat="45.98288" lon="1.23205">
        <ele>365.44</ele>
        <time>2018-10-21T08:24:41Z</time>
      </trkpt>
      <trkpt lat="45.98293" lon="1.23205">
        <ele>365.44</ele>
        <time>2018-10-21T08:24:42Z</time>
      </trkpt>
      <trkpt lat="45.98298" lon="1.23204">
        <ele>364.96</ele>
        <time>2018-10-21T08:24:43Z</time>
      </trkpt>
      <trkpt lat="45.98304" lon="1.23203">
        <ele>364.96</ele>
        <time>2018-10-21T08:24:44Z</time>
      </trkpt>
      <trkpt lat="45.98311" lon="1.23201">
        <ele>364.96</ele>
        <time>2018-10-21T08:24:45Z</time>
      </trkpt>
      <trkpt lat="45.98335" lon="1.23196">
        <ele>364</ele>
        <time>2018-10-21T08:24:48Z</time>
      </trkpt>
      <trkpt lat="45.98341" lon="1.23197">
        <ele>364</ele>
        <time>2018-10-21T08:24:49Z</time>
      </trkpt>
      <trkpt lat="45.98347" lon="1.23199">
        <ele>363.52</ele>
        <time>2018-10-21T08:24:50Z</time>
      </trkpt>
      <trkpt lat="45.98368" lon="1.2321">
        <ele>362.55</ele>
        <time>2018-10-21T08:24:53Z</time>
      </trkpt>
      <trkpt lat="45.98376" lon="1.23217">
        <ele>361.59</ele>
        <time>2018-10-21T08:24:54Z</time>
      </trkpt>
      <trkpt lat="45.9839" lon="1.23228">
        <ele>360.63</ele>
        <time>2018-10-21T08:24:56Z</time>
      </trkpt>
      <trkpt lat="45.98396" lon="1.23231">
        <ele>359.67</ele>
        <time>2018-10-21T08:24:57Z</time>
      </trkpt>
      <trkpt lat="45.98403" lon="1.23232">
        <ele>359.19</ele>
        <time>2018-10-21T08:24:58Z</time>
      </trkpt>
      <trkpt lat="45.98409" lon="1.23232">
        <ele>359.19</ele>
        <time>2018-10-21T08:24:59Z</time>
      </trkpt>
      <trkpt lat="45.98414" lon="1.23231">
        <ele>358.71</ele>
        <time>2018-10-21T08:25:00Z</time>
      </trkpt>
      <trkpt lat="45.98419" lon="1.2323">
        <ele>358.23</ele>
        <time>2018-10-21T08:25:01Z</time>
      </trkpt>
      <trkpt lat="45.98426" lon="1.23225">
        <ele>357.75</ele>
        <time>2018-10-21T08:25:03Z</time>
      </trkpt>
      <trkpt lat="45.98432" lon="1.23224">
        <ele>357.75</ele>
        <time>2018-10-21T08:25:04Z</time>
      </trkpt>
      <trkpt lat="45.98461" lon="1.23217">
        <ele>357.27</ele>
        <time>2018-10-21T08:25:09Z</time>
      </trkpt>
      <trkpt lat="45.98466" lon="1.23214">
        <ele>357.27</ele>
        <time>2018-10-21T08:25:10Z</time>
      </trkpt>
      <trkpt lat="45.9847" lon="1.2321">
        <ele>357.27</ele>
        <time>2018-10-21T08:25:11Z</time>
      </trkpt>
      <trkpt lat="45.98474" lon="1.23206">
        <ele>357.27</ele>
        <time>2018-10-21T08:25:12Z</time>
      </trkpt>
      <trkpt lat="45.98478" lon="1.23202">
        <ele>357.27</ele>
        <time>2018-10-21T08:25:13Z</time>
      </trkpt>
      <trkpt lat="45.98482" lon="1.23197">
        <ele>357.27</ele>
        <time>2018-10-21T08:25:14Z</time>
      </trkpt>
      <trkpt lat="45.98486" lon="1.23192">
        <ele>357.27</ele>
        <time>2018-10-21T08:25:15Z</time>
      </trkpt>
      <trkpt lat="45.9849" lon="1.23188">
        <ele>357.27</ele>
        <time>2018-10-21T08:25:16Z</time>
      </trkpt>
      <trkpt lat="45.98496" lon="1.23184">
        <ele>357.27</ele>
        <time>2018-10-21T08:25:17Z</time>
      </trkpt>
      <trkpt lat="45.985" lon="1.23182">
        <ele>357.75</ele>
        <time>2018-10-21T08:25:18Z</time>
      </trkpt>
      <trkpt lat="45.98505" lon="1.23179">
        <ele>358.23</ele>
        <time>2018-10-21T08:25:19Z</time>
      </trkpt>
      <trkpt lat="45.9851" lon="1.23178">
        <ele>358.71</ele>
        <time>2018-10-21T08:25:20Z</time>
      </trkpt>
      <trkpt lat="45.98515" lon="1.23178">
        <ele>359.19</ele>
        <time>2018-10-21T08:25:21Z</time>
      </trkpt>
      <trkpt lat="45.98536" lon="1.23177">
        <ele>360.63</ele>
        <time>2018-10-21T08:25:25Z</time>
      </trkpt>
      <trkpt lat="45.9854" lon="1.23177">
        <ele>360.63</ele>
        <time>2018-10-21T08:25:26Z</time>
      </trkpt>
      <trkpt lat="45.98544" lon="1.23179">
        <ele>361.11</ele>
        <time>2018-10-21T08:25:27Z</time>
      </trkpt>
      <trkpt lat="45.98589" lon="1.23199">
        <ele>362.55</ele>
        <time>2018-10-21T08:25:38Z</time>
      </trkpt>
      <trkpt lat="45.98594" lon="1.23199">
        <ele>362.55</ele>
        <time>2018-10-21T08:25:39Z</time>
      </trkpt>
      <trkpt lat="45.98628" lon="1.23202">
        <ele>363.04</ele>
        <time>2018-10-21T08:25:45Z</time>
      </trkpt>
      <trkpt lat="45.98653" lon="1.23198">
        <ele>363.04</ele>
        <time>2018-10-21T08:25:52Z</time>
      </trkpt>
      <trkpt lat="45.98655" lon="1.23194">
        <ele>363.52</ele>
        <time>2018-10-21T08:25:53Z</time>
      </trkpt>
      <trkpt lat="45.98656" lon="1.2319">
        <ele>364</ele>
        <time>2018-10-21T08:25:54Z</time>
      </trkpt>
      <trkpt lat="45.98655" lon="1.23186">
        <ele>364.48</ele>
        <time>2018-10-21T08:25:55Z</time>
      </trkpt>
      <trkpt lat="45.98653" lon="1.23183">
        <ele>364.96</ele>
        <time>2018-10-21T08:25:56Z</time>
      </trkpt>
      <trkpt lat="45.98651" lon="1.23178">
        <ele>365.44</ele>
        <time>2018-10-21T08:25:57Z</time>
      </trkpt>
      <trkpt lat="45.9865" lon="1.23174">
        <ele>365.92</ele>
        <time>2018-10-21T08:25:58Z</time>
      </trkpt>
      <trkpt lat="45.98649" lon="1.2317">
        <ele>366.4</ele>
        <time>2018-10-21T08:25:59Z</time>
      </trkpt>
      <trkpt lat="45.98648" lon="1.23165">
        <ele>366.4</ele>
        <time>2018-10-21T08:26:00Z</time>
      </trkpt>
      <trkpt lat="45.98648" lon="1.23161">
        <ele>366.88</ele>
        <time>2018-10-21T08:26:01Z</time>
      </trkpt>
      <trkpt lat="45.98644" lon="1.23106">
        <ele>368.8</ele>
        <time>2018-10-21T08:26:11Z</time>
      </trkpt>
      <trkpt lat="45.98642" lon="1.23099">
        <ele>368.8</ele>
        <time>2018-10-21T08:26:12Z</time>
      </trkpt>
      <trkpt lat="45.98642" lon="1.23094">
        <ele>368.8</ele>
        <time>2018-10-21T08:26:13Z</time>
      </trkpt>
      <trkpt lat="45.98641" lon="1.23079">
        <ele>368.8</ele>
        <time>2018-10-21T08:26:15Z</time>
      </trkpt>
      <trkpt lat="45.98639" lon="1.23041">
        <ele>368.32</ele>
        <time>2018-10-21T08:26:20Z</time>
      </trkpt>
      <trkpt lat="45.98637" lon="1.23034">
        <ele>368.32</ele>
        <time>2018-10-21T08:26:21Z</time>
      </trkpt>
      <trkpt lat="45.98618" lon="1.22979">
        <ele>367.84</ele>
        <time>2018-10-21T08:26:30Z</time>
      </trkpt>
      <trkpt lat="45.98617" lon="1.22973">
        <ele>367.84</ele>
        <time>2018-10-21T08:26:31Z</time>
      </trkpt>
      <trkpt lat="45.98617" lon="1.22967">
        <ele>367.84</ele>
        <time>2018-10-21T08:26:32Z</time>
      </trkpt>
      <trkpt lat="45.98618" lon="1.22962">
        <ele>368.32</ele>
        <time>2018-10-21T08:26:33Z</time>
      </trkpt>
      <trkpt lat="45.98619" lon="1.22957">
        <ele>368.32</ele>
        <time>2018-10-21T08:26:34Z</time>
      </trkpt>
      <trkpt lat="45.9862" lon="1.22954">
        <ele>368.32</ele>
        <time>2018-10-21T08:26:35Z</time>
      </trkpt>
      <trkpt lat="45.9862" lon="1.22951">
        <ele>368.8</ele>
        <time>2018-10-21T08:26:36Z</time>
      </trkpt>
      <trkpt lat="45.9862" lon="1.22949">
        <ele>368.8</ele>
        <time>2018-10-21T08:26:37Z</time>
      </trkpt>
      <trkpt lat="45.98618" lon="1.22949">
        <ele>369.28</ele>
        <time>2018-10-21T08:26:38Z</time>
      </trkpt>
      <trkpt lat="45.98616" lon="1.22955">
        <ele>369.28</ele>
        <time>2018-10-21T08:26:40Z</time>
      </trkpt>
      <trkpt lat="45.98615" lon="1.22958">
        <ele>369.76</ele>
        <time>2018-10-21T08:26:41Z</time>
      </trkpt>
      <trkpt lat="45.98618" lon="1.22987">
        <ele>370.24</ele>
        <time>2018-10-21T08:26:46Z</time>
      </trkpt>
      <trkpt lat="45.9862" lon="1.22993">
        <ele>370.24</ele>
        <time>2018-10-21T08:26:47Z</time>
      </trkpt>
      <trkpt lat="45.98622" lon="1.23">
        <ele>370.24</ele>
        <time>2018-10-21T08:26:48Z</time>
      </trkpt>
      <trkpt lat="45.98635" lon="1.23032">
        <ele>369.76</ele>
        <time>2018-10-21T08:26:53Z</time>
      </trkpt>
      <trkpt lat="45.98637" lon="1.23038">
        <ele>369.76</ele>
        <time>2018-10-21T08:26:54Z</time>
      </trkpt>
      <trkpt lat="45.98638" lon="1.23046">
        <ele>369.28</ele>
        <time>2018-10-21T08:26:55Z</time>
      </trkpt>
      <trkpt lat="45.9864" lon="1.23079">
        <ele>368.32</ele>
        <time>2018-10-21T08:27:00Z</time>
      </trkpt>
      <trkpt lat="45.98643" lon="1.23097">
        <ele>367.84</ele>
        <time>2018-10-21T08:27:03Z</time>
      </trkpt>
      <trkpt lat="45.98649" lon="1.23139">
        <ele>368.32</ele>
        <time>2018-10-21T08:27:14Z</time>
      </trkpt>
      <trkpt lat="45.9865" lon="1.23142">
        <ele>368.32</ele>
        <time>2018-10-21T08:27:16Z</time>
      </trkpt>
      <trkpt lat="45.98652" lon="1.23142">
        <ele>368.8</ele>
        <time>2018-10-21T08:27:19Z</time>
      </trkpt>
      <trkpt lat="45.98652" lon="1.2314">
        <ele>368.8</ele>
        <time>2018-10-21T08:27:20Z</time>
      </trkpt>
      <trkpt lat="45.98652" lon="1.23136">
        <ele>368.8</ele>
        <time>2018-10-21T08:27:21Z</time>
      </trkpt>
      <trkpt lat="45.98643" lon="1.23076">
        <ele>369.28</ele>
        <time>2018-10-21T08:27:32Z</time>
      </trkpt>
      <trkpt lat="45.98643" lon="1.23069">
        <ele>369.28</ele>
        <time>2018-10-21T08:27:33Z</time>
      </trkpt>
      <trkpt lat="45.98642" lon="1.23062">
        <ele>369.28</ele>
        <time>2018-10-21T08:27:34Z</time>
      </trkpt>
      <trkpt lat="45.98642" lon="1.23048">
        <ele>368.8</ele>
        <time>2018-10-21T08:27:36Z</time>
      </trkpt>
      <trkpt lat="45.9864" lon="1.23041">
        <ele>368.8</ele>
        <time>2018-10-21T08:27:37Z</time>
      </trkpt>
      <trkpt lat="45.98639" lon="1.23035">
        <ele>368.32</ele>
        <time>2018-10-21T08:27:38Z</time>
      </trkpt>
      <trkpt lat="45.98634" lon="1.23018">
        <ele>368.32</ele>
        <time>2018-10-21T08:27:41Z</time>
      </trkpt>
      <trkpt lat="45.98614" lon="1.22989">
        <ele>368.8</ele>
        <time>2018-10-21T08:27:49Z</time>
      </trkpt>
      <trkpt lat="45.98599" lon="1.22989">
        <ele>368.8</ele>
        <time>2018-10-21T08:27:53Z</time>
      </trkpt>
      <trkpt lat="45.98595" lon="1.22987">
        <ele>368.8</ele>
        <time>2018-10-21T08:27:54Z</time>
      </trkpt>
      <trkpt lat="45.98592" lon="1.22984">
        <ele>368.8</ele>
        <time>2018-10-21T08:27:55Z</time>
      </trkpt>
      <trkpt lat="45.98589" lon="1.22982">
        <ele>368.8</ele>
        <time>2018-10-21T08:27:56Z</time>
      </trkpt>
      <trkpt lat="45.98584" lon="1.22982">
        <ele>368.8</ele>
        <time>2018-10-21T08:27:57Z</time>
      </trkpt>
      <trkpt lat="45.9858" lon="1.22983">
        <ele>368.8</ele>
        <time>2018-10-21T08:27:58Z</time>
      </trkpt>
      <trkpt lat="45.98537" lon="1.22986">
        <ele>368.8</ele>
        <time>2018-10-21T08:28:05Z</time>
      </trkpt>
      <trkpt lat="45.98523" lon="1.22983">
        <ele>368.32</ele>
        <time>2018-10-21T08:28:07Z</time>
      </trkpt>
      <trkpt lat="45.98509" lon="1.22979">
        <ele>367.36</ele>
        <time>2018-10-21T08:28:09Z</time>
      </trkpt>
      <trkpt lat="45.98504" lon="1.22975">
        <ele>366.88</ele>
        <time>2018-10-21T08:28:10Z</time>
      </trkpt>
      <trkpt lat="45.98499" lon="1.22971">
        <ele>365.92</ele>
        <time>2018-10-21T08:28:11Z</time>
      </trkpt>
      <trkpt lat="45.98494" lon="1.22967">
        <ele>365.44</ele>
        <time>2018-10-21T08:28:12Z</time>
      </trkpt>
      <trkpt lat="45.9849" lon="1.22962">
        <ele>364.48</ele>
        <time>2018-10-21T08:28:13Z</time>
      </trkpt>
      <trkpt lat="45.98487" lon="1.22958">
        <ele>364</ele>
        <time>2018-10-21T08:28:14Z</time>
      </trkpt>
      <trkpt lat="45.98483" lon="1.22954">
        <ele>363.04</ele>
        <time>2018-10-21T08:28:15Z</time>
      </trkpt>
      <trkpt lat="45.98479" lon="1.2295">
        <ele>363.04</ele>
        <time>2018-10-21T08:28:16Z</time>
      </trkpt>
      <trkpt lat="45.98474" lon="1.22946">
        <ele>362.55</ele>
        <time>2018-10-21T08:28:17Z</time>
      </trkpt>
      <trkpt lat="45.98416" lon="1.22908">
        <ele>362.07</ele>
        <time>2018-10-21T08:28:29Z</time>
      </trkpt>
      <trkpt lat="45.98377" lon="1.22877">
        <ele>364</ele>
        <time>2018-10-21T08:28:42Z</time>
      </trkpt>
      <trkpt lat="45.98354" lon="1.22863">
        <ele>366.4</ele>
        <time>2018-10-21T08:28:51Z</time>
      </trkpt>
      <trkpt lat="45.98351" lon="1.22861">
        <ele>366.4</ele>
        <time>2018-10-21T08:28:52Z</time>
      </trkpt>
      <trkpt lat="45.98349" lon="1.22859">
        <ele>366.88</ele>
        <time>2018-10-21T08:28:53Z</time>
      </trkpt>
      <trkpt lat="45.98316" lon="1.22831">
        <ele>368.8</ele>
        <time>2018-10-21T08:29:06Z</time>
      </trkpt>
      <trkpt lat="45.9829" lon="1.22801">
        <ele>371.21</ele>
        <time>2018-10-21T08:29:17Z</time>
      </trkpt>
      <trkpt lat="45.98265" lon="1.22755">
        <ele>372.17</ele>
        <time>2018-10-21T08:29:27Z</time>
      </trkpt>
      <trkpt lat="45.98247" lon="1.22688">
        <ele>371.69</ele>
        <time>2018-10-21T08:29:39Z</time>
      </trkpt>
      <trkpt lat="45.98244" lon="1.22625">
        <ele>372.17</ele>
        <time>2018-10-21T08:29:52Z</time>
      </trkpt>
      <trkpt lat="45.98211" lon="1.22584">
        <ele>373.13</ele>
        <time>2018-10-21T08:30:04Z</time>
      </trkpt>
      <trkpt lat="45.98199" lon="1.22552">
        <ele>374.09</ele>
        <time>2018-10-21T08:30:14Z</time>
      </trkpt>
      <trkpt lat="45.98183" lon="1.22514">
        <ele>376.97</ele>
        <time>2018-10-21T08:30:27Z</time>
      </trkpt>
      <trkpt lat="45.98174" lon="1.22498">
        <ele>379.38</ele>
        <time>2018-10-21T08:30:32Z</time>
      </trkpt>
      <trkpt lat="45.98172" lon="1.22495">
        <ele>379.38</ele>
        <time>2018-10-21T08:30:33Z</time>
      </trkpt>
      <trkpt lat="45.9814" lon="1.22465">
        <ele>382.26</ele>
        <time>2018-10-21T08:30:43Z</time>
      </trkpt>
      <trkpt lat="45.98119" lon="1.2244">
        <ele>382.74</ele>
        <time>2018-10-21T08:30:50Z</time>
      </trkpt>
      <trkpt lat="45.98113" lon="1.22428">
        <ele>382.74</ele>
        <time>2018-10-21T08:30:52Z</time>
      </trkpt>
      <trkpt lat="45.98106" lon="1.22418">
        <ele>382.74</ele>
        <time>2018-10-21T08:30:54Z</time>
      </trkpt>
      <trkpt lat="45.98089" lon="1.22393">
        <ele>381.78</ele>
        <time>2018-10-21T08:31:01Z</time>
      </trkpt>
      <trkpt lat="45.98086" lon="1.22392">
        <ele>381.78</ele>
        <time>2018-10-21T08:31:02Z</time>
      </trkpt>
      <trkpt lat="45.98083" lon="1.22391">
        <ele>381.78</ele>
        <time>2018-10-21T08:31:03Z</time>
      </trkpt>
      <trkpt lat="45.9808" lon="1.22388">
        <ele>381.78</ele>
        <time>2018-10-21T08:31:04Z</time>
      </trkpt>
      <trkpt lat="45.98078" lon="1.22383">
        <ele>381.78</ele>
        <time>2018-10-21T08:31:05Z</time>
      </trkpt>
      <trkpt lat="45.98077" lon="1.22377">
        <ele>381.78</ele>
        <time>2018-10-21T08:31:06Z</time>
      </trkpt>
      <trkpt lat="45.98076" lon="1.2237">
        <ele>381.78</ele>
        <time>2018-10-21T08:31:07Z</time>
      </trkpt>
      <trkpt lat="45.98076" lon="1.22362">
        <ele>381.78</ele>
        <time>2018-10-21T08:31:08Z</time>
      </trkpt>
      <trkpt lat="45.98079" lon="1.22345">
        <ele>381.78</ele>
        <time>2018-10-21T08:31:10Z</time>
      </trkpt>
      <trkpt lat="45.98086" lon="1.2232">
        <ele>381.3</ele>
        <time>2018-10-21T08:31:13Z</time>
      </trkpt>
      <trkpt lat="45.98106" lon="1.22261">
        <ele>377.45</ele>
        <time>2018-10-21T08:31:20Z</time>
      </trkpt>
      <trkpt lat="45.98123" lon="1.22228">
        <ele>376.49</ele>
        <time>2018-10-21T08:31:24Z</time>
      </trkpt>
      <trkpt lat="45.9813" lon="1.22181">
        <ele>372.65</ele>
        <time>2018-10-21T08:31:29Z</time>
      </trkpt>
      <trkpt lat="45.98127" lon="1.22157">
        <ele>370.73</ele>
        <time>2018-10-21T08:31:33Z</time>
      </trkpt>
      <trkpt lat="45.98127" lon="1.22152">
        <ele>370.24</ele>
        <time>2018-10-21T08:31:34Z</time>
      </trkpt>
      <trkpt lat="45.98125" lon="1.22073">
        <ele>369.28</ele>
        <time>2018-10-21T08:31:44Z</time>
      </trkpt>
      <trkpt lat="45.98126" lon="1.22041">
        <ele>368.32</ele>
        <time>2018-10-21T08:31:48Z</time>
      </trkpt>
      <trkpt lat="45.98136" lon="1.21999">
        <ele>366.88</ele>
        <time>2018-10-21T08:31:54Z</time>
      </trkpt>
      <trkpt lat="45.98141" lon="1.21978">
        <ele>366.4</ele>
        <time>2018-10-21T08:31:57Z</time>
      </trkpt>
      <trkpt lat="45.98155" lon="1.21956">
        <ele>365.92</ele>
        <time>2018-10-21T08:32:00Z</time>
      </trkpt>
      <trkpt lat="45.98162" lon="1.21946">
        <ele>364.96</ele>
        <time>2018-10-21T08:32:02Z</time>
      </trkpt>
      <trkpt lat="45.98196" lon="1.21912">
        <ele>364.48</ele>
        <time>2018-10-21T08:32:14Z</time>
      </trkpt>
      <trkpt lat="45.98216" lon="1.21868">
        <ele>367.36</ele>
        <time>2018-10-21T08:32:25Z</time>
      </trkpt>
      <trkpt lat="45.98236" lon="1.21817">
        <ele>369.28</ele>
        <time>2018-10-21T08:32:36Z</time>
      </trkpt>
      <trkpt lat="45.98242" lon="1.21762">
        <ele>370.73</ele>
        <time>2018-10-21T08:32:46Z</time>
      </trkpt>
      <trkpt lat="45.98241" lon="1.21719">
        <ele>372.17</ele>
        <time>2018-10-21T08:32:53Z</time>
      </trkpt>
      <trkpt lat="45.98236" lon="1.21702">
        <ele>373.13</ele>
        <time>2018-10-21T08:32:58Z</time>
      </trkpt>
      <trkpt lat="45.98229" lon="1.21668">
        <ele>376.49</ele>
        <time>2018-10-21T08:33:08Z</time>
      </trkpt>
      <trkpt lat="45.98227" lon="1.21664">
        <ele>377.94</ele>
        <time>2018-10-21T08:33:16Z</time>
      </trkpt>
      <trkpt lat="45.9822" lon="1.21662">
        <ele>378.42</ele>
        <time>2018-10-21T08:33:22Z</time>
      </trkpt>
      <trkpt lat="45.98222" lon="1.21655">
        <ele>378.9</ele>
        <time>2018-10-21T08:33:28Z</time>
      </trkpt>
      <trkpt lat="45.98239" lon="1.21657">
        <ele>378.9</ele>
        <time>2018-10-21T08:33:38Z</time>
      </trkpt>
      <trkpt lat="45.98241" lon="1.21654">
        <ele>378.9</ele>
        <time>2018-10-21T08:33:39Z</time>
      </trkpt>
      <trkpt lat="45.98243" lon="1.2165">
        <ele>378.9</ele>
        <time>2018-10-21T08:33:40Z</time>
      </trkpt>
      <trkpt lat="45.98245" lon="1.21645">
        <ele>378.9</ele>
        <time>2018-10-21T08:33:41Z</time>
      </trkpt>
      <trkpt lat="45.98247" lon="1.21641">
        <ele>378.9</ele>
        <time>2018-10-21T08:33:42Z</time>
      </trkpt>
      <trkpt lat="45.98271" lon="1.2159">
        <ele>376.49</ele>
        <time>2018-10-21T08:33:52Z</time>
      </trkpt>
      <trkpt lat="45.983" lon="1.21563">
        <ele>376.97</ele>
        <time>2018-10-21T08:34:06Z</time>
      </trkpt>
      <trkpt lat="45.98312" lon="1.21558">
        <ele>377.94</ele>
        <time>2018-10-21T08:34:11Z</time>
      </trkpt>
      <trkpt lat="45.98316" lon="1.21557">
        <ele>378.42</ele>
        <time>2018-10-21T08:34:14Z</time>
      </trkpt>
      <trkpt lat="45.98328" lon="1.21554">
        <ele>380.82</ele>
        <time>2018-10-21T08:34:21Z</time>
      </trkpt>
      <trkpt lat="45.98347" lon="1.21541">
        <ele>383.22</ele>
        <time>2018-10-21T08:34:33Z</time>
      </trkpt>
      <trkpt lat="45.98352" lon="1.2153">
        <ele>384.66</ele>
        <time>2018-10-21T08:34:38Z</time>
      </trkpt>
      <trkpt lat="45.98365" lon="1.21513">
        <ele>385.63</ele>
        <time>2018-10-21T08:34:48Z</time>
      </trkpt>
      <trkpt lat="45.98375" lon="1.21499">
        <ele>386.11</ele>
        <time>2018-10-21T08:34:57Z</time>
      </trkpt>
      <trkpt lat="45.98379" lon="1.21492">
        <ele>386.59</ele>
        <time>2018-10-21T08:35:02Z</time>
      </trkpt>
      <trkpt lat="45.98383" lon="1.21487">
        <ele>386.59</ele>
        <time>2018-10-21T08:35:05Z</time>
      </trkpt>
      <trkpt lat="45.98406" lon="1.21469">
        <ele>389.47</ele>
        <time>2018-10-21T08:35:23Z</time>
      </trkpt>
      <trkpt lat="45.98411" lon="1.21467">
        <ele>389.95</ele>
        <time>2018-10-21T08:35:26Z</time>
      </trkpt>
      <trkpt lat="45.98417" lon="1.21464">
        <ele>390.43</ele>
        <time>2018-10-21T08:35:30Z</time>
      </trkpt>
      <trkpt lat="45.98423" lon="1.21458">
        <ele>391.87</ele>
        <time>2018-10-21T08:35:36Z</time>
      </trkpt>
      <trkpt lat="45.9843" lon="1.21453">
        <ele>392.84</ele>
        <time>2018-10-21T08:35:41Z</time>
      </trkpt>
      <trkpt lat="45.9844" lon="1.21441">
        <ele>394.28</ele>
        <time>2018-10-21T08:35:50Z</time>
      </trkpt>
      <trkpt lat="45.98441" lon="1.21439">
        <ele>394.28</ele>
        <time>2018-10-21T08:35:51Z</time>
      </trkpt>
      <trkpt lat="45.98447" lon="1.21422">
        <ele>395.72</ele>
        <time>2018-10-21T08:36:03Z</time>
      </trkpt>
      <trkpt lat="45.9844" lon="1.21415">
        <ele>396.2</ele>
        <time>2018-10-21T08:36:07Z</time>
      </trkpt>
      <trkpt lat="45.98432" lon="1.21411">
        <ele>396.68</ele>
        <time>2018-10-21T08:36:11Z</time>
      </trkpt>
      <trkpt lat="45.98432" lon="1.21413">
        <ele>396.68</ele>
        <time>2018-10-21T08:36:12Z</time>
      </trkpt>
      <trkpt lat="45.98432" lon="1.21415">
        <ele>396.68</ele>
        <time>2018-10-21T08:36:13Z</time>
      </trkpt>
      <trkpt lat="45.98432" lon="1.21419">
        <ele>396.68</ele>
        <time>2018-10-21T08:36:15Z</time>
      </trkpt>
      <trkpt lat="45.98435" lon="1.21418">
        <ele>396.68</ele>
        <time>2018-10-21T08:36:17Z</time>
      </trkpt>
      <trkpt lat="45.98452" lon="1.21418">
        <ele>396.68</ele>
        <time>2018-10-21T08:36:31Z</time>
      </trkpt>
      <trkpt lat="45.98473" lon="1.21422">
        <ele>397.16</ele>
        <time>2018-10-21T08:36:45Z</time>
      </trkpt>
      <trkpt lat="45.98509" lon="1.21433">
        <ele>397.64</ele>
        <time>2018-10-21T08:37:07Z</time>
      </trkpt>
      <trkpt lat="45.98524" lon="1.21434">
        <ele>398.6</ele>
        <time>2018-10-21T08:37:17Z</time>
      </trkpt>
      <trkpt lat="45.98525" lon="1.21434">
        <ele>398.6</ele>
        <time>2018-10-21T08:37:18Z</time>
      </trkpt>
      <trkpt lat="45.98526" lon="1.21434">
        <ele>398.6</ele>
        <time>2018-10-21T08:37:19Z</time>
      </trkpt>
      <trkpt lat="45.98543" lon="1.21444">
        <ele>399.57</ele>
        <time>2018-10-21T08:37:32Z</time>
      </trkpt>
      <trkpt lat="45.98543" lon="1.21439">
        <ele>400.05</ele>
        <time>2018-10-21T08:37:39Z</time>
      </trkpt>
      <trkpt lat="45.98536" lon="1.21439">
        <ele>400.05</ele>
        <time>2018-10-21T08:37:43Z</time>
      </trkpt>
      <trkpt lat="45.98492" lon="1.21425">
        <ele>399.08</ele>
        <time>2018-10-21T08:37:59Z</time>
      </trkpt>
      <trkpt lat="45.98464" lon="1.21416">
        <ele>397.16</ele>
        <time>2018-10-21T08:38:10Z</time>
      </trkpt>
      <trkpt lat="45.98463" lon="1.21417">
        <ele>397.16</ele>
        <time>2018-10-21T08:38:11Z</time>
      </trkpt>
      <trkpt lat="45.98468" lon="1.2142">
        <ele>397.16</ele>
        <time>2018-10-21T08:38:14Z</time>
      </trkpt>
      <trkpt lat="45.98501" lon="1.21429">
        <ele>397.16</ele>
        <time>2018-10-21T08:38:28Z</time>
      </trkpt>
      <trkpt lat="45.98527" lon="1.21418">
        <ele>398.12</ele>
        <time>2018-10-21T08:38:41Z</time>
      </trkpt>
      <trkpt lat="45.98526" lon="1.21372">
        <ele>398.12</ele>
        <time>2018-10-21T08:38:50Z</time>
      </trkpt>
      <trkpt lat="45.98525" lon="1.21365">
        <ele>398.12</ele>
        <time>2018-10-21T08:38:51Z</time>
      </trkpt>
      <trkpt lat="45.98524" lon="1.21357">
        <ele>398.12</ele>
        <time>2018-10-21T08:38:52Z</time>
      </trkpt>
      <trkpt lat="45.98521" lon="1.21349">
        <ele>397.64</ele>
        <time>2018-10-21T08:38:53Z</time>
      </trkpt>
      <trkpt lat="45.98519" lon="1.21342">
        <ele>397.16</ele>
        <time>2018-10-21T08:38:54Z</time>
      </trkpt>
      <trkpt lat="45.98515" lon="1.21335">
        <ele>396.2</ele>
        <time>2018-10-21T08:38:55Z</time>
      </trkpt>
      <trkpt lat="45.98511" lon="1.21329">
        <ele>396.2</ele>
        <time>2018-10-21T08:38:56Z</time>
      </trkpt>
      <trkpt lat="45.98509" lon="1.21323">
        <ele>395.72</ele>
        <time>2018-10-21T08:38:57Z</time>
      </trkpt>
      <trkpt lat="45.98507" lon="1.21316">
        <ele>395.72</ele>
        <time>2018-10-21T08:38:58Z</time>
      </trkpt>
      <trkpt lat="45.98506" lon="1.2131">
        <ele>395.24</ele>
        <time>2018-10-21T08:38:59Z</time>
      </trkpt>
      <trkpt lat="45.98506" lon="1.21304">
        <ele>394.76</ele>
        <time>2018-10-21T08:39:00Z</time>
      </trkpt>
      <trkpt lat="45.98507" lon="1.21298">
        <ele>393.8</ele>
        <time>2018-10-21T08:39:01Z</time>
      </trkpt>
      <trkpt lat="45.98509" lon="1.21294">
        <ele>393.8</ele>
        <time>2018-10-21T08:39:02Z</time>
      </trkpt>
      <trkpt lat="45.98511" lon="1.21289">
        <ele>393.32</ele>
        <time>2018-10-21T08:39:03Z</time>
      </trkpt>
      <trkpt lat="45.9853" lon="1.21256">
        <ele>392.36</ele>
        <time>2018-10-21T08:39:10Z</time>
      </trkpt>
      <trkpt lat="45.98534" lon="1.2125">
        <ele>391.87</ele>
        <time>2018-10-21T08:39:11Z</time>
      </trkpt>
      <trkpt lat="45.9854" lon="1.21236">
        <ele>391.39</ele>
        <time>2018-10-21T08:39:13Z</time>
      </trkpt>
      <trkpt lat="45.98542" lon="1.21228">
        <ele>391.39</ele>
        <time>2018-10-21T08:39:14Z</time>
      </trkpt>
      <trkpt lat="45.98544" lon="1.2122">
        <ele>390.91</ele>
        <time>2018-10-21T08:39:15Z</time>
      </trkpt>
      <trkpt lat="45.98546" lon="1.21212">
        <ele>390.43</ele>
        <time>2018-10-21T08:39:16Z</time>
      </trkpt>
      <trkpt lat="45.98548" lon="1.21204">
        <ele>389.47</ele>
        <time>2018-10-21T08:39:17Z</time>
      </trkpt>
      <trkpt lat="45.9855" lon="1.21196">
        <ele>388.99</ele>
        <time>2018-10-21T08:39:18Z</time>
      </trkpt>
      <trkpt lat="45.98551" lon="1.21187">
        <ele>388.99</ele>
        <time>2018-10-21T08:39:19Z</time>
      </trkpt>
      <trkpt lat="45.98556" lon="1.21136">
        <ele>387.55</ele>
        <time>2018-10-21T08:39:24Z</time>
      </trkpt>
      <trkpt lat="45.98557" lon="1.21124">
        <ele>387.07</ele>
        <time>2018-10-21T08:39:25Z</time>
      </trkpt>
      <trkpt lat="45.98555" lon="1.21099">
        <ele>386.11</ele>
        <time>2018-10-21T08:39:27Z</time>
      </trkpt>
      <trkpt lat="45.98556" lon="1.21051">
        <ele>381.78</ele>
        <time>2018-10-21T08:39:32Z</time>
      </trkpt>
      <trkpt lat="45.98555" lon="1.21032">
        <ele>380.34</ele>
        <time>2018-10-21T08:39:34Z</time>
      </trkpt>
      <trkpt lat="45.9853" lon="1.20998">
        <ele>376.97</ele>
        <time>2018-10-21T08:39:40Z</time>
      </trkpt>
      <trkpt lat="45.98486" lon="1.20973">
        <ele>374.09</ele>
        <time>2018-10-21T08:39:46Z</time>
      </trkpt>
      <trkpt lat="45.98462" lon="1.20952">
        <ele>372.65</ele>
        <time>2018-10-21T08:39:52Z</time>
      </trkpt>
      <trkpt lat="45.98456" lon="1.20942">
        <ele>372.17</ele>
        <time>2018-10-21T08:39:54Z</time>
      </trkpt>
      <trkpt lat="45.98458" lon="1.20911">
        <ele>370.24</ele>
        <time>2018-10-21T08:39:59Z</time>
      </trkpt>
      <trkpt lat="45.98461" lon="1.209">
        <ele>369.28</ele>
        <time>2018-10-21T08:40:01Z</time>
      </trkpt>
      <trkpt lat="45.98466" lon="1.20881">
        <ele>367.84</ele>
        <time>2018-10-21T08:40:04Z</time>
      </trkpt>
      <trkpt lat="45.98459" lon="1.20839">
        <ele>364.48</ele>
        <time>2018-10-21T08:40:13Z</time>
      </trkpt>
      <trkpt lat="45.98454" lon="1.20837">
        <ele>364</ele>
        <time>2018-10-21T08:40:14Z</time>
      </trkpt>
      <trkpt lat="45.98433" lon="1.20834">
        <ele>363.04</ele>
        <time>2018-10-21T08:40:23Z</time>
      </trkpt>
      <trkpt lat="45.98416" lon="1.20838">
        <ele>365.44</ele>
        <time>2018-10-21T08:40:37Z</time>
      </trkpt>
      <trkpt lat="45.98406" lon="1.20837">
        <ele>366.4</ele>
        <time>2018-10-21T08:40:49Z</time>
      </trkpt>
      <trkpt lat="45.98409" lon="1.20816">
        <ele>367.36</ele>
        <time>2018-10-21T08:41:00Z</time>
      </trkpt>
      <trkpt lat="45.98411" lon="1.20808">
        <ele>367.36</ele>
        <time>2018-10-21T08:41:03Z</time>
      </trkpt>
      <trkpt lat="45.98416" lon="1.20772">
        <ele>368.32</ele>
        <time>2018-10-21T08:41:12Z</time>
      </trkpt>
      <trkpt lat="45.98415" lon="1.20767">
        <ele>368.32</ele>
        <time>2018-10-21T08:41:13Z</time>
      </trkpt>
      <trkpt lat="45.98403" lon="1.20714">
        <ele>368.8</ele>
        <time>2018-10-21T08:41:25Z</time>
      </trkpt>
      <trkpt lat="45.98403" lon="1.20648">
        <ele>368.32</ele>
        <time>2018-10-21T08:41:36Z</time>
      </trkpt>
      <trkpt lat="45.98414" lon="1.20629">
        <ele>367.84</ele>
        <time>2018-10-21T08:41:39Z</time>
      </trkpt>
      <trkpt lat="45.98416" lon="1.20622">
        <ele>367.84</ele>
        <time>2018-10-21T08:41:40Z</time>
      </trkpt>
      <trkpt lat="45.9842" lon="1.20604">
        <ele>367.36</ele>
        <time>2018-10-21T08:41:42Z</time>
      </trkpt>
      <trkpt lat="45.98432" lon="1.20557">
        <ele>365.44</ele>
        <time>2018-10-21T08:41:50Z</time>
      </trkpt>
      <trkpt lat="45.98439" lon="1.20538">
        <ele>365.44</ele>
        <time>2018-10-21T08:41:53Z</time>
      </trkpt>
      <trkpt lat="45.98442" lon="1.20523">
        <ele>366.4</ele>
        <time>2018-10-21T08:41:55Z</time>
      </trkpt>
      <trkpt lat="45.98449" lon="1.20472">
        <ele>366.4</ele>
        <time>2018-10-21T08:42:01Z</time>
      </trkpt>
      <trkpt lat="45.98456" lon="1.20432">
        <ele>364.96</ele>
        <time>2018-10-21T08:42:07Z</time>
      </trkpt>
      <trkpt lat="45.98456" lon="1.20426">
        <ele>364.48</ele>
        <time>2018-10-21T08:42:08Z</time>
      </trkpt>
      <trkpt lat="45.98456" lon="1.20421">
        <ele>364</ele>
        <time>2018-10-21T08:42:09Z</time>
      </trkpt>
      <trkpt lat="45.98456" lon="1.20419">
        <ele>363.52</ele>
        <time>2018-10-21T08:42:10Z</time>
      </trkpt>
      <trkpt lat="45.98456" lon="1.20417">
        <ele>363.04</ele>
        <time>2018-10-21T08:42:11Z</time>
      </trkpt>
      <trkpt lat="45.98454" lon="1.20409">
        <ele>359.19</ele>
        <time>2018-10-21T08:42:16Z</time>
      </trkpt>
      <trkpt lat="45.98441" lon="1.20398">
        <ele>358.23</ele>
        <time>2018-10-21T08:42:23Z</time>
      </trkpt>
      <trkpt lat="45.9844" lon="1.20387">
        <ele>358.23</ele>
        <time>2018-10-21T08:42:31Z</time>
      </trkpt>
      <trkpt lat="45.98462" lon="1.20376">
        <ele>359.67</ele>
        <time>2018-10-21T08:42:43Z</time>
      </trkpt>
      <trkpt lat="45.9847" lon="1.20371">
        <ele>360.63</ele>
        <time>2018-10-21T08:42:51Z</time>
      </trkpt>
      <trkpt lat="45.98485" lon="1.20368">
        <ele>361.59</ele>
        <time>2018-10-21T08:42:55Z</time>
      </trkpt>
      <trkpt lat="45.98528" lon="1.20367">
        <ele>364</ele>
        <time>2018-10-21T08:43:08Z</time>
      </trkpt>
      <trkpt lat="45.98553" lon="1.20376">
        <ele>366.4</ele>
        <time>2018-10-21T08:43:17Z</time>
      </trkpt>
      <trkpt lat="45.98563" lon="1.20383">
        <ele>367.84</ele>
        <time>2018-10-21T08:43:23Z</time>
      </trkpt>
      <trkpt lat="45.98592" lon="1.20409">
        <ele>371.21</ele>
        <time>2018-10-21T08:43:38Z</time>
      </trkpt>
      <trkpt lat="45.98608" lon="1.20421">
        <ele>373.61</ele>
        <time>2018-10-21T08:43:51Z</time>
      </trkpt>
      <trkpt lat="45.98621" lon="1.20428">
        <ele>375.53</ele>
        <time>2018-10-21T08:44:01Z</time>
      </trkpt>
      <trkpt lat="45.98631" lon="1.2044">
        <ele>376.97</ele>
        <time>2018-10-21T08:44:08Z</time>
      </trkpt>
      <trkpt lat="45.98654" lon="1.20466">
        <ele>379.38</ele>
        <time>2018-10-21T08:44:23Z</time>
      </trkpt>
      <trkpt lat="45.98666" lon="1.20481">
        <ele>380.82</ele>
        <time>2018-10-21T08:44:31Z</time>
      </trkpt>
      <trkpt lat="45.98689" lon="1.20489">
        <ele>383.7</ele>
        <time>2018-10-21T08:44:49Z</time>
      </trkpt>
      <trkpt lat="45.98713" lon="1.20492">
        <ele>386.59</ele>
        <time>2018-10-21T08:45:04Z</time>
      </trkpt>
      <trkpt lat="45.98738" lon="1.20503">
        <ele>389.47</ele>
        <time>2018-10-21T08:45:18Z</time>
      </trkpt>
      <trkpt lat="45.98758" lon="1.20518">
        <ele>392.36</ele>
        <time>2018-10-21T08:45:30Z</time>
      </trkpt>
      <trkpt lat="45.9878" lon="1.20544">
        <ele>395.24</ele>
        <time>2018-10-21T08:45:42Z</time>
      </trkpt>
      <trkpt lat="45.98792" lon="1.20567">
        <ele>396.2</ele>
        <time>2018-10-21T08:45:51Z</time>
      </trkpt>
      <trkpt lat="45.98789" lon="1.20585">
        <ele>396.68</ele>
        <time>2018-10-21T08:45:59Z</time>
      </trkpt>
      <trkpt lat="45.9879" lon="1.20596">
        <ele>397.16</ele>
        <time>2018-10-21T08:46:03Z</time>
      </trkpt>
      <trkpt lat="45.98794" lon="1.20631">
        <ele>398.6</ele>
        <time>2018-10-21T08:46:15Z</time>
      </trkpt>
      <trkpt lat="45.98798" lon="1.20643">
        <ele>399.57</ele>
        <time>2018-10-21T08:46:19Z</time>
      </trkpt>
      <trkpt lat="45.98801" lon="1.20661">
        <ele>400.53</ele>
        <time>2018-10-21T08:46:26Z</time>
      </trkpt>
      <trkpt lat="45.98802" lon="1.20688">
        <ele>401.97</ele>
        <time>2018-10-21T08:46:37Z</time>
      </trkpt>
      <trkpt lat="45.98803" lon="1.20696">
        <ele>402.45</ele>
        <time>2018-10-21T08:46:40Z</time>
      </trkpt>
      <trkpt lat="45.98827" lon="1.20704">
        <ele>403.41</ele>
        <time>2018-10-21T08:46:51Z</time>
      </trkpt>
      <trkpt lat="45.98854" lon="1.20711">
        <ele>404.85</ele>
        <time>2018-10-21T08:47:01Z</time>
      </trkpt>
      <trkpt lat="45.98873" lon="1.20716">
        <ele>405.81</ele>
        <time>2018-10-21T08:47:09Z</time>
      </trkpt>
      <trkpt lat="45.98879" lon="1.20719">
        <ele>406.29</ele>
        <time>2018-10-21T08:47:12Z</time>
      </trkpt>
      <trkpt lat="45.98891" lon="1.20722">
        <ele>407.74</ele>
        <time>2018-10-21T08:47:18Z</time>
      </trkpt>
      <trkpt lat="45.98902" lon="1.20725">
        <ele>408.7</ele>
        <time>2018-10-21T08:47:23Z</time>
      </trkpt>
      <trkpt lat="45.98924" lon="1.20732">
        <ele>410.14</ele>
        <time>2018-10-21T08:47:33Z</time>
      </trkpt>
      <trkpt lat="45.98947" lon="1.20733">
        <ele>412.06</ele>
        <time>2018-10-21T08:47:45Z</time>
      </trkpt>
      <trkpt lat="45.98954" lon="1.20734">
        <ele>413.02</ele>
        <time>2018-10-21T08:47:49Z</time>
      </trkpt>
      <trkpt lat="45.9896" lon="1.20734">
        <ele>413.98</ele>
        <time>2018-10-21T08:47:54Z</time>
      </trkpt>
      <trkpt lat="45.98968" lon="1.20735">
        <ele>414.95</ele>
        <time>2018-10-21T08:47:59Z</time>
      </trkpt>
      <trkpt lat="45.98987" lon="1.20723">
        <ele>417.83</ele>
        <time>2018-10-21T08:48:11Z</time>
      </trkpt>
      <trkpt lat="45.98988" lon="1.20722">
        <ele>417.83</ele>
        <time>2018-10-21T08:48:12Z</time>
      </trkpt>
      <trkpt lat="45.99002" lon="1.20697">
        <ele>419.27</ele>
        <time>2018-10-21T08:48:27Z</time>
      </trkpt>
      <trkpt lat="45.9901" lon="1.20685">
        <ele>420.23</ele>
        <time>2018-10-21T08:48:35Z</time>
      </trkpt>
      <trkpt lat="45.99011" lon="1.20683">
        <ele>420.71</ele>
        <time>2018-10-21T08:48:36Z</time>
      </trkpt>
      <trkpt lat="45.99015" lon="1.2067">
        <ele>421.68</ele>
        <time>2018-10-21T08:48:42Z</time>
      </trkpt>
      <trkpt lat="45.99015" lon="1.20666">
        <ele>421.68</ele>
        <time>2018-10-21T08:48:43Z</time>
      </trkpt>
      <trkpt lat="45.99014" lon="1.20664">
        <ele>421.68</ele>
        <time>2018-10-21T08:48:44Z</time>
      </trkpt>
      <trkpt lat="45.99012" lon="1.20661">
        <ele>421.68</ele>
        <time>2018-10-21T08:48:45Z</time>
      </trkpt>
      <trkpt lat="45.99011" lon="1.20658">
        <ele>422.16</ele>
        <time>2018-10-21T08:48:46Z</time>
      </trkpt>
      <trkpt lat="45.9901" lon="1.20655">
        <ele>422.16</ele>
        <time>2018-10-21T08:48:47Z</time>
      </trkpt>
      <trkpt lat="45.99009" lon="1.20652">
        <ele>422.16</ele>
        <time>2018-10-21T08:48:48Z</time>
      </trkpt>
      <trkpt lat="45.99008" lon="1.2065">
        <ele>422.64</ele>
        <time>2018-10-21T08:48:49Z</time>
      </trkpt>
      <trkpt lat="45.99006" lon="1.20647">
        <ele>422.64</ele>
        <time>2018-10-21T08:48:50Z</time>
      </trkpt>
      <trkpt lat="45.99005" lon="1.20646">
        <ele>422.64</ele>
        <time>2018-10-21T08:48:51Z</time>
      </trkpt>
      <trkpt lat="45.98998" lon="1.20637">
        <ele>422.64</ele>
        <time>2018-10-21T08:48:57Z</time>
      </trkpt>
      <trkpt lat="45.98996" lon="1.20636">
        <ele>422.64</ele>
        <time>2018-10-21T08:48:58Z</time>
      </trkpt>
      <trkpt lat="45.98995" lon="1.20633">
        <ele>423.12</ele>
        <time>2018-10-21T08:48:59Z</time>
      </trkpt>
      <trkpt lat="45.98994" lon="1.20631">
        <ele>423.12</ele>
        <time>2018-10-21T08:49:00Z</time>
      </trkpt>
      <trkpt lat="45.98993" lon="1.20629">
        <ele>423.6</ele>
        <time>2018-10-21T08:49:01Z</time>
      </trkpt>
      <trkpt lat="45.98991" lon="1.20627">
        <ele>423.6</ele>
        <time>2018-10-21T08:49:02Z</time>
      </trkpt>
      <trkpt lat="45.9899" lon="1.20626">
        <ele>423.6</ele>
        <time>2018-10-21T08:49:03Z</time>
      </trkpt>
      <trkpt lat="45.98978" lon="1.20606">
        <ele>426.96</ele>
        <time>2018-10-21T08:49:13Z</time>
      </trkpt>
      <trkpt lat="45.98973" lon="1.20598">
        <ele>427.92</ele>
        <time>2018-10-21T08:49:17Z</time>
      </trkpt>
      <trkpt lat="45.98971" lon="1.20596">
        <ele>427.92</ele>
        <time>2018-10-21T08:49:18Z</time>
      </trkpt>
      <trkpt lat="45.98954" lon="1.20573">
        <ele>429.37</ele>
        <time>2018-10-21T08:49:29Z</time>
      </trkpt>
      <trkpt lat="45.98952" lon="1.2057">
        <ele>429.37</ele>
        <time>2018-10-21T08:49:30Z</time>
      </trkpt>
      <trkpt lat="45.98951" lon="1.20568">
        <ele>429.85</ele>
        <time>2018-10-21T08:49:31Z</time>
      </trkpt>
      <trkpt lat="45.98938" lon="1.20542">
        <ele>430.33</ele>
        <time>2018-10-21T08:49:43Z</time>
      </trkpt>
      <trkpt lat="45.98937" lon="1.20542">
        <ele>430.33</ele>
        <time>2018-10-21T08:49:46Z</time>
      </trkpt>
      <trkpt lat="45.98942" lon="1.20551">
        <ele>430.81</ele>
        <time>2018-10-21T08:50:00Z</time>
      </trkpt>
      <trkpt lat="45.98949" lon="1.20568">
        <ele>430.81</ele>
        <time>2018-10-21T08:50:07Z</time>
      </trkpt>
      <trkpt lat="45.9895" lon="1.20572">
        <ele>430.33</ele>
        <time>2018-10-21T08:50:08Z</time>
      </trkpt>
      <trkpt lat="45.98952" lon="1.20574">
        <ele>430.33</ele>
        <time>2018-10-21T08:50:09Z</time>
      </trkpt>
      <trkpt lat="45.98966" lon="1.20593">
        <ele>429.85</ele>
        <time>2018-10-21T08:50:19Z</time>
      </trkpt>
      <trkpt lat="45.98971" lon="1.206">
        <ele>429.37</ele>
        <time>2018-10-21T08:50:22Z</time>
      </trkpt>
      <trkpt lat="45.98973" lon="1.20603">
        <ele>429.37</ele>
        <time>2018-10-21T08:50:23Z</time>
      </trkpt>
      <trkpt lat="45.98974" lon="1.20606">
        <ele>429.37</ele>
        <time>2018-10-21T08:50:24Z</time>
      </trkpt>
      <trkpt lat="45.98975" lon="1.20609">
        <ele>429.37</ele>
        <time>2018-10-21T08:50:25Z</time>
      </trkpt>
      <trkpt lat="45.98977" lon="1.20611">
        <ele>429.37</ele>
        <time>2018-10-21T08:50:26Z</time>
      </trkpt>
      <trkpt lat="45.98979" lon="1.20613">
        <ele>429.37</ele>
        <time>2018-10-21T08:50:27Z</time>
      </trkpt>
      <trkpt lat="45.98981" lon="1.20616">
        <ele>428.89</ele>
        <time>2018-10-21T08:50:28Z</time>
      </trkpt>
      <trkpt lat="45.99004" lon="1.20646">
        <ele>427.44</ele>
        <time>2018-10-21T08:50:38Z</time>
      </trkpt>
      <trkpt lat="45.99009" lon="1.20662">
        <ele>425.04</ele>
        <time>2018-10-21T08:50:43Z</time>
      </trkpt>
      <trkpt lat="45.99009" lon="1.20665">
        <ele>424.56</ele>
        <time>2018-10-21T08:50:44Z</time>
      </trkpt>
      <trkpt lat="45.99011" lon="1.20674">
        <ele>422.16</ele>
        <time>2018-10-21T08:51:01Z</time>
      </trkpt>
      <trkpt lat="45.99013" lon="1.20672">
        <ele>422.16</ele>
        <time>2018-10-21T08:51:05Z</time>
      </trkpt>
      <trkpt lat="45.99005" lon="1.20656">
        <ele>422.64</ele>
        <time>2018-10-21T08:53:20Z</time>
      </trkpt>
      <trkpt lat="45.98997" lon="1.20635">
        <ele>422.64</ele>
        <time>2018-10-21T08:53:34Z</time>
      </trkpt>
      <trkpt lat="45.98985" lon="1.2062">
        <ele>423.6</ele>
        <time>2018-10-21T08:53:42Z</time>
      </trkpt>
      <trkpt lat="45.98984" lon="1.20619">
        <ele>424.08</ele>
        <time>2018-10-21T08:53:43Z</time>
      </trkpt>
      <trkpt lat="45.98972" lon="1.206">
        <ele>426.96</ele>
        <time>2018-10-21T08:53:54Z</time>
      </trkpt>
      <trkpt lat="45.98971" lon="1.20598">
        <ele>427.44</ele>
        <time>2018-10-21T08:53:55Z</time>
      </trkpt>
      <trkpt lat="45.9897" lon="1.20596">
        <ele>427.44</ele>
        <time>2018-10-21T08:53:56Z</time>
      </trkpt>
      <trkpt lat="45.98969" lon="1.20593">
        <ele>427.92</ele>
        <time>2018-10-21T08:53:57Z</time>
      </trkpt>
      <trkpt lat="45.98968" lon="1.20591">
        <ele>427.92</ele>
        <time>2018-10-21T08:53:58Z</time>
      </trkpt>
      <trkpt lat="45.98966" lon="1.20589">
        <ele>427.92</ele>
        <time>2018-10-21T08:53:59Z</time>
      </trkpt>
      <trkpt lat="45.98948" lon="1.20561">
        <ele>428.89</ele>
        <time>2018-10-21T08:54:10Z</time>
      </trkpt>
      <trkpt lat="45.98934" lon="1.20523">
        <ele>429.37</ele>
        <time>2018-10-21T08:54:19Z</time>
      </trkpt>
      <trkpt lat="45.98927" lon="1.20509">
        <ele>429.37</ele>
        <time>2018-10-21T08:54:22Z</time>
      </trkpt>
      <trkpt lat="45.98923" lon="1.20504">
        <ele>429.37</ele>
        <time>2018-10-21T08:54:23Z</time>
      </trkpt>
      <trkpt lat="45.9889" lon="1.2045">
        <ele>429.37</ele>
        <time>2018-10-21T08:54:34Z</time>
      </trkpt>
      <trkpt lat="45.98846" lon="1.20379">
        <ele>428.89</ele>
        <time>2018-10-21T08:54:47Z</time>
      </trkpt>
      <trkpt lat="45.98833" lon="1.20349">
        <ele>428.89</ele>
        <time>2018-10-21T08:54:51Z</time>
      </trkpt>
      <trkpt lat="45.98829" lon="1.20342">
        <ele>428.89</ele>
        <time>2018-10-21T08:54:52Z</time>
      </trkpt>
      <trkpt lat="45.98797" lon="1.20282">
        <ele>426.96</ele>
        <time>2018-10-21T08:55:02Z</time>
      </trkpt>
      <trkpt lat="45.98767" lon="1.20218">
        <ele>426.96</ele>
        <time>2018-10-21T08:55:15Z</time>
      </trkpt>
      <trkpt lat="45.98751" lon="1.2017">
        <ele>426.48</ele>
        <time>2018-10-21T08:55:25Z</time>
      </trkpt>
      <trkpt lat="45.98752" lon="1.20164">
        <ele>426</ele>
        <time>2018-10-21T08:55:26Z</time>
      </trkpt>
      <trkpt lat="45.98753" lon="1.2016">
        <ele>426</ele>
        <time>2018-10-21T08:55:27Z</time>
      </trkpt>
      <trkpt lat="45.98754" lon="1.20158">
        <ele>425.52</ele>
        <time>2018-10-21T08:55:28Z</time>
      </trkpt>
      <trkpt lat="45.98755" lon="1.20156">
        <ele>425.52</ele>
        <time>2018-10-21T08:55:29Z</time>
      </trkpt>
      <trkpt lat="45.98756" lon="1.20155">
        <ele>425.52</ele>
        <time>2018-10-21T08:55:30Z</time>
      </trkpt>
      <trkpt lat="45.98781" lon="1.20145">
        <ele>425.04</ele>
        <time>2018-10-21T08:55:39Z</time>
      </trkpt>
      <trkpt lat="45.98794" lon="1.20139">
        <ele>422.64</ele>
        <time>2018-10-21T08:55:43Z</time>
      </trkpt>
      <trkpt lat="45.98798" lon="1.20137">
        <ele>422.64</ele>
        <time>2018-10-21T08:55:44Z</time>
      </trkpt>
      <trkpt lat="45.98802" lon="1.20135">
        <ele>421.19</ele>
        <time>2018-10-21T08:55:45Z</time>
      </trkpt>
      <trkpt lat="45.98806" lon="1.20132">
        <ele>420.71</ele>
        <time>2018-10-21T08:55:46Z</time>
      </trkpt>
      <trkpt lat="45.98818" lon="1.20118">
        <ele>417.35</ele>
        <time>2018-10-21T08:55:50Z</time>
      </trkpt>
      <trkpt lat="45.98828" lon="1.20111">
        <ele>413.98</ele>
        <time>2018-10-21T08:55:54Z</time>
      </trkpt>
      <trkpt lat="45.98832" lon="1.20108">
        <ele>413.02</ele>
        <time>2018-10-21T08:55:55Z</time>
      </trkpt>
      <trkpt lat="45.9884" lon="1.20101">
        <ele>411.58</ele>
        <time>2018-10-21T08:55:57Z</time>
      </trkpt>
      <trkpt lat="45.98843" lon="1.20098">
        <ele>411.58</ele>
        <time>2018-10-21T08:55:58Z</time>
      </trkpt>
      <trkpt lat="45.98846" lon="1.20095">
        <ele>411.58</ele>
        <time>2018-10-21T08:55:59Z</time>
      </trkpt>
      <trkpt lat="45.98848" lon="1.20092">
        <ele>411.1</ele>
        <time>2018-10-21T08:56:01Z</time>
      </trkpt>
      <trkpt lat="45.9885" lon="1.2009">
        <ele>411.1</ele>
        <time>2018-10-21T08:56:02Z</time>
      </trkpt>
      <trkpt lat="45.98851" lon="1.20087">
        <ele>410.62</ele>
        <time>2018-10-21T08:56:03Z</time>
      </trkpt>
      <trkpt lat="45.98852" lon="1.20084">
        <ele>410.14</ele>
        <time>2018-10-21T08:56:04Z</time>
      </trkpt>
      <trkpt lat="45.98853" lon="1.2008">
        <ele>410.14</ele>
        <time>2018-10-21T08:56:05Z</time>
      </trkpt>
      <trkpt lat="45.98855" lon="1.20077">
        <ele>409.66</ele>
        <time>2018-10-21T08:56:06Z</time>
      </trkpt>
      <trkpt lat="45.98857" lon="1.20073">
        <ele>409.66</ele>
        <time>2018-10-21T08:56:07Z</time>
      </trkpt>
      <trkpt lat="45.9886" lon="1.20069">
        <ele>409.66</ele>
        <time>2018-10-21T08:56:08Z</time>
      </trkpt>
      <trkpt lat="45.98863" lon="1.20064">
        <ele>409.66</ele>
        <time>2018-10-21T08:56:09Z</time>
      </trkpt>
      <trkpt lat="45.98867" lon="1.2006">
        <ele>409.66</ele>
        <time>2018-10-21T08:56:10Z</time>
      </trkpt>
      <trkpt lat="45.98871" lon="1.20054">
        <ele>409.18</ele>
        <time>2018-10-21T08:56:11Z</time>
      </trkpt>
      <trkpt lat="45.98874" lon="1.20049">
        <ele>409.18</ele>
        <time>2018-10-21T08:56:12Z</time>
      </trkpt>
      <trkpt lat="45.98875" lon="1.20045">
        <ele>409.18</ele>
        <time>2018-10-21T08:56:13Z</time>
      </trkpt>
      <trkpt lat="45.98877" lon="1.2004">
        <ele>409.18</ele>
        <time>2018-10-21T08:56:14Z</time>
      </trkpt>
      <trkpt lat="45.98878" lon="1.20035">
        <ele>409.18</ele>
        <time>2018-10-21T08:56:15Z</time>
      </trkpt>
      <trkpt lat="45.9888" lon="1.2003">
        <ele>409.18</ele>
        <time>2018-10-21T08:56:16Z</time>
      </trkpt>
      <trkpt lat="45.98882" lon="1.20026">
        <ele>408.7</ele>
        <time>2018-10-21T08:56:17Z</time>
      </trkpt>
      <trkpt lat="45.98884" lon="1.20021">
        <ele>408.22</ele>
        <time>2018-10-21T08:56:18Z</time>
      </trkpt>
      <trkpt lat="45.98886" lon="1.20016">
        <ele>408.22</ele>
        <time>2018-10-21T08:56:19Z</time>
      </trkpt>
      <trkpt lat="45.98888" lon="1.20011">
        <ele>408.22</ele>
        <time>2018-10-21T08:56:20Z</time>
      </trkpt>
      <trkpt lat="45.98889" lon="1.20007">
        <ele>407.74</ele>
        <time>2018-10-21T08:56:21Z</time>
      </trkpt>
      <trkpt lat="45.98892" lon="1.20003">
        <ele>407.74</ele>
        <time>2018-10-21T08:56:22Z</time>
      </trkpt>
      <trkpt lat="45.98901" lon="1.19993">
        <ele>407.26</ele>
        <time>2018-10-21T08:56:24Z</time>
      </trkpt>
      <trkpt lat="45.98906" lon="1.19989">
        <ele>406.77</ele>
        <time>2018-10-21T08:56:25Z</time>
      </trkpt>
      <trkpt lat="45.98911" lon="1.19983">
        <ele>406.77</ele>
        <time>2018-10-21T08:56:26Z</time>
      </trkpt>
      <trkpt lat="45.98916" lon="1.19977">
        <ele>406.77</ele>
        <time>2018-10-21T08:56:27Z</time>
      </trkpt>
      <trkpt lat="45.9892" lon="1.19971">
        <ele>406.77</ele>
        <time>2018-10-21T08:56:28Z</time>
      </trkpt>
      <trkpt lat="45.98932" lon="1.19949">
        <ele>405.81</ele>
        <time>2018-10-21T08:56:32Z</time>
      </trkpt>
      <trkpt lat="45.98937" lon="1.19938">
        <ele>405.81</ele>
        <time>2018-10-21T08:56:34Z</time>
      </trkpt>
      <trkpt lat="45.9894" lon="1.19931">
        <ele>405.81</ele>
        <time>2018-10-21T08:56:35Z</time>
      </trkpt>
      <trkpt lat="45.98942" lon="1.19926">
        <ele>405.33</ele>
        <time>2018-10-21T08:56:36Z</time>
      </trkpt>
      <trkpt lat="45.98943" lon="1.1992">
        <ele>404.85</ele>
        <time>2018-10-21T08:56:37Z</time>
      </trkpt>
      <trkpt lat="45.98946" lon="1.19913">
        <ele>404.85</ele>
        <time>2018-10-21T08:56:38Z</time>
      </trkpt>
      <trkpt lat="45.98949" lon="1.19909">
        <ele>404.37</ele>
        <time>2018-10-21T08:56:39Z</time>
      </trkpt>
      <trkpt lat="45.98954" lon="1.19905">
        <ele>404.37</ele>
        <time>2018-10-21T08:56:40Z</time>
      </trkpt>
      <trkpt lat="45.98958" lon="1.19901">
        <ele>404.37</ele>
        <time>2018-10-21T08:56:41Z</time>
      </trkpt>
      <trkpt lat="45.98962" lon="1.19897">
        <ele>403.89</ele>
        <time>2018-10-21T08:56:42Z</time>
      </trkpt>
      <trkpt lat="45.98966" lon="1.19891">
        <ele>403.89</ele>
        <time>2018-10-21T08:56:43Z</time>
      </trkpt>
      <trkpt lat="45.98968" lon="1.19884">
        <ele>403.89</ele>
        <time>2018-10-21T08:56:44Z</time>
      </trkpt>
      <trkpt lat="45.9897" lon="1.19873">
        <ele>403.41</ele>
        <time>2018-10-21T08:56:45Z</time>
      </trkpt>
      <trkpt lat="45.9897" lon="1.19862">
        <ele>403.41</ele>
        <time>2018-10-21T08:56:46Z</time>
      </trkpt>
      <trkpt lat="45.98969" lon="1.19841">
        <ele>401.97</ele>
        <time>2018-10-21T08:56:48Z</time>
      </trkpt>
      <trkpt lat="45.9897" lon="1.19831">
        <ele>401.49</ele>
        <time>2018-10-21T08:56:49Z</time>
      </trkpt>
      <trkpt lat="45.98971" lon="1.1982">
        <ele>401.01</ele>
        <time>2018-10-21T08:56:50Z</time>
      </trkpt>
      <trkpt lat="45.98973" lon="1.1981">
        <ele>401.01</ele>
        <time>2018-10-21T08:56:51Z</time>
      </trkpt>
      <trkpt lat="45.98976" lon="1.19801">
        <ele>401.01</ele>
        <time>2018-10-21T08:56:52Z</time>
      </trkpt>
      <trkpt lat="45.98979" lon="1.19793">
        <ele>401.01</ele>
        <time>2018-10-21T08:56:53Z</time>
      </trkpt>
      <trkpt lat="45.98989" lon="1.19772">
        <ele>401.01</ele>
        <time>2018-10-21T08:56:56Z</time>
      </trkpt>
      <trkpt lat="45.98994" lon="1.19767">
        <ele>401.01</ele>
        <time>2018-10-21T08:56:57Z</time>
      </trkpt>
      <trkpt lat="45.98998" lon="1.19765">
        <ele>401.01</ele>
        <time>2018-10-21T08:56:58Z</time>
      </trkpt>
      <trkpt lat="45.99004" lon="1.19765">
        <ele>401.01</ele>
        <time>2018-10-21T08:56:59Z</time>
      </trkpt>
      <trkpt lat="45.99009" lon="1.19767">
        <ele>401.01</ele>
        <time>2018-10-21T08:57:00Z</time>
      </trkpt>
      <trkpt lat="45.99014" lon="1.19771">
        <ele>401.01</ele>
        <time>2018-10-21T08:57:01Z</time>
      </trkpt>
      <trkpt lat="45.99019" lon="1.19775">
        <ele>401.97</ele>
        <time>2018-10-21T08:57:02Z</time>
      </trkpt>
      <trkpt lat="45.99038" lon="1.19793">
        <ele>403.41</ele>
        <time>2018-10-21T08:57:06Z</time>
      </trkpt>
      <trkpt lat="45.99042" lon="1.19796">
        <ele>403.89</ele>
        <time>2018-10-21T08:57:07Z</time>
      </trkpt>
      <trkpt lat="45.99046" lon="1.19797">
        <ele>404.37</ele>
        <time>2018-10-21T08:57:08Z</time>
      </trkpt>
      <trkpt lat="45.99051" lon="1.19796">
        <ele>404.37</ele>
        <time>2018-10-21T08:57:09Z</time>
      </trkpt>
      <trkpt lat="45.99056" lon="1.19794">
        <ele>404.37</ele>
        <time>2018-10-21T08:57:10Z</time>
      </trkpt>
      <trkpt lat="45.9906" lon="1.1979">
        <ele>404.85</ele>
        <time>2018-10-21T08:57:11Z</time>
      </trkpt>
      <trkpt lat="45.99063" lon="1.19786">
        <ele>404.85</ele>
        <time>2018-10-21T08:57:12Z</time>
      </trkpt>
      <trkpt lat="45.99066" lon="1.19782">
        <ele>405.33</ele>
        <time>2018-10-21T08:57:13Z</time>
      </trkpt>
      <trkpt lat="45.99083" lon="1.19752">
        <ele>408.22</ele>
        <time>2018-10-21T08:57:20Z</time>
      </trkpt>
      <trkpt lat="45.99085" lon="1.19746">
        <ele>409.18</ele>
        <time>2018-10-21T08:57:21Z</time>
      </trkpt>
      <trkpt lat="45.99107" lon="1.19671">
        <ele>411.58</ele>
        <time>2018-10-21T08:57:33Z</time>
      </trkpt>
      <trkpt lat="45.9911" lon="1.19665">
        <ele>411.58</ele>
        <time>2018-10-21T08:57:34Z</time>
      </trkpt>
      <trkpt lat="45.99114" lon="1.19661">
        <ele>411.58</ele>
        <time>2018-10-21T08:57:35Z</time>
      </trkpt>
      <trkpt lat="45.99118" lon="1.19658">
        <ele>411.58</ele>
        <time>2018-10-21T08:57:36Z</time>
      </trkpt>
      <trkpt lat="45.99122" lon="1.19656">
        <ele>411.58</ele>
        <time>2018-10-21T08:57:37Z</time>
      </trkpt>
      <trkpt lat="45.99127" lon="1.19655">
        <ele>411.58</ele>
        <time>2018-10-21T08:57:38Z</time>
      </trkpt>
      <trkpt lat="45.99131" lon="1.19654">
        <ele>411.58</ele>
        <time>2018-10-21T08:57:39Z</time>
      </trkpt>
      <trkpt lat="45.99165" lon="1.1965">
        <ele>412.06</ele>
        <time>2018-10-21T08:57:46Z</time>
      </trkpt>
      <trkpt lat="45.9918" lon="1.19646">
        <ele>412.06</ele>
        <time>2018-10-21T08:57:49Z</time>
      </trkpt>
      <trkpt lat="45.99183" lon="1.19642">
        <ele>412.06</ele>
        <time>2018-10-21T08:57:50Z</time>
      </trkpt>
      <trkpt lat="45.99188" lon="1.19638">
        <ele>412.06</ele>
        <time>2018-10-21T08:57:51Z</time>
      </trkpt>
      <trkpt lat="45.99192" lon="1.19634">
        <ele>412.06</ele>
        <time>2018-10-21T08:57:52Z</time>
      </trkpt>
      <trkpt lat="45.99197" lon="1.1963">
        <ele>412.06</ele>
        <time>2018-10-21T08:57:53Z</time>
      </trkpt>
      <trkpt lat="45.99203" lon="1.19626">
        <ele>412.06</ele>
        <time>2018-10-21T08:57:54Z</time>
      </trkpt>
      <trkpt lat="45.99209" lon="1.19621">
        <ele>411.58</ele>
        <time>2018-10-21T08:57:55Z</time>
      </trkpt>
      <trkpt lat="45.99215" lon="1.19613">
        <ele>411.58</ele>
        <time>2018-10-21T08:57:56Z</time>
      </trkpt>
      <trkpt lat="45.9922" lon="1.19606">
        <ele>411.58</ele>
        <time>2018-10-21T08:57:57Z</time>
      </trkpt>
      <trkpt lat="45.99225" lon="1.19597">
        <ele>411.1</ele>
        <time>2018-10-21T08:57:58Z</time>
      </trkpt>
      <trkpt lat="45.99236" lon="1.19575">
        <ele>410.62</ele>
        <time>2018-10-21T08:58:00Z</time>
      </trkpt>
      <trkpt lat="45.99254" lon="1.19533">
        <ele>406.77</ele>
        <time>2018-10-21T08:58:04Z</time>
      </trkpt>
      <trkpt lat="45.99269" lon="1.19501">
        <ele>403.41</ele>
        <time>2018-10-21T08:58:07Z</time>
      </trkpt>
      <trkpt lat="45.99281" lon="1.19476">
        <ele>399.57</ele>
        <time>2018-10-21T08:58:10Z</time>
      </trkpt>
      <trkpt lat="45.99285" lon="1.19468">
        <ele>398.6</ele>
        <time>2018-10-21T08:58:11Z</time>
      </trkpt>
      <trkpt lat="45.99288" lon="1.19461">
        <ele>398.6</ele>
        <time>2018-10-21T08:58:12Z</time>
      </trkpt>
      <trkpt lat="45.99292" lon="1.19457">
        <ele>398.6</ele>
        <time>2018-10-21T08:58:13Z</time>
      </trkpt>
      <trkpt lat="45.99294" lon="1.19456">
        <ele>398.12</ele>
        <time>2018-10-21T08:58:14Z</time>
      </trkpt>
      <trkpt lat="45.99299" lon="1.19457">
        <ele>398.12</ele>
        <time>2018-10-21T08:58:16Z</time>
      </trkpt>
      <trkpt lat="45.99303" lon="1.19458">
        <ele>398.12</ele>
        <time>2018-10-21T08:58:17Z</time>
      </trkpt>
      <trkpt lat="45.9931" lon="1.19463">
        <ele>398.6</ele>
        <time>2018-10-21T08:58:19Z</time>
      </trkpt>
      <trkpt lat="45.99315" lon="1.19465">
        <ele>399.57</ele>
        <time>2018-10-21T08:58:20Z</time>
      </trkpt>
      <trkpt lat="45.9932" lon="1.19467">
        <ele>399.57</ele>
        <time>2018-10-21T08:58:21Z</time>
      </trkpt>
      <trkpt lat="45.99325" lon="1.19468">
        <ele>400.53</ele>
        <time>2018-10-21T08:58:22Z</time>
      </trkpt>
      <trkpt lat="45.9933" lon="1.19469">
        <ele>400.53</ele>
        <time>2018-10-21T08:58:23Z</time>
      </trkpt>
      <trkpt lat="45.99336" lon="1.1947">
        <ele>401.01</ele>
        <time>2018-10-21T08:58:24Z</time>
      </trkpt>
      <trkpt lat="45.99341" lon="1.19471">
        <ele>401.01</ele>
        <time>2018-10-21T08:58:25Z</time>
      </trkpt>
      <trkpt lat="45.99359" lon="1.19477">
        <ele>401.01</ele>
        <time>2018-10-21T08:58:28Z</time>
      </trkpt>
      <trkpt lat="45.99363" lon="1.19481">
        <ele>401.01</ele>
        <time>2018-10-21T08:58:29Z</time>
      </trkpt>
      <trkpt lat="45.99379" lon="1.19495">
        <ele>401.01</ele>
        <time>2018-10-21T08:58:32Z</time>
      </trkpt>
      <trkpt lat="45.99386" lon="1.19496">
        <ele>400.53</ele>
        <time>2018-10-21T08:58:33Z</time>
      </trkpt>
      <trkpt lat="45.99393" lon="1.19496">
        <ele>400.53</ele>
        <time>2018-10-21T08:58:34Z</time>
      </trkpt>
      <trkpt lat="45.99401" lon="1.19495">
        <ele>399.57</ele>
        <time>2018-10-21T08:58:35Z</time>
      </trkpt>
      <trkpt lat="45.99408" lon="1.19492">
        <ele>399.08</ele>
        <time>2018-10-21T08:58:36Z</time>
      </trkpt>
      <trkpt lat="45.99416" lon="1.19486">
        <ele>398.6</ele>
        <time>2018-10-21T08:58:37Z</time>
      </trkpt>
      <trkpt lat="45.99423" lon="1.1948">
        <ele>397.64</ele>
        <time>2018-10-21T08:58:38Z</time>
      </trkpt>
      <trkpt lat="45.99429" lon="1.19473">
        <ele>397.16</ele>
        <time>2018-10-21T08:58:39Z</time>
      </trkpt>
      <trkpt lat="45.99436" lon="1.19467">
        <ele>396.68</ele>
        <time>2018-10-21T08:58:40Z</time>
      </trkpt>
      <trkpt lat="45.99463" lon="1.19433">
        <ele>392.84</ele>
        <time>2018-10-21T08:58:45Z</time>
      </trkpt>
      <trkpt lat="45.99478" lon="1.19407">
        <ele>391.39</ele>
        <time>2018-10-21T08:58:48Z</time>
      </trkpt>
      <trkpt lat="45.99483" lon="1.194">
        <ele>390.91</ele>
        <time>2018-10-21T08:58:49Z</time>
      </trkpt>
      <trkpt lat="45.99489" lon="1.19393">
        <ele>390.43</ele>
        <time>2018-10-21T08:58:50Z</time>
      </trkpt>
      <trkpt lat="45.99496" lon="1.19387">
        <ele>390.43</ele>
        <time>2018-10-21T08:58:51Z</time>
      </trkpt>
      <trkpt lat="45.99502" lon="1.19382">
        <ele>389.95</ele>
        <time>2018-10-21T08:58:52Z</time>
      </trkpt>
      <trkpt lat="45.99516" lon="1.19375">
        <ele>389.47</ele>
        <time>2018-10-21T08:58:54Z</time>
      </trkpt>
      <trkpt lat="45.99523" lon="1.19373">
        <ele>388.99</ele>
        <time>2018-10-21T08:58:55Z</time>
      </trkpt>
      <trkpt lat="45.99538" lon="1.19371">
        <ele>388.99</ele>
        <time>2018-10-21T08:58:57Z</time>
      </trkpt>
      <trkpt lat="45.99545" lon="1.19371">
        <ele>388.99</ele>
        <time>2018-10-21T08:58:58Z</time>
      </trkpt>
      <trkpt lat="45.99578" lon="1.19378">
        <ele>388.99</ele>
        <time>2018-10-21T08:59:03Z</time>
      </trkpt>
      <trkpt lat="45.99647" lon="1.19404">
        <ele>388.99</ele>
        <time>2018-10-21T08:59:13Z</time>
      </trkpt>
      <trkpt lat="45.99695" lon="1.19424">
        <ele>389.95</ele>
        <time>2018-10-21T08:59:22Z</time>
      </trkpt>
      <trkpt lat="45.99718" lon="1.19431">
        <ele>393.32</ele>
        <time>2018-10-21T08:59:29Z</time>
      </trkpt>
      <trkpt lat="45.99721" lon="1.19433">
        <ele>393.8</ele>
        <time>2018-10-21T08:59:30Z</time>
      </trkpt>
      <trkpt lat="45.99724" lon="1.19436">
        <ele>394.76</ele>
        <time>2018-10-21T08:59:31Z</time>
      </trkpt>
      <trkpt lat="45.99726" lon="1.19439">
        <ele>395.24</ele>
        <time>2018-10-21T08:59:32Z</time>
      </trkpt>
      <trkpt lat="45.99733" lon="1.19452">
        <ele>396.68</ele>
        <time>2018-10-21T08:59:37Z</time>
      </trkpt>
      <trkpt lat="45.99735" lon="1.19457">
        <ele>397.16</ele>
        <time>2018-10-21T08:59:40Z</time>
      </trkpt>
      <trkpt lat="45.99742" lon="1.19467">
        <ele>398.12</ele>
        <time>2018-10-21T08:59:44Z</time>
      </trkpt>
      <trkpt lat="45.99764" lon="1.19508">
        <ele>401.01</ele>
        <time>2018-10-21T08:59:56Z</time>
      </trkpt>
      <trkpt lat="45.99777" lon="1.19532">
        <ele>402.45</ele>
        <time>2018-10-21T09:00:03Z</time>
      </trkpt>
      <trkpt lat="45.998" lon="1.19521">
        <ele>403.41</ele>
        <time>2018-10-21T09:00:11Z</time>
      </trkpt>
      <trkpt lat="45.99812" lon="1.19502">
        <ele>403.41</ele>
        <time>2018-10-21T09:00:16Z</time>
      </trkpt>
      <trkpt lat="45.99846" lon="1.19453">
        <ele>403.89</ele>
        <time>2018-10-21T09:00:28Z</time>
      </trkpt>
      <trkpt lat="45.99854" lon="1.19442">
        <ele>403.89</ele>
        <time>2018-10-21T09:00:31Z</time>
      </trkpt>
      <trkpt lat="45.99874" lon="1.19426">
        <ele>404.37</ele>
        <time>2018-10-21T09:00:37Z</time>
      </trkpt>
      <trkpt lat="45.99933" lon="1.19393">
        <ele>404.37</ele>
        <time>2018-10-21T09:00:49Z</time>
      </trkpt>
      <trkpt lat="45.99939" lon="1.19387">
        <ele>404.37</ele>
        <time>2018-10-21T09:00:50Z</time>
      </trkpt>
      <trkpt lat="45.99961" lon="1.19372">
        <ele>403.41</ele>
        <time>2018-10-21T09:00:54Z</time>
      </trkpt>
      <trkpt lat="45.99993" lon="1.19366">
        <ele>402.45</ele>
        <time>2018-10-21T09:00:59Z</time>
      </trkpt>
      <trkpt lat="46.00006" lon="1.19367">
        <ele>402.45</ele>
        <time>2018-10-21T09:01:01Z</time>
      </trkpt>
      <trkpt lat="46.00025" lon="1.1937">
        <ele>401.97</ele>
        <time>2018-10-21T09:01:04Z</time>
      </trkpt>
      <trkpt lat="46.00054" lon="1.19348">
        <ele>402.45</ele>
        <time>2018-10-21T09:01:12Z</time>
      </trkpt>
      <trkpt lat="46.0006" lon="1.19316">
        <ele>402.93</ele>
        <time>2018-10-21T09:01:16Z</time>
      </trkpt>
      <trkpt lat="46.00068" lon="1.19258">
        <ele>402.45</ele>
        <time>2018-10-21T09:01:22Z</time>
      </trkpt>
      <trkpt lat="46.00071" lon="1.19221">
        <ele>400.53</ele>
        <time>2018-10-21T09:01:26Z</time>
      </trkpt>
      <trkpt lat="46.00072" lon="1.19198">
        <ele>400.53</ele>
        <time>2018-10-21T09:01:29Z</time>
      </trkpt>
      <trkpt lat="46.00083" lon="1.1917">
        <ele>400.53</ele>
        <time>2018-10-21T09:01:36Z</time>
      </trkpt>
      <trkpt lat="46.00139" lon="1.19161">
        <ele>402.93</ele>
        <time>2018-10-21T09:01:48Z</time>
      </trkpt>
      <trkpt lat="46.0015" lon="1.19162">
        <ele>402.93</ele>
        <time>2018-10-21T09:01:50Z</time>
      </trkpt>
      <trkpt lat="46.00161" lon="1.19161">
        <ele>402.93</ele>
        <time>2018-10-21T09:01:52Z</time>
      </trkpt>
      <trkpt lat="46.0019" lon="1.1915">
        <ele>402.93</ele>
        <time>2018-10-21T09:01:58Z</time>
      </trkpt>
      <trkpt lat="46.00212" lon="1.19135">
        <ele>402.93</ele>
        <time>2018-10-21T09:02:03Z</time>
      </trkpt>
      <trkpt lat="46.00234" lon="1.19126">
        <ele>402.93</ele>
        <time>2018-10-21T09:02:07Z</time>
      </trkpt>
      <trkpt lat="46.00285" lon="1.19095">
        <ele>402.93</ele>
        <time>2018-10-21T09:02:17Z</time>
      </trkpt>
      <trkpt lat="46.00325" lon="1.1908">
        <ele>403.41</ele>
        <time>2018-10-21T09:02:26Z</time>
      </trkpt>
      <trkpt lat="46.00355" lon="1.19071">
        <ele>403.89</ele>
        <time>2018-10-21T09:02:32Z</time>
      </trkpt>
      <trkpt lat="46.0037" lon="1.1907">
        <ele>404.37</ele>
        <time>2018-10-21T09:02:35Z</time>
      </trkpt>
      <trkpt lat="46.0038" lon="1.1907">
        <ele>404.37</ele>
        <time>2018-10-21T09:02:37Z</time>
      </trkpt>
      <trkpt lat="46.00446" lon="1.19071">
        <ele>404.85</ele>
        <time>2018-10-21T09:02:49Z</time>
      </trkpt>
      <trkpt lat="46.0045" lon="1.1907">
        <ele>405.33</ele>
        <time>2018-10-21T09:02:50Z</time>
      </trkpt>
      <trkpt lat="46.00471" lon="1.19072">
        <ele>405.81</ele>
        <time>2018-10-21T09:02:55Z</time>
      </trkpt>
      <trkpt lat="46.00499" lon="1.19075">
        <ele>408.22</ele>
        <time>2018-10-21T09:03:02Z</time>
      </trkpt>
      <trkpt lat="46.00525" lon="1.19076">
        <ele>408.7</ele>
        <time>2018-10-21T09:03:08Z</time>
      </trkpt>
      <trkpt lat="46.00544" lon="1.19077">
        <ele>409.18</ele>
        <time>2018-10-21T09:03:12Z</time>
      </trkpt>
      <trkpt lat="46.00553" lon="1.19079">
        <ele>409.18</ele>
        <time>2018-10-21T09:03:14Z</time>
      </trkpt>
      <trkpt lat="46.00567" lon="1.19082">
        <ele>410.14</ele>
        <time>2018-10-21T09:03:17Z</time>
      </trkpt>
      <trkpt lat="46.00597" lon="1.19096">
        <ele>410.62</ele>
        <time>2018-10-21T09:03:24Z</time>
      </trkpt>
      <trkpt lat="46.0061" lon="1.19101">
        <ele>410.62</ele>
        <time>2018-10-21T09:03:27Z</time>
      </trkpt>
      <trkpt lat="46.00645" lon="1.19111">
        <ele>410.62</ele>
        <time>2018-10-21T09:03:36Z</time>
      </trkpt>
      <trkpt lat="46.00647" lon="1.19107">
        <ele>410.62</ele>
        <time>2018-10-21T09:03:37Z</time>
      </trkpt>
      <trkpt lat="46.0065" lon="1.19103">
        <ele>410.62</ele>
        <time>2018-10-21T09:03:38Z</time>
      </trkpt>
      <trkpt lat="46.00652" lon="1.19097">
        <ele>410.62</ele>
        <time>2018-10-21T09:03:39Z</time>
      </trkpt>
      <trkpt lat="46.00655" lon="1.19092">
        <ele>410.62</ele>
        <time>2018-10-21T09:03:40Z</time>
      </trkpt>
      <trkpt lat="46.00658" lon="1.19087">
        <ele>409.66</ele>
        <time>2018-10-21T09:03:41Z</time>
      </trkpt>
      <trkpt lat="46.0066" lon="1.19082">
        <ele>409.18</ele>
        <time>2018-10-21T09:03:42Z</time>
      </trkpt>
      <trkpt lat="46.00663" lon="1.19077">
        <ele>408.7</ele>
        <time>2018-10-21T09:03:43Z</time>
      </trkpt>
      <trkpt lat="46.00665" lon="1.19071">
        <ele>408.7</ele>
        <time>2018-10-21T09:03:44Z</time>
      </trkpt>
      <trkpt lat="46.00669" lon="1.19066">
        <ele>408.7</ele>
        <time>2018-10-21T09:03:45Z</time>
      </trkpt>
      <trkpt lat="46.00673" lon="1.19062">
        <ele>408.7</ele>
        <time>2018-10-21T09:03:46Z</time>
      </trkpt>
      <trkpt lat="46.00677" lon="1.19057">
        <ele>408.7</ele>
        <time>2018-10-21T09:03:47Z</time>
      </trkpt>
      <trkpt lat="46.0068" lon="1.19052">
        <ele>408.7</ele>
        <time>2018-10-21T09:03:48Z</time>
      </trkpt>
      <trkpt lat="46.00682" lon="1.19047">
        <ele>408.22</ele>
        <time>2018-10-21T09:03:49Z</time>
      </trkpt>
      <trkpt lat="46.00684" lon="1.19042">
        <ele>408.22</ele>
        <time>2018-10-21T09:03:50Z</time>
      </trkpt>
      <trkpt lat="46.00686" lon="1.19037">
        <ele>408.22</ele>
        <time>2018-10-21T09:03:51Z</time>
      </trkpt>
      <trkpt lat="46.00683" lon="1.19013">
        <ele>408.22</ele>
        <time>2018-10-21T09:03:55Z</time>
      </trkpt>
      <trkpt lat="46.00679" lon="1.18976">
        <ele>407.74</ele>
        <time>2018-10-21T09:04:01Z</time>
      </trkpt>
      <trkpt lat="46.0067" lon="1.18953">
        <ele>406.77</ele>
        <time>2018-10-21T09:04:05Z</time>
      </trkpt>
      <trkpt lat="46.00668" lon="1.18938">
        <ele>405.81</ele>
        <time>2018-10-21T09:04:08Z</time>
      </trkpt>
      <trkpt lat="46.00635" lon="1.18914">
        <ele>404.37</ele>
        <time>2018-10-21T09:04:16Z</time>
      </trkpt>
      <trkpt lat="46.00624" lon="1.18912">
        <ele>403.41</ele>
        <time>2018-10-21T09:04:23Z</time>
      </trkpt>
      <trkpt lat="46.00613" lon="1.189">
        <ele>401.97</ele>
        <time>2018-10-21T09:05:01Z</time>
      </trkpt>
      <trkpt lat="46.00604" lon="1.18895">
        <ele>401.97</ele>
        <time>2018-10-21T09:05:04Z</time>
      </trkpt>
      <trkpt lat="46.00565" lon="1.18901">
        <ele>399.57</ele>
        <time>2018-10-21T09:05:15Z</time>
      </trkpt>
      <trkpt lat="46.00518" lon="1.18896">
        <ele>398.12</ele>
        <time>2018-10-21T09:05:25Z</time>
      </trkpt>
      <trkpt lat="46.00512" lon="1.18895">
        <ele>397.64</ele>
        <time>2018-10-21T09:05:27Z</time>
      </trkpt>
      <trkpt lat="46.00485" lon="1.18885">
        <ele>397.64</ele>
        <time>2018-10-21T09:05:36Z</time>
      </trkpt>
      <trkpt lat="46.00456" lon="1.18877">
        <ele>398.12</ele>
        <time>2018-10-21T09:05:45Z</time>
      </trkpt>
      <trkpt lat="46.00428" lon="1.18882">
        <ele>398.6</ele>
        <time>2018-10-21T09:05:54Z</time>
      </trkpt>
      <trkpt lat="46.00419" lon="1.18888">
        <ele>399.08</ele>
        <time>2018-10-21T09:05:57Z</time>
      </trkpt>
      <trkpt lat="46.00407" lon="1.18879">
        <ele>399.08</ele>
        <time>2018-10-21T09:06:03Z</time>
      </trkpt>
      <trkpt lat="46.00393" lon="1.1886">
        <ele>399.08</ele>
        <time>2018-10-21T09:06:09Z</time>
      </trkpt>
      <trkpt lat="46.00384" lon="1.18853">
        <ele>399.08</ele>
        <time>2018-10-21T09:06:11Z</time>
      </trkpt>
      <trkpt lat="46.00367" lon="1.1883">
        <ele>397.64</ele>
        <time>2018-10-21T09:06:18Z</time>
      </trkpt>
      <trkpt lat="46.00349" lon="1.18816">
        <ele>397.16</ele>
        <time>2018-10-21T09:06:23Z</time>
      </trkpt>
      <trkpt lat="46.0032" lon="1.18805">
        <ele>396.68</ele>
        <time>2018-10-21T09:06:31Z</time>
      </trkpt>
      <trkpt lat="46.00304" lon="1.18801">
        <ele>396.2</ele>
        <time>2018-10-21T09:06:35Z</time>
      </trkpt>
      <trkpt lat="46.00294" lon="1.18799">
        <ele>395.72</ele>
        <time>2018-10-21T09:06:37Z</time>
      </trkpt>
      <trkpt lat="46.00276" lon="1.18761">
        <ele>394.76</ele>
        <time>2018-10-21T09:06:46Z</time>
      </trkpt>
      <trkpt lat="46.00277" lon="1.18726">
        <ele>392.36</ele>
        <time>2018-10-21T09:06:54Z</time>
      </trkpt>
      <trkpt lat="46.0028" lon="1.18715">
        <ele>390.91</ele>
        <time>2018-10-21T09:06:57Z</time>
      </trkpt>
      <trkpt lat="46.0028" lon="1.18704">
        <ele>388.99</ele>
        <time>2018-10-21T09:06:59Z</time>
      </trkpt>
      <trkpt lat="46.00278" lon="1.18692">
        <ele>387.55</ele>
        <time>2018-10-21T09:07:02Z</time>
      </trkpt>
      <trkpt lat="46.0028" lon="1.18679">
        <ele>384.18</ele>
        <time>2018-10-21T09:07:06Z</time>
      </trkpt>
      <trkpt lat="46.0028" lon="1.18659">
        <ele>380.82</ele>
        <time>2018-10-21T09:07:11Z</time>
      </trkpt>
      <trkpt lat="46.00281" lon="1.18653">
        <ele>380.34</ele>
        <time>2018-10-21T09:07:12Z</time>
      </trkpt>
      <trkpt lat="46.00285" lon="1.18638">
        <ele>378.42</ele>
        <time>2018-10-21T09:07:16Z</time>
      </trkpt>
      <trkpt lat="46.00284" lon="1.18619">
        <ele>374.57</ele>
        <time>2018-10-21T09:07:22Z</time>
      </trkpt>
      <trkpt lat="46.00277" lon="1.18599">
        <ele>370.73</ele>
        <time>2018-10-21T09:07:27Z</time>
      </trkpt>
      <trkpt lat="46.00276" lon="1.18595">
        <ele>370.73</ele>
        <time>2018-10-21T09:07:28Z</time>
      </trkpt>
      <trkpt lat="46.00272" lon="1.1856">
        <ele>366.88</ele>
        <time>2018-10-21T09:07:34Z</time>
      </trkpt>
      <trkpt lat="46.00282" lon="1.18532">
        <ele>363.52</ele>
        <time>2018-10-21T09:07:37Z</time>
      </trkpt>
      <trkpt lat="46.00287" lon="1.18522">
        <ele>362.55</ele>
        <time>2018-10-21T09:07:38Z</time>
      </trkpt>
      <trkpt lat="46.00301" lon="1.18496">
        <ele>360.15</ele>
        <time>2018-10-21T09:07:41Z</time>
      </trkpt>
      <trkpt lat="46.00304" lon="1.18488">
        <ele>359.19</ele>
        <time>2018-10-21T09:07:42Z</time>
      </trkpt>
      <trkpt lat="46.00311" lon="1.18458">
        <ele>354.38</ele>
        <time>2018-10-21T09:07:45Z</time>
      </trkpt>
      <trkpt lat="46.00317" lon="1.18435">
        <ele>351.02</ele>
        <time>2018-10-21T09:07:48Z</time>
      </trkpt>
      <trkpt lat="46.00317" lon="1.18427">
        <ele>350.06</ele>
        <time>2018-10-21T09:07:49Z</time>
      </trkpt>
      <trkpt lat="46.00319" lon="1.18423">
        <ele>349.58</ele>
        <time>2018-10-21T09:07:50Z</time>
      </trkpt>
      <trkpt lat="46.0032" lon="1.18415">
        <ele>348.62</ele>
        <time>2018-10-21T09:07:51Z</time>
      </trkpt>
      <trkpt lat="46.00321" lon="1.18408">
        <ele>348.13</ele>
        <time>2018-10-21T09:07:52Z</time>
      </trkpt>
      <trkpt lat="46.00325" lon="1.18404">
        <ele>347.17</ele>
        <time>2018-10-21T09:07:54Z</time>
      </trkpt>
      <trkpt lat="46.00326" lon="1.18401">
        <ele>347.17</ele>
        <time>2018-10-21T09:07:55Z</time>
      </trkpt>
      <trkpt lat="46.00326" lon="1.18397">
        <ele>347.17</ele>
        <time>2018-10-21T09:07:56Z</time>
      </trkpt>
      <trkpt lat="46.00326" lon="1.18392">
        <ele>347.17</ele>
        <time>2018-10-21T09:07:57Z</time>
      </trkpt>
      <trkpt lat="46.00326" lon="1.18384">
        <ele>347.17</ele>
        <time>2018-10-21T09:07:58Z</time>
      </trkpt>
      <trkpt lat="46.00326" lon="1.18376">
        <ele>346.69</ele>
        <time>2018-10-21T09:07:59Z</time>
      </trkpt>
      <trkpt lat="46.00327" lon="1.18367">
        <ele>346.21</ele>
        <time>2018-10-21T09:08:00Z</time>
      </trkpt>
      <trkpt lat="46.00329" lon="1.18359">
        <ele>346.21</ele>
        <time>2018-10-21T09:08:01Z</time>
      </trkpt>
      <trkpt lat="46.00331" lon="1.18352">
        <ele>346.21</ele>
        <time>2018-10-21T09:08:02Z</time>
      </trkpt>
      <trkpt lat="46.0034" lon="1.18318">
        <ele>344.29</ele>
        <time>2018-10-21T09:08:11Z</time>
      </trkpt>
      <trkpt lat="46.00362" lon="1.18266">
        <ele>341.41</ele>
        <time>2018-10-21T09:08:24Z</time>
      </trkpt>
      <trkpt lat="46.00369" lon="1.18252">
        <ele>340.92</ele>
        <time>2018-10-21T09:08:27Z</time>
      </trkpt>
      <trkpt lat="46.00395" lon="1.18205">
        <ele>339</ele>
        <time>2018-10-21T09:08:39Z</time>
      </trkpt>
      <trkpt lat="46.00397" lon="1.18194">
        <ele>339</ele>
        <time>2018-10-21T09:08:41Z</time>
      </trkpt>
      <trkpt lat="46.00398" lon="1.18187">
        <ele>339</ele>
        <time>2018-10-21T09:08:42Z</time>
      </trkpt>
      <trkpt lat="46.00398" lon="1.1818">
        <ele>338.52</ele>
        <time>2018-10-21T09:08:43Z</time>
      </trkpt>
      <trkpt lat="46.00396" lon="1.18173">
        <ele>338.52</ele>
        <time>2018-10-21T09:08:44Z</time>
      </trkpt>
      <trkpt lat="46.00395" lon="1.18165">
        <ele>338.52</ele>
        <time>2018-10-21T09:08:45Z</time>
      </trkpt>
      <trkpt lat="46.00388" lon="1.18092">
        <ele>335.16</ele>
        <time>2018-10-21T09:08:53Z</time>
      </trkpt>
      <trkpt lat="46.00387" lon="1.18018">
        <ele>331.79</ele>
        <time>2018-10-21T09:09:01Z</time>
      </trkpt>
      <trkpt lat="46.00385" lon="1.17913">
        <ele>329.87</ele>
        <time>2018-10-21T09:09:15Z</time>
      </trkpt>
      <trkpt lat="46.00389" lon="1.1785">
        <ele>329.87</ele>
        <time>2018-10-21T09:09:24Z</time>
      </trkpt>
      <trkpt lat="46.00391" lon="1.17844">
        <ele>329.87</ele>
        <time>2018-10-21T09:09:25Z</time>
      </trkpt>
      <trkpt lat="46.00393" lon="1.17838">
        <ele>329.87</ele>
        <time>2018-10-21T09:09:26Z</time>
      </trkpt>
      <trkpt lat="46.00396" lon="1.17832">
        <ele>329.87</ele>
        <time>2018-10-21T09:09:27Z</time>
      </trkpt>
      <trkpt lat="46.004" lon="1.17827">
        <ele>329.87</ele>
        <time>2018-10-21T09:09:28Z</time>
      </trkpt>
      <trkpt lat="46.00403" lon="1.17823">
        <ele>329.87</ele>
        <time>2018-10-21T09:09:29Z</time>
      </trkpt>
      <trkpt lat="46.0046" lon="1.17753">
        <ele>332.27</ele>
        <time>2018-10-21T09:09:47Z</time>
      </trkpt>
      <trkpt lat="46.00504" lon="1.17694">
        <ele>334.68</ele>
        <time>2018-10-21T09:10:01Z</time>
      </trkpt>
      <trkpt lat="46.00505" lon="1.17688">
        <ele>334.68</ele>
        <time>2018-10-21T09:10:02Z</time>
      </trkpt>
      <trkpt lat="46.00507" lon="1.17683">
        <ele>335.16</ele>
        <time>2018-10-21T09:10:03Z</time>
      </trkpt>
      <trkpt lat="46.00506" lon="1.1767">
        <ele>336.12</ele>
        <time>2018-10-21T09:10:11Z</time>
      </trkpt>
      <trkpt lat="46.00505" lon="1.17669">
        <ele>337.08</ele>
        <time>2018-10-21T09:10:15Z</time>
      </trkpt>
    </trkseg>
  </trk>
</gpx>